[[{"header":{"parameterUnit":"m.s-1","parameterCategory":1,"la1":31.0,"la2":29.5877,"lo1":-88.7671,"lo2":-86.6584,"dx":0.0162,"dy":0.0185,"nx":115,"ny":88,"refTime":"2023-02-09T06:00:00:Z","depth":0,"parameterNumber":2,"parameterNumberName":"U-component_of_WINDS"},"data":[0.0,0.0,0.0,0.0,0.0,0.0,0.0,0.0,0.0,0.0,0.0,0.0,0.0,0.0,0.0,0.0,0.0,0.0,0.0,0.0,0.0,0.0,0.0,0.0,0.0,0.0,0.0,0.0,0.0,0.0,0.0,0.0,0.0,0.0,0.0,0.0,0.0,0.0,0.0,0.0,0.0,0.0,0.0,0.0,0.0,0.0,0.0,0.0,0.0,0.0,0.0,0.0,0.0,0.0,0.0,0.0,0.0,0.0,0.0,0.0,0.0,0.0,0.0,0.0,0.0,0.0,0.0,0.0,0.0,0.0,0.0,0.0,0.0,0.0,0.0,0.0,0.0,0.0,0.0,0.0,0.0,0.0,0.0,0.0,0.0,0.0,0.0,0.0,0.0,0.0,0.0,0.0,0.0,0.0,0.0,0.0,0.0,0.0,0.0,0.0,0.0,0.0,0.0,0.0,0.0,0.0,0.0,0.0,0.0,0.0,0.0,0.0,0.0,0.0,0.0,0.0,0.0,0.0,0.0,0.0,0.0,0.0,0.0,0.0,0.0,0.0,0.0,0.0,0.0,0.0,0.0,0.0,0.0,0.0,0.0,0.0,0.0,0.0,0.0,0.0,0.0,0.0,0.0,0.0,0.0,0.0,0.0,0.0,0.0,0.0,0.0,0.0,0.0,0.0,0.0,0.0,0.0,0.0,0.0,0.0,0.0,0.0,0.0,0.0,0.0,0.0,0.0,0.0,0.0,0.0,0.0,0.0,0.0,0.0,0.0,0.0,0.0,0.0,0.0,0.0,0.0,0.0,0.0,0.0,0.0,0.0,0.0,0.0,0.0,0.0,0.0,0.0,0.0,0.0,0.0,0.0,0.0,0.0,0.0,0.0,0.0,0.0,0.0,0.0,0.0,0.0,0.0,0.0,0.0,0.0,0.0,0.0,0.0,0.0,0.0,0.0,0.0,0.0,0.0,0.0,0.0,0.0,0.0,0.0,0.0,0.0,0.0,0.0,0.0,0.0,0.0,0.0,0.0,0.0,0.0,0.0,0.0,0.0,0.0,0.0,0.0,0.0,0.0,0.0,0.0,0.0,0.0,0.0,0.0,0.0,0.0,0.0,0.0,0.0,0.0,0.0,0.0,0.0,0.0,0.0,0.0,0.0,0.0,0.0,0.0,0.0,0.0,0.0,0.0,0.0,0.0,0.0,0.0,0.0,0.0,0.0,0.0,0.0,0.0,0.0,0.0,0.0,0.0,0.0,0.0,0.0,0.0,0.0,0.0,0.0,0.0,0.0,0.0,0.0,0.0,0.0,0.0,0.0,0.0,0.0,0.0,0.0,0.0,0.0,0.0,0.0,0.0,0.0,0.0,0.0,0.0,0.0,0.0,0.0,0.0,0.0,0.0,0.0,0.0,0.0,0.0,0.0,0.0,0.0,0.0,0.0,0.0,0.0,0.0,0.0,0.0,0.0,0.0,0.0,0.0,0.0,0.0,0.0,0.0,0.0,0.0,0.0,0.0,0.0,0.0,0.0,0.0,0.0,0.0,0.0,0.0,0.0,0.0,0.0,0.0,0.0,0.0,0.0,0.0,0.0,0.0,0.0,0.0,0.0,0.0,0.0,0.0,0.0,0.0,0.0,0.0,0.0,0.0,0.0,0.0,0.0,0.0,0.0,0.0,0.0,0.0,0.0,0.0,0.0,0.0,0.0,0.0,0.0,0.0,0.0,0.0,0.0,0.0,0.0,0.0,0.0,0.0,0.0,0.0,0.0,0.0,0.0,0.0,0.0,0.0,0.0,0.0,0.0,0.0,0.0,0.0,0.0,0.0,0.0,0.0,0.0,0.0,0.0,0.0,0.0,0.0,0.0,0.0,0.0,0.0,0.0,0.0,0.0,0.0,0.0,0.0,0.0,0.0,0.0,0.0,0.0,0.0,0.0,0.0,0.0,0.0,0.0,0.0,0.0,0.0,0.0,0.0,0.0,0.0,0.0,0.0,0.0,0.0,0.0,0.0,0.0,0.0,0.0,0.0,0.0,0.0,0.0,0.0,0.0,0.0,0.0,0.0,0.0,0.0,0.0,0.0,0.0,0.0,0.0,0.0,0.0,0.0,0.0,0.0,0.0,0.0,0.0,0.0,0.0,0.0,0.0,0.0,0.0,0.0,0.0,0.0,0.0,0.0,0.0,0.0,0.0,0.0,0.0,0.0,0.0,0.0,0.0,0.0,0.0,0.0,0.0,0.0,0.0,0.0,0.0,0.0,0.0,0.0,0.0,0.0,0.0,0.0,0.0,0.0,0.0,0.0,0.0,0.0,0.0,0.0,0.0,0.0,0.0,0.0,0.0,0.0,0.0,0.0,0.0,0.0,0.0,0.0,0.0,0.0,0.0,0.0,0.0,0.0,0.0,0.0,0.0,0.0,0.0,0.0,0.0,0.0,0.0,0.0,0.0,0.0,0.0,0.0,0.0,0.0,0.0,0.0,0.0,0.0,0.0,0.0,0.0,0.0,0.0,0.0,0.0,0.0,0.0,0.0,0.0,0.0,0.0,0.0,0.0,0.0,0.0,0.0,0.0,0.0,0.0,0.0,0.0,0.0,0.0,0.0,0.0,0.0,0.0,0.0,0.0,0.0,0.0,0.0,0.0,0.0,0.0,0.0,0.0,0.0,0.0,0.0,0.0,0.0,0.0,0.0,0.0,0.0,0.0,0.0,0.0,0.0,0.0,0.0,0.0,0.0,0.0,0.0,0.0,0.0,0.0,0.0,0.0,0.0,0.0,0.0,0.0,0.0,0.0,0.0,0.0,0.0,0.0,0.0,0.0,0.0,0.0,0.0,0.0,0.0,0.0,0.0,0.0,0.0,0.0,0.0,0.0,0.0,0.0,0.0,0.0,0.0,0.0,0.0,0.0,0.0,0.0,0.0,0.0,0.0,0.0,0.0,0.0,0.0,0.0,0.0,0.0,0.0,0.0,0.0,0.0,0.0,0.0,0.0,0.0,0.0,0.0,0.0,0.0,0.0,0.0,0.0,0.0,0.0,0.0,0.0,0.0,0.0,0.0,0.0,0.0,0.0,0.0,0.0,0.0,0.0,0.0,0.0,0.0,0.0,0.0,0.0,0.0,0.0,0.0,0.0,0.0,0.0,0.0,0.0,0.0,0.0,0.0,0.0,0.0,0.0,0.0,0.0,0.0,0.0,0.0,0.0,0.0,0.0,0.0,0.0,0.0,0.0,0.0,0.0,0.0,0.0,0.0,0.0,0.0,0.0,0.0,0.0,0.0,0.0,0.0,0.0,0.0,0.0,0.0,0.0,0.0,0.0,0.0,0.0,0.0,0.0,0.0,0.0,0.0,0.0,0.0,0.0,0.0,0.0,0.0,0.0,0.0,0.0,0.0,0.0,0.0,0.0,0.0,0.0,0.0,0.0,0.0,0.0,0.0,0.0,0.0,0.0,0.0,0.0,0.0,0.0,0.0,0.0,0.0,0.0,0.0,0.0,0.0,0.0,0.0,0.0,0.0,0.0,0.0,0.0,0.0,0.0,0.0,0.0,0.0,0.0,0.0,0.0,0.0,0.0,0.0,0.0,0.0,0.0,0.0,0.0,0.0,0.0,0.0,0.0,0.0,0.0,0.0,0.0,0.0,0.0,0.0,0.0,0.0,0.0,0.0,0.0,0.0,0.0,0.0,0.0,0.0,0.0,0.0,0.0,0.0,0.0,0.0,0.0,0.0,0.0,0.0,0.0,0.0,0.0,0.0,0.0,0.0,0.0,0.0,0.0,0.0,0.0,0.0,0.0,0.0,0.0,0.0,0.0,0.0,0.0,0.0,0.0,0.0,0.0,0.0,0.0,0.0,0.0,0.0,0.0,0.0,0.0,0.0,0.0,0.0,0.0,0.0,0.0,0.0,0.0,0.0,0.0,0.0,0.0,0.0,0.0,0.0,0.0,0.0,0.0,0.0,0.0,0.0,0.0,0.0,0.0,0.0,0.0,0.0,0.0,0.0,0.0,0.0,0.0,0.0,0.0,0.0,0.0,0.0,0.0,0.0,0.0,0.0,0.0,0.0,0.0,0.0,0.0,0.0,0.0,0.0,0.0,0.0,0.0,0.0,0.0,0.0,0.0,0.0,0.0,0.0,0.0,0.0,0.0,0.0,0.0,0.0,0.0,0.0,0.0,0.0,0.0,0.0,0.0,0.0,0.0,0.0,0.0,0.0,0.0,0.0,0.0,0.0,0.0,0.0,0.0,0.0,0.0,0.0,0.0,0.0,2.4317,0.0,0.0,0.0,0.0,0.0,0.0,0.0,0.0,0.0,0.0,0.0,0.0,0.0,0.0,0.0,0.0,0.0,0.0,0.0,0.0,0.0,0.0,0.0,0.0,0.0,0.0,0.0,0.0,0.0,0.0,0.0,0.0,0.0,0.0,0.0,0.0,0.0,0.0,0.0,0.0,0.0,0.0,0.0,0.0,0.0,0.0,0.0,0.0,0.0,0.0,0.0,0.0,0.0,0.0,0.0,0.0,0.0,0.0,0.0,0.0,0.0,0.0,0.0,0.0,0.0,0.0,0.0,0.0,0.0,0.0,0.0,0.0,0.0,0.0,0.0,0.0,0.0,0.0,0.0,0.0,0.0,0.0,0.0,0.0,0.0,0.0,0.0,0.0,0.0,0.0,0.0,0.0,0.0,0.0,0.0,0.0,0.0,0.0,0.0,0.0,0.0,0.0,0.0,0.0,0.0,0.0,0.0,0.0,0.0,0.0,2.2332,2.316,2.3226,2.3799,2.5041,0.0,0.0,0.0,0.0,0.0,0.0,0.0,0.0,0.0,0.0,0.0,0.0,0.0,0.0,0.0,0.0,0.0,0.0,0.0,0.0,0.0,0.0,0.0,0.0,0.0,0.0,0.0,0.0,0.0,0.0,0.0,0.0,0.0,0.0,0.0,0.0,0.0,0.0,0.0,0.0,0.0,0.0,0.0,0.0,0.0,0.0,0.0,0.0,0.0,0.0,0.0,0.0,0.0,0.0,0.0,0.0,0.0,0.0,0.0,0.0,0.0,0.0,0.0,0.0,0.0,0.0,0.0,0.0,0.0,0.0,0.0,0.0,0.0,0.0,0.0,0.0,0.0,0.0,0.0,0.0,0.0,0.0,0.0,0.0,0.0,0.0,0.0,0.0,0.0,0.0,0.0,0.0,0.0,0.0,0.0,0.0,0.0,0.0,0.0,0.0,0.0,0.0,0.0,0.0,0.0,0.0,0.0,0.0,0.0,0.0,0.0,0.0,2.4412,2.4803,2.5655,0.0,0.0,0.0,0.0,0.0,0.0,0.0,0.0,0.0,0.0,0.0,0.0,0.0,0.0,0.0,0.0,0.0,0.0,0.0,0.0,0.0,0.0,0.0,0.0,0.0,0.0,0.0,0.0,0.0,0.0,0.0,0.0,0.0,0.0,0.0,0.0,0.0,0.0,0.0,0.0,0.0,0.0,0.0,0.0,0.0,0.0,0.0,0.0,0.0,0.0,0.0,0.0,0.0,0.0,0.0,0.0,0.0,0.0,0.0,0.0,0.0,0.0,0.0,0.0,0.0,0.0,0.0,0.0,0.0,0.0,0.0,0.0,0.0,0.0,0.0,0.0,0.0,0.0,0.0,0.0,0.0,0.0,0.0,0.0,0.0,0.0,0.0,0.0,0.0,0.0,0.0,0.0,0.0,0.0,0.0,0.0,0.0,0.0,0.0,0.0,0.0,0.0,0.0,0.0,0.0,0.0,0.0,0.0,0.0,0.0,2.3512,2.4375,2.4413,0.0,2.5625,0.0,0.0,0.0,0.0,0.0,0.0,0.0,0.0,0.0,0.0,0.0,0.0,0.0,0.0,0.0,0.0,0.0,0.0,0.0,0.0,0.0,0.0,0.0,0.0,0.0,0.0,0.0,0.0,0.0,0.0,0.0,0.0,0.0,0.0,0.0,0.0,0.0,0.0,0.0,0.0,0.0,0.0,0.0,0.0,0.0,0.0,0.0,0.0,0.0,0.0,0.0,0.0,0.0,0.0,0.0,0.0,0.0,0.0,0.0,0.0,0.0,0.0,0.0,0.0,0.0,0.0,0.0,0.0,0.0,0.0,0.0,0.0,0.0,0.0,0.0,0.0,0.0,0.0,0.0,0.0,0.0,0.0,0.0,0.0,0.0,0.0,0.0,0.0,0.0,0.0,0.0,0.0,0.0,0.0,0.0,0.0,0.0,0.0,0.0,0.0,0.0,0.0,0.0,0.0,0.0,0.0,0.0,0.0,0.0,0.0,2.5328,2.5173,2.5166,2.5338,0.0,0.0,0.0,0.0,0.0,0.0,0.0,0.0,0.0,0.0,0.0,0.0,0.0,0.0,0.0,0.0,0.0,0.0,0.0,0.0,0.0,0.0,0.0,0.0,0.0,0.0,0.0,0.0,0.0,0.0,0.0,0.0,0.0,0.0,0.0,0.0,0.0,0.0,0.0,0.0,0.0,0.0,0.0,0.0,0.0,0.0,0.0,0.0,0.0,0.0,0.0,0.0,0.0,0.0,0.0,0.0,0.0,0.0,0.0,0.0,0.0,0.0,0.0,0.0,0.0,0.0,0.0,0.0,0.0,0.0,0.0,0.0,0.0,0.0,0.0,0.0,0.0,0.0,0.0,0.0,0.0,0.0,0.0,0.0,0.0,0.0,0.0,0.0,0.0,0.0,0.0,0.0,0.0,0.0,0.0,0.0,0.0,0.0,0.0,0.0,0.0,0.0,0.0,0.0,0.0,0.0,0.0,0.0,0.0,0.0,2.5418,2.6317,2.5701,2.5693,2.5693,2.5703,0.0,0.0,0.0,0.0,0.0,0.0,0.0,0.0,0.0,0.0,0.0,0.0,0.0,0.0,0.0,0.0,0.0,0.0,0.0,0.0,0.0,0.0,0.0,0.0,0.0,0.0,0.0,0.0,0.0,0.0,0.0,0.0,0.0,0.0,0.0,0.0,0.0,0.0,0.0,0.0,0.0,0.0,0.0,0.0,0.0,0.0,0.0,0.0,0.0,0.0,0.0,0.0,0.0,0.0,0.0,0.0,0.0,0.0,0.0,0.0,0.0,0.0,0.0,0.0,0.0,0.0,0.0,0.0,0.0,0.0,0.0,0.0,0.0,0.0,0.0,0.0,0.0,0.0,0.0,0.0,0.0,0.0,0.0,0.0,0.0,0.0,0.0,0.0,0.0,0.0,0.0,0.0,0.0,0.0,0.0,0.0,0.0,0.0,0.0,0.0,0.0,0.0,0.0,0.0,0.0,0.0,0.0,0.0,2.3161,2.4849,2.5714,2.5658,2.5671,2.569,0.0,0.0,0.0,0.0,0.0,0.0,0.0,0.0,0.0,0.0,0.0,0.0,0.0,0.0,0.0,0.0,0.0,0.0,0.0,0.0,0.0,0.0,0.0,0.0,0.0,0.0,0.0,0.0,0.0,0.0,0.0,0.0,0.0,0.0,0.0,0.0,0.0,0.0,0.0,0.0,0.0,0.0,0.0,0.0,0.0,0.0,0.0,0.0,0.0,0.0,0.0,0.0,0.0,0.0,0.0,0.0,0.0,0.0,0.0,0.0,0.0,0.0,0.0,0.0,0.0,0.0,0.0,0.0,0.0,0.0,0.0,0.0,0.0,0.0,0.0,0.0,0.0,0.0,0.0,0.0,0.0,0.0,0.0,0.0,0.0,0.0,0.0,0.0,0.0,0.0,0.0,0.0,0.0,0.0,0.0,0.0,0.0,0.0,0.0,0.0,0.0,0.0,0.0,0.0,0.0,0.0,0.0,0.0,0.0,2.3952,2.5031,2.614,2.7095,2.6251,2.5694,0.0,0.0,0.0,0.0,0.0,0.0,0.0,0.0,0.0,0.0,0.0,0.0,0.0,0.0,0.0,0.0,0.0,0.0,0.0,0.0,0.0,0.0,0.0,0.0,0.0,0.0,0.0,0.0,0.0,0.0,0.0,0.0,0.0,0.0,0.0,0.0,0.0,0.0,0.0,0.0,0.0,0.0,0.0,0.0,0.0,0.0,0.0,0.0,0.0,0.0,0.0,0.0,0.0,0.0,0.0,0.0,0.0,0.0,0.0,0.0,0.0,0.0,0.0,0.0,0.0,0.0,0.0,0.0,0.0,0.0,0.0,0.0,0.0,0.0,0.0,0.0,0.0,0.0,0.0,0.0,0.0,0.0,0.0,0.0,0.0,0.0,0.0,0.0,0.0,0.0,0.0,0.0,0.0,0.0,0.0,0.0,0.0,0.0,0.0,0.0,0.0,0.0,0.0,0.0,0.0,0.0,0.0,0.0,0.0,2.4719,0.0,2.6104,2.7162,2.6247,2.5679,0.0,0.0,0.0,0.0,0.0,0.0,0.0,0.0,0.0,0.0,0.0,0.0,0.0,0.0,0.0,0.0,0.0,0.0,0.0,0.0,0.0,0.0,0.0,0.0,0.0,0.0,0.0,0.0,0.0,0.0,0.0,0.0,0.0,0.0,0.0,0.0,0.0,0.0,0.0,0.0,0.0,0.0,0.0,0.0,0.0,0.0,0.0,0.0,0.0,0.0,0.0,0.0,0.0,0.0,0.0,0.0,0.0,0.0,0.0,0.0,0.0,0.0,0.0,0.0,0.0,0.0,0.0,0.0,0.0,0.0,0.0,0.0,0.0,0.0,0.0,0.0,0.0,0.0,0.0,0.0,0.0,0.0,0.0,0.0,0.0,0.0,0.0,0.0,0.0,0.0,0.0,0.0,0.0,0.0,0.0,0.0,0.0,0.0,0.0,0.0,0.0,0.0,0.0,0.0,0.0,0.0,0.0,0.0,2.4807,2.551,2.559,2.5751,2.5596,2.5715,2.5678,0.0,0.0,0.0,0.0,0.0,0.0,0.0,0.0,0.0,0.0,0.0,0.0,0.0,0.0,0.0,0.0,0.0,0.0,0.0,0.0,0.0,0.0,0.0,0.0,0.0,0.0,0.0,0.0,0.0,0.0,0.0,0.0,0.0,0.0,0.0,0.0,0.0,0.0,0.0,0.0,0.0,0.0,0.0,0.0,0.0,0.0,0.0,0.0,0.0,0.0,0.0,0.0,0.0,0.0,0.0,0.0,0.0,0.0,0.0,0.0,0.0,0.0,0.0,0.0,0.0,0.0,0.0,0.0,0.0,0.0,0.0,0.0,0.0,0.0,0.0,0.0,0.0,0.0,0.0,0.0,0.0,0.0,0.0,0.0,0.0,0.0,0.0,0.0,0.0,0.0,0.0,0.0,0.0,0.0,0.0,0.0,0.0,0.0,0.0,0.0,0.0,0.0,0.0,0.0,0.0,0.0,0.0,0.0,0.0,2.8008,2.8105,2.8388,2.8891,2.7892,2.7074,0.0,0.0,0.0,0.0,0.0,0.0,0.0,0.0,0.0,0.0,0.0,0.0,0.0,0.0,0.0,0.0,0.0,0.0,0.0,0.0,0.0,0.0,0.0,0.0,0.0,0.0,0.0,0.0,0.0,0.0,0.0,0.0,0.0,0.0,0.0,0.0,0.0,0.0,0.0,0.0,0.0,0.0,0.0,0.0,0.0,0.0,0.0,0.0,0.0,0.0,0.0,0.0,0.0,0.0,0.0,0.0,0.0,0.0,0.0,0.0,0.0,0.0,0.0,0.0,0.0,0.0,0.0,0.0,0.0,0.0,0.0,0.0,0.0,0.0,0.0,0.0,0.0,0.0,0.0,0.0,0.0,0.0,0.0,0.0,0.0,0.0,0.0,0.0,0.0,0.0,0.0,0.0,0.0,0.0,0.0,0.0,0.0,0.0,0.0,0.0,0.0,0.0,0.0,0.0,0.0,0.0,0.0,0.0,0.0,3.043,2.9969,2.9931,3.0482,2.9218,2.7987,2.693,0.0,0.0,0.0,0.0,0.0,0.0,0.0,0.0,0.0,0.0,0.0,0.0,0.0,0.0,0.0,0.0,0.0,0.0,0.0,0.0,0.0,0.0,0.0,0.0,0.0,0.0,0.0,0.0,0.0,0.0,0.0,0.0,0.0,0.0,0.0,0.0,0.0,0.0,0.0,0.0,0.0,0.0,0.0,0.0,0.0,0.0,0.0,0.0,0.0,0.0,0.0,0.0,0.0,0.0,0.0,0.0,0.0,0.0,0.0,0.0,0.0,0.0,0.0,0.0,0.0,0.0,0.0,0.0,0.0,0.0,0.0,0.0,0.0,0.0,0.0,0.0,0.0,0.0,0.0,0.0,0.0,0.0,0.0,0.0,0.0,0.0,0.0,0.0,0.0,0.0,0.0,0.0,0.0,0.0,0.0,0.0,0.0,0.0,0.0,0.0,0.0,0.0,0.0,0.0,0.0,0.0,0.0,0.0,3.2845,3.1456,3.079,3.0807,2.9951,2.8652,0.0,0.0,0.0,0.0,0.0,0.0,0.0,0.0,0.0,0.0,0.0,0.0,0.0,0.0,0.0,0.0,0.0,0.0,0.0,0.0,0.0,0.0,0.0,0.0,0.0,0.0,0.0,0.0,0.0,0.0,0.0,0.0,0.0,0.0,0.0,0.0,0.0,0.0,0.0,0.0,0.0,0.0,0.0,0.0,0.0,0.0,0.0,0.0,0.0,0.0,0.0,0.0,0.0,0.0,0.0,0.0,0.0,0.0,0.0,0.0,0.0,0.0,0.0,0.0,0.0,0.0,0.0,0.0,0.0,0.0,0.0,0.0,0.0,0.0,0.0,0.0,0.0,0.0,0.0,0.0,0.0,0.0,0.0,0.0,0.0,0.0,0.0,0.0,0.0,0.0,0.0,0.0,0.0,0.0,0.0,0.0,0.0,0.0,0.0,0.0,0.0,0.0,0.0,0.0,0.0,0.0,0.0,0.0,0.0,3.3714,3.5051,3.5266,3.4217,3.2822,3.1072,0.0,0.0,0.0,0.0,0.0,0.0,0.0,0.0,0.0,0.0,0.0,0.0,0.0,0.0,0.0,0.0,0.0,0.0,0.0,0.0,0.0,0.0,0.0,0.0,0.0,0.0,0.0,0.0,0.0,0.0,0.0,0.0,0.0,0.0,0.0,0.0,0.0,0.0,0.0,0.0,0.0,0.0,0.0,0.0,0.0,0.0,0.0,0.0,0.0,0.0,0.0,0.0,0.0,0.0,0.0,0.0,0.0,0.0,0.0,0.0,0.0,0.0,0.0,0.0,0.0,0.0,0.0,0.0,0.0,0.0,0.0,0.0,0.0,0.0,0.0,0.0,0.0,0.0,0.0,0.0,0.0,0.0,0.0,0.0,0.0,0.0,0.0,0.0,0.0,0.0,0.0,0.0,0.0,0.0,0.0,0.0,0.0,0.0,0.0,0.0,0.0,0.0,0.0,0.0,0.0,0.0,0.0,0.0,3.3114,3.5085,3.7226,3.7916,3.7128,3.4792,3.243,0.0,0.0,0.0,0.0,0.0,0.0,0.0,0.0,0.0,0.0,0.0,0.0,0.0,0.0,0.0,0.0,0.0,0.0,0.0,0.0,0.0,0.0,0.0,0.0,0.0,0.0,0.0,0.0,0.0,0.0,0.0,0.0,0.0,0.0,0.0,0.0,0.0,0.0,0.0,0.0,0.0,0.0,0.0,0.0,0.0,0.0,0.0,0.0,0.0,0.0,0.0,0.0,0.0,0.0,0.0,0.0,0.0,0.0,0.0,0.0,0.0,0.0,0.0,0.0,0.0,0.0,0.0,0.0,0.0,0.0,0.0,0.0,0.0,0.0,0.0,0.0,0.0,0.0,0.0,0.0,0.0,0.0,0.0,0.0,0.0,0.0,0.0,0.0,0.0,0.0,0.0,0.0,0.0,0.0,0.0,0.0,0.0,0.0,0.0,0.0,0.0,0.0,0.0,0.0,0.0,0.0,0.0,0.0,3.4136,3.6441,3.8246,3.9264,3.9339,3.6144,3.3277,0.0,0.0,0.0,0.0,0.0,0.0,0.0,0.0,0.0,0.0,0.0,0.0,0.0,0.0,0.0,0.0,0.0,0.0,0.0,0.0,0.0,0.0,0.0,0.0,0.0,0.0,0.0,0.0,0.0,0.0,0.0,0.0,0.0,0.0,0.0,0.0,0.0,0.0,0.0,0.0,0.0,0.0,0.0,0.0,0.0,0.0,0.0,0.0,0.0,0.0,0.0,0.0,0.0,0.0,0.0,0.0,0.0,0.0,0.0,0.0,0.0,0.0,0.0,0.0,0.0,0.0,0.0,0.0,0.0,0.0,0.0,0.0,0.0,0.0,0.0,0.0,0.0,0.0,0.0,0.0,0.0,0.0,0.0,0.0,0.0,0.0,0.0,0.0,0.0,0.0,0.0,0.0,0.0,0.0,0.0,0.0,0.0,0.0,0.0,0.0,0.0,0.0,0.0,0.0,0.0,0.0,0.0,0.0,3.4665,3.646,3.8219,3.9512,4.0279,3.7073,3.4497,0.0,0.0,0.0,0.0,0.0,0.0,0.0,0.0,0.0,0.0,0.0,0.0,0.0,0.0,0.0,0.0,0.0,0.0,0.0,0.0,0.0,0.0,0.0,0.0,0.0,0.0,0.0,0.0,0.0,0.0,0.0,0.0,0.0,0.0,0.0,0.0,0.0,0.0,0.0,0.0,0.0,0.0,0.0,0.0,0.0,0.0,0.0,0.0,-1.5343,0.0,0.0,0.0,0.0,0.0,0.0,0.0,0.0,0.0,0.0,0.0,0.0,0.0,0.0,0.0,0.0,0.0,0.0,0.0,0.0,0.0,0.0,0.0,0.0,0.0,0.0,0.0,0.0,0.0,0.0,0.0,0.0,0.0,0.0,0.0,0.0,0.0,0.0,0.0,0.0,0.0,0.0,0.0,0.0,0.0,0.0,0.0,0.0,0.0,0.0,0.0,0.0,0.0,0.0,0.0,0.0,0.0,0.0,0.0,3.5085,3.713,3.8516,3.9706,4.0552,3.7832,3.5546,0.0,0.0,0.0,0.0,0.0,0.0,0.0,0.0,0.0,0.0,0.0,0.0,0.0,0.0,0.0,0.0,0.0,0.0,0.0,0.0,0.0,0.0,0.0,0.0,0.0,0.0,0.0,0.0,0.0,0.0,0.0,0.0,0.0,0.0,0.0,0.0,0.0,0.0,0.0,0.0,0.0,0.0,0.0,0.0,0.0,0.0,0.0,0.0,0.0,0.0,0.0,0.0,0.0,0.0,0.0,0.0,0.0,0.0,0.0,0.0,0.0,0.0,0.0,0.0,0.0,0.0,0.0,0.0,0.0,0.0,0.0,0.0,0.0,0.0,0.0,0.0,0.0,0.0,0.0,0.0,0.0,0.0,0.0,0.0,0.0,0.0,0.0,0.0,0.0,0.0,0.0,0.0,0.0,0.0,0.0,0.0,0.0,0.0,0.0,0.0,0.0,0.0,0.0,0.0,0.0,0.0,0.0,3.3551,3.5537,3.7809,3.8897,3.9847,4.0723,3.8423,3.6397,3.4837,0.0,0.0,0.0,0.0,0.0,0.0,0.0,0.0,0.0,0.0,0.0,0.0,0.0,0.0,0.0,0.0,0.0,0.0,0.0,0.0,0.0,0.0,0.0,0.0,0.0,0.0,0.0,0.0,0.0,0.0,0.0,0.0,0.0,0.0,0.0,0.0,0.0,0.0,0.604,-0.1745,0.0,0.0,0.0,0.0,0.0,0.0,0.0,0.0,-1.8279,0.0,0.0,0.0,0.0,0.0,0.0,0.0,0.0,0.0,0.0,0.0,0.0,0.0,0.0,0.0,0.0,0.0,0.0,0.0,0.0,0.0,0.0,0.0,0.0,0.0,0.0,0.0,0.0,0.0,0.0,0.0,0.0,0.0,0.0,0.0,0.0,0.0,0.0,0.0,0.0,0.0,0.0,0.0,0.0,0.0,0.0,0.0,0.0,0.0,0.0,0.0,0.0,0.0,0.0,0.0,0.0,3.2767,3.443,3.6147,3.7867,3.8936,3.9898,4.0699,3.847,3.6709,3.5658,0.0,0.0,0.0,0.0,0.0,0.0,0.0,0.0,0.0,0.0,0.0,0.0,0.0,0.0,0.0,0.0,0.0,0.0,0.0,0.0,0.0,0.0,0.0,0.0,0.0,0.0,0.0,0.0,0.0,0.0,0.0,0.0,0.0,0.0,0.0,0.0,0.0,0.0,0.0,-0.3048,-0.7153,0.0,0.0,0.0,0.0,0.0,0.0,0.0,0.0,-2.1834,0.0,0.0,0.0,0.0,0.0,0.0,0.0,0.0,0.0,0.0,0.0,0.0,0.0,0.0,0.0,0.0,0.0,0.0,0.0,0.0,0.0,0.0,0.0,0.0,0.0,0.0,0.0,0.0,0.0,0.0,0.0,0.0,0.0,0.0,0.0,0.0,0.0,0.0,0.0,0.0,0.0,0.0,0.0,0.0,0.0,0.0,0.0,0.0,0.0,0.0,0.0,0.0,0.0,0.0,0.0,3.3661,3.4963,3.6619,3.8645,3.9309,3.9801,4.017,3.826,3.6576,0.0,0.0,0.0,0.0,0.0,0.0,0.0,0.0,0.0,0.0,0.0,0.0,0.0,0.0,0.0,0.0,0.0,0.0,0.0,0.0,0.0,0.0,0.0,0.0,0.0,0.0,0.0,0.0,0.0,0.0,0.0,0.0,0.0,0.0,0.0,0.0,0.0,0.0,0.0,0.0,-0.4017,-0.7294,-0.955,0.0,0.0,0.0,0.0,0.0,0.0,-2.1592,-2.2705,0.0,0.0,0.0,0.0,0.0,0.0,0.0,0.0,0.0,0.0,0.0,0.0,0.0,0.0,0.0,0.0,0.0,0.0,0.0,0.0,0.0,0.0,0.0,0.0,0.0,0.0,0.0,0.0,0.0,0.0,0.0,0.0,0.0,0.0,0.0,0.0,0.0,0.0,0.0,0.0,0.0,0.0,0.0,0.0,0.0,0.0,0.0,0.0,0.0,0.0,0.0,0.0,0.0,0.0,0.0,3.4283,3.5553,3.7276,3.9395,3.9801,3.9855,3.9668,3.791,3.62,0.0,0.0,0.0,0.0,0.0,0.0,0.0,0.0,0.0,0.0,0.0,0.0,0.0,0.0,0.0,0.0,0.0,0.0,0.0,0.0,0.0,0.0,0.0,0.0,0.0,0.0,0.0,0.0,0.0,0.0,0.0,0.0,0.0,0.0,0.0,0.0,0.0,0.0,0.0,0.0,0.0,-0.7715,-1.0812,-1.1972,0.0,0.0,0.0,0.0,-2.1941,-2.3075,0.0,0.0,0.0,0.0,0.0,0.0,0.0,0.0,0.0,0.0,0.0,0.0,0.0,0.0,0.0,0.0,0.0,0.0,0.0,0.0,0.0,0.0,0.0,0.0,0.0,0.0,0.0,0.0,0.0,0.0,0.0,0.0,0.0,0.0,0.0,0.0,0.0,0.0,0.0,0.0,0.0,0.0,0.0,0.0,0.0,0.0,0.0,0.0,0.0,0.0,0.0,0.0,0.0,0.0,0.0,0.0,3.4429,3.6725,3.8421,3.948,4.0345,4.0438,3.9694,3.7322,3.5597,0.0,0.0,0.0,0.0,0.0,0.0,0.0,0.0,0.0,0.0,0.0,0.0,0.0,0.0,0.0,0.0,0.0,0.0,0.0,0.0,0.0,0.0,0.0,0.0,0.0,0.0,0.0,0.0,0.0,0.0,0.0,0.0,0.0,0.0,0.0,0.0,0.0,0.0,0.0,0.0,0.0,-0.8318,-0.9111,-1.2594,-1.6024,0.0,0.0,-2.3085,-2.446,-2.6784,0.0,0.0,0.0,0.0,0.0,0.0,0.0,0.0,0.0,0.0,0.0,0.0,0.0,0.0,0.0,0.0,0.0,0.0,0.0,0.0,0.0,0.0,0.0,0.0,0.0,0.0,0.0,0.0,0.0,0.0,0.0,0.0,0.0,0.0,0.0,0.0,0.0,0.0,0.0,0.0,0.0,0.0,0.0,0.0,0.0,0.0,0.0,0.0,0.0,0.0,0.0,0.0,0.0,0.0,0.0,3.366,3.4523,3.6996,3.8704,3.9539,4.0501,4.0383,3.9052,3.7019,3.5302,0.0,0.0,0.0,0.0,0.0,0.0,0.0,0.0,0.0,0.0,0.0,0.0,0.0,0.0,0.0,0.0,0.0,0.0,0.0,0.0,0.0,0.0,0.0,0.0,0.0,0.0,0.0,0.0,0.0,0.0,0.0,0.0,0.0,0.0,0.0,0.0,0.0,0.0,0.0,0.0,0.0,0.0,-1.0908,-1.3896,0.0,0.0,0.0,-2.518,-2.6477,0.0,0.0,0.0,0.0,0.0,0.0,0.0,0.0,0.0,0.0,0.0,0.0,0.0,0.0,0.0,0.0,0.0,0.0,0.0,0.0,0.0,0.0,0.0,0.0,0.0,0.0,0.0,0.0,0.0,0.0,0.0,0.0,0.0,0.0,0.0,0.0,0.0,0.0,0.0,0.0,0.0,0.0,0.0,0.0,0.0,0.0,0.0,0.0,0.0,0.0,0.0,0.0,0.0,0.0,0.0,0.0,0.0,3.4855,3.7183,3.8902,3.9924,4.0669,4.0246,3.8544,3.7081,0.0,0.0,0.0,0.0,0.0,0.0,0.0,0.0,0.0,0.0,0.0,0.0,0.0,0.0,0.0,0.0,0.0,0.0,0.0,0.0,0.0,0.0,0.0,0.0,0.0,0.0,0.0,1.212,0.0,0.0,0.0,0.0,0.0,0.0,0.0,0.0,0.0,0.0,0.0,0.0,0.0,0.0,-0.9022,-1.3128,-1.5742,-1.8311,0.0,0.0,-2.6642,-2.819,-2.8711,-2.9059,0.0,0.0,0.0,0.0,0.0,0.0,0.0,0.0,0.0,0.0,0.0,0.0,0.0,0.0,0.0,0.0,0.0,0.0,0.0,0.0,0.0,0.0,0.0,0.0,0.0,0.0,0.0,0.0,0.0,0.0,0.0,0.0,0.0,0.0,0.0,0.0,0.0,0.0,0.0,0.0,0.0,0.0,0.0,0.0,0.0,0.0,0.0,0.0,0.0,0.0,0.0,0.0,0.0,0.0,0.0,3.5794,3.751,3.919,4.0824,4.0961,4.022,3.8561,3.7604,3.5937,0.0,0.0,0.0,0.0,0.0,0.0,0.0,0.0,0.0,0.0,0.0,0.0,0.0,0.0,0.0,0.0,0.0,0.0,0.0,0.0,0.0,0.0,0.0,0.0,0.0,0.0,0.0,0.0,0.0,0.0,0.0,0.0,0.0,0.0,0.0,0.0,0.0,0.0,0.0,0.0,0.0,-1.2263,-1.4935,-1.8331,-2.1366,0.0,0.0,-2.7657,-2.9552,-3.094,-3.1314,-2.9754,0.0,0.0,0.0,0.0,0.0,0.0,0.0,0.0,0.0,0.0,0.0,0.0,0.0,0.0,0.0,0.0,0.0,0.0,0.0,0.0,0.0,0.0,0.0,0.0,0.0,0.0,0.0,0.0,0.0,0.0,0.0,0.0,0.0,0.0,0.0,0.0,0.0,0.0,0.0,0.0,0.0,0.0,0.0,0.0,0.0,0.0,0.0,0.0,0.0,0.0,0.0,0.0,0.0,3.3632,3.4315,3.7019,3.8746,3.9468,4.0518,4.0238,3.8528,3.7713,3.6052,0.0,0.0,0.0,0.0,0.0,0.0,0.0,0.0,0.0,0.0,0.0,0.0,0.0,0.0,0.0,0.0,0.0,0.0,0.0,0.0,0.0,0.0,0.0,0.0,0.0,0.0,0.0,0.0,0.9221,0.7196,0.4856,0.0,0.0,0.0,0.0,0.0,0.0,0.0,0.0,0.0,0.0,-1.392,-1.6198,-1.9836,0.0,0.0,-2.5918,-2.7863,-2.9247,-2.9713,-2.9882,-3.0005,-2.9375,0.0,0.0,0.0,0.0,0.0,0.0,0.0,0.0,0.0,0.0,0.0,0.0,0.0,0.0,0.0,0.0,0.0,0.0,0.0,0.0,0.0,0.0,0.0,0.0,0.0,0.0,0.0,0.0,0.0,0.0,0.0,0.0,0.0,0.0,0.0,0.0,0.0,0.0,0.0,0.0,0.0,0.0,0.0,0.0,0.0,0.0,0.0,0.0,0.0,0.0,0.0,0.0,3.3326,3.4075,3.6703,3.8449,3.9253,4.0476,4.0278,3.857,3.7949,3.6437,0.0,0.0,0.0,0.0,0.0,0.0,0.0,0.0,0.0,0.0,0.0,0.0,0.0,0.0,0.0,0.0,0.0,0.0,0.0,0.0,0.0,0.0,0.0,0.0,0.0,0.0,0.0,0.0,0.8388,0.6153,0.3314,0.0,0.0,0.0,0.0,0.0,0.0,0.0,0.0,0.0,0.0,-1.5092,-1.7116,-2.0637,-2.3228,-2.3845,-2.5802,-2.7604,-2.8671,-2.8771,-2.8999,-2.9623,0.0,0.0,0.0,0.0,0.0,0.0,0.0,0.0,0.0,0.0,0.0,0.0,0.0,0.0,0.0,0.0,0.0,0.0,0.0,0.0,0.0,0.0,0.0,0.0,0.0,0.0,0.0,0.0,0.0,0.0,2.5621,0.0,0.0,0.0,0.0,0.0,0.0,0.0,0.0,0.0,0.0,0.0,0.0,0.0,0.0,0.0,0.0,0.0,0.0,0.0,0.0,0.0,0.0,3.3375,3.5786,3.6794,3.8481,4.09,4.1067,4.0285,3.8613,3.8495,3.727,3.4745,0.0,0.0,0.0,0.0,0.0,0.0,0.0,0.0,0.0,0.0,0.0,0.0,0.0,0.0,0.0,0.0,0.0,0.0,0.0,0.0,0.0,0.0,0.0,0.0,0.0,0.0,0.7172,0.4958,0.322,0.0,0.0,0.0,0.0,0.0,0.0,0.0,0.0,0.0,0.0,-1.3074,-1.578,-1.7783,-2.0605,-2.2773,-2.3736,-2.5256,-2.6762,-2.8023,-2.8861,-2.9147,0.0,0.0,0.0,0.0,0.0,0.0,0.0,0.0,0.0,0.0,0.0,0.0,0.0,0.0,0.0,0.0,0.0,0.0,0.0,0.0,0.0,0.0,0.0,0.0,0.0,0.0,0.0,2.807,2.8016,0.0,0.0,0.0,0.0,0.0,0.0,0.0,0.0,0.0,0.0,0.0,3.0428,3.185,0.0,0.0,0.0,0.0,0.0,0.0,0.0,0.0,0.0,0.0,0.0,0.0,3.4223,3.5124,3.7598,3.9337,4.0218,4.0803,4.0547,3.9393,3.8787,3.7287,3.4709,0.0,0.0,0.0,0.0,0.0,0.0,0.0,0.0,0.0,0.0,0.0,0.0,0.0,0.0,0.0,0.0,0.0,0.0,0.0,0.0,0.0,0.0,0.0,0.0,0.0,0.9125,0.0,0.0,0.0,0.0,0.0,0.0,0.0,0.0,0.0,0.0,0.0,-0.6109,-1.0419,-1.3045,-1.5141,-1.6938,-1.9357,-2.1495,0.0,0.0,0.0,0.0,0.0,0.0,0.0,0.0,0.0,0.0,0.0,0.0,0.0,0.0,-4.0177,-4.067,-4.151,-4.2133,-4.2167,0.0,0.0,0.0,0.0,0.0,0.0,0.0,0.0,0.0,0.0,0.0,0.0,0.0,0.0,2.9279,0.0,2.8764,0.0,0.0,0.0,0.0,0.0,0.0,0.0,0.0,3.0136,3.1213,3.1313,3.2726,3.3105,0.0,3.2866,3.2558,0.0,0.0,0.0,0.0,0.0,0.0,0.0,0.0,3.4481,3.5143,3.789,3.9636,4.0237,4.0515,4.024,3.9372,3.8209,3.6661,3.4664,3.3523,3.237,0.0,0.0,0.0,0.0,0.0,0.0,0.0,0.0,0.0,0.0,0.0,0.0,0.0,0.0,0.0,0.0,0.0,0.0,0.0,0.0,0.0,0.0,0.0,0.7145,0.0,0.0,0.0,0.0,0.0,0.0,0.0,0.0,0.0,-0.4709,-0.5125,-0.685,-1.1041,-1.377,-1.5579,-1.6398,0.0,0.0,0.0,0.0,0.0,0.0,0.0,-2.8883,-2.9257,-3.094,-3.3011,-3.54,-3.7966,-3.9802,-4.0041,0.0,0.0,-4.1637,-4.2521,-4.3163,-4.2847,-4.3125,-4.3179,-4.24,-4.2272,-4.2061,0.0,0.0,0.0,0.0,0.0,0.0,0.0,0.0,2.9371,2.9476,0.0,2.9513,0.0,0.0,0.0,0.0,0.0,2.901,0.0,0.0,3.1347,3.2196,3.2301,3.3202,3.3574,3.357,3.4316,3.4256,3.3414,3.1725,0.0,0.0,0.0,0.0,0.0,0.0,3.4186,3.5864,3.7624,3.9312,4.0881,4.0184,3.9361,3.8532,3.6871,3.5591,3.4756,3.4612,3.3809,3.2166,3.1875,0.0,0.0,0.0,0.0,0.0,0.0,0.0,0.0,0.0,0.0,0.0,0.0,0.0,0.0,0.0,0.0,0.0,0.0,0.0,0.0,0.5385,0.0,0.0,0.0,0.0,0.0,0.0,0.0,0.0,0.0,0.0,-0.6165,-0.7158,-0.894,-1.1769,0.0,0.0,0.0,0.0,-2.2686,-2.2539,-2.4053,-2.5857,-2.7515,-2.8748,-2.9496,-2.9613,0.0,0.0,-3.6985,-3.8808,-3.9939,-4.0213,-4.1216,-4.1956,-4.2033,-4.2828,-4.3187,-4.2402,-4.3012,-4.3266,-4.251,-4.2357,-4.2149,3.4729,0.0,0.0,0.0,0.0,3.0567,3.1213,3.1795,3.2546,3.2493,3.1913,3.1448,0.0,0.0,0.0,0.0,0.0,0.0,2.9769,3.0506,3.2849,3.4267,3.4941,3.642,3.6784,3.6177,3.5164,3.4881,3.5147,3.2876,3.1844,3.2089,0.0,0.0,0.0,0.0,3.4789,3.5936,3.7617,3.8745,3.9238,3.8998,3.8756,3.8511,3.7414,3.6715,3.6456,3.5269,3.4354,3.3806,3.2555,0.0,0.0,0.0,0.0,0.0,0.0,0.0,0.0,0.0,0.0,0.0,0.0,0.0,0.0,0.0,0.0,0.0,0.0,0.0,0.6087,0.5568,0.4146,0.0,0.0,0.0,0.0,0.0,0.0,0.0,0.0,0.0,-0.9631,-0.8515,-0.8737,0.0,0.0,-1.5283,-1.6254,-1.9083,-2.164,-2.3334,-2.5336,0.0,-2.9082,-2.9821,-3.0267,-3.0418,-3.261,-3.5252,-3.7911,-3.9511,-4.0669,-4.132,-4.2129,-4.2726,-4.2902,-4.3659,-4.4141,-4.3988,-4.4622,-4.4569,-4.2821,-4.2779,-4.2791,3.7549,3.5424,3.301,3.1949,3.1962,3.2359,3.2814,3.3327,3.399,3.4021,3.347,3.2797,3.1768,3.0505,2.9956,0.0,0.0,0.0,3.1259,3.1904,3.417,3.5501,3.6094,3.7431,3.7438,3.6247,3.5207,3.4979,3.5456,3.3544,3.2787,3.3061,0.0,0.0,3.2148,3.4114,3.5373,3.5963,3.7592,3.8466,3.8507,3.8157,3.7986,3.7982,3.7468,3.7352,3.7649,3.6365,3.5437,3.5022,3.3649,3.2502,0.0,0.0,0.0,0.0,0.0,0.0,0.0,0.0,0.0,0.0,0.0,1.662,1.4355,0.0,0.0,0.0,0.8009,0.5811,0.4115,0.3872,0.0,0.0,0.0,0.0,0.0,0.0,0.0,-0.4686,-0.6266,-0.8321,-1.1015,-1.0709,-1.1243,-1.4181,-1.569,-1.6746,-1.7616,0.0,-2.2674,-2.4018,-2.5849,-2.7548,-2.8897,-2.9362,-2.9772,-3.0398,-3.2366,-3.4613,-3.7015,-3.8664,-3.9962,-4.0901,-4.1586,-4.2223,-4.3007,-4.3678,-4.4228,-4.4531,-4.5324,-4.5209,-4.3186,-4.321,-4.3072,3.9669,3.9315,3.5997,3.4491,3.4315,3.4247,3.4163,3.4121,3.4306,3.435,3.4255,3.3679,3.2961,3.2205,3.2123,0.0,3.0989,3.2583,3.3345,3.3561,3.522,3.6052,3.6132,3.7003,3.6501,3.4822,3.4752,3.4702,3.4655,3.3808,3.3793,3.4569,3.3942,3.317,3.2464,3.4614,3.5833,3.5917,3.7417,3.8228,3.8291,3.759,3.7224,3.7317,3.7292,3.7683,3.8427,3.7642,3.6791,3.5926,3.4836,3.3503,3.1892,0.0,0.0,0.0,0.0,0.0,0.0,0.0,0.0,0.0,0.0,0.0,0.0,0.0,0.0,0.0,0.6013,0.0,0.2126,0.1295,0.0,0.0,0.0,-0.1691,-0.2335,-0.2935,-0.3714,-0.4719,0.0,0.0,-1.1105,-1.3281,-1.5255,-1.707,-1.9012,-2.0168,-1.9798,-2.2714,-2.4964,-2.4685,-2.5908,-2.7068,-2.7908,-2.8141,-2.8665,-2.9935,-3.1146,-3.286,-3.5163,-3.6897,-3.8308,-3.9637,-4.0158,-4.1058,-4.278,-4.3246,-4.3559,-4.4486,-4.5299,-4.5406,-4.385,-4.3461,-4.2988,4.0471,4.0273,3.873,3.7315,3.6067,3.6017,3.5583,3.4936,3.5123,3.487,3.4303,3.4296,3.3799,3.3015,3.3041,3.2927,3.27,3.317,3.3736,3.4441,3.5499,3.6346,3.703,3.7862,3.7379,3.5718,3.5025,3.4671,3.4578,3.3735,3.3774,3.4573,3.508,3.4862,3.4066,3.4607,3.5235,3.5898,3.6301,3.652,3.6601,3.704,3.7578,3.8176,3.8054,3.8415,3.9315,3.7821,3.6901,3.6754,3.494,3.3566,3.2778,3.0564,0.0,0.0,0.0,0.0,0.0,0.0,0.0,0.0,0.0,1.539,1.308,0.0,1.0677,0.0,0.7326,0.5209,0.2981,0.2531,0.0,0.0,0.0129,-0.0579,-0.2075,-0.3471,-0.4866,-0.6155,-0.846,-1.0777,-1.2885,-1.4605,-1.6102,-1.7187,-1.8562,-1.9851,-2.0907,-2.324,-2.5226,-2.6039,-2.7088,-2.8024,-2.8069,-2.8129,-2.8461,-2.9753,-3.0516,-3.2003,-3.5128,-3.6232,-3.7418,-3.9518,-4.0614,-4.1533,-4.2802,-4.3532,-4.4275,-4.519,-4.5664,-4.5344,-4.3779,-4.3432,-4.2937,4.0769,4.068,4.0113,3.9085,3.782,3.7379,3.6891,3.6393,3.6228,3.5858,3.5417,3.4873,3.4164,3.3403,3.3757,3.3704,3.3379,3.4145,3.4593,3.478,3.5989,3.662,3.6738,3.7218,3.6755,3.5408,3.453,3.4078,3.4002,3.3926,3.3939,3.4056,3.5276,3.5472,3.4661,3.4983,3.541,3.5885,3.5885,3.5928,3.6005,3.6819,3.748,3.7903,3.819,3.841,3.8583,3.7217,3.6279,3.5921,3.4287,3.303,3.226,3.0302,2.8558,0.0,0.0,0.0,0.0,0.0,0.0,0.0,0.0,0.0,0.0,0.0,1.0245,0.8739,0.7712,0.634,0.4201,0.3236,0.2096,0.0334,-0.0532,-0.167,-0.3446,-0.4734,-0.6081,-0.7793,-0.9878,-1.1975,-1.4015,-1.5143,-1.6005,-1.6696,-1.7716,-1.9131,-2.1314,-2.378,-2.5714,-2.6383,-2.7189,-2.7547,-2.6983,-2.6945,-2.7459,-2.8798,-2.9691,-3.1399,-3.4911,-3.6232,-3.7441,-3.954,-4.0441,-4.1304,-4.2706,-4.3374,-4.4138,-4.5351,-4.5512,-4.5001,-4.4217,-4.4033,-4.3549,4.0699,4.0771,4.0668,4.0169,3.9427,3.8604,3.8059,3.7694,3.715,3.685,3.6665,3.5407,3.4423,3.3773,3.4446,3.4351,3.3755,3.5217,3.5545,3.496,3.6435,3.6737,3.6015,3.6005,3.5547,3.4688,3.3916,3.3532,3.3487,3.4221,3.4187,3.3563,3.497,3.5346,3.4668,3.5364,3.5802,3.5891,3.5928,3.5943,3.6001,3.6791,3.7164,3.7085,3.7867,3.7908,3.704,3.6163,3.531,3.4516,3.3492,3.246,3.1442,3.0243,2.891,0.0,2.6068,0.0,0.0,0.0,0.0,0.0,0.0,0.0,0.0,1.1479,0.9687,0.814,0.7899,0.714,0.5522,0.3865,0.1957,-0.0276,-0.1934,-0.3481,-0.5249,-0.6188,-0.755,-0.9492,-1.1155,-1.2915,-1.4592,-1.5068,-1.5325,-1.5583,-1.6569,-1.8142,-2.0763,-2.3712,-2.5694,-2.5913,-2.6478,-2.6493,-2.5564,-2.5458,-2.6216,-2.7822,-2.9248,-3.1249,-3.4974,-3.6601,-3.7953,-3.9562,-4.0272,-4.0996,-4.2656,-4.3108,-4.3863,-4.5344,-4.5168,-4.4838,-4.4889,-4.4657,-4.4305,4.0164,4.079,4.0713,4.0582,4.041,4.024,3.8917,3.6842,3.6826,3.6499,3.6001,3.5773,3.5596,3.5441,3.558,3.5561,3.5437,3.5817,3.5912,3.5773,3.6094,3.6168,3.6014,3.6012,3.5541,3.472,3.4523,3.4432,3.4354,3.4465,3.445,3.4361,3.4639,3.4725,3.4682,0.0,0.0,0.0,3.5948,3.5958,3.5953,3.6817,3.694,3.6269,3.6921,0.0,3.6164,3.5161,3.4565,3.442,3.3794,0.0,0.0,0.0,0.0,0.0,0.0,0.0,0.0,0.0,0.0,0.0,1.6095,1.4328,1.2986,1.1431,1.0189,0.9405,0.9034,0.8014,0.6148,0.5092,0.3053,-0.0336,-0.2,-0.3602,-0.5498,-0.7451,-0.9227,-1.0468,-1.2659,-1.4064,-1.3983,-1.4188,-1.3951,-1.339,-1.5064,-1.7084,-1.8683,-2.1927,-2.4275,-2.5055,-2.5697,-2.5782,-2.5139,-2.5285,-2.6297,-2.8176,-3.0038,-3.2331,-3.5394,-3.7293,-3.8646,-4.0042,-4.0881,-4.1414,-4.204,-4.3181,-4.424,-4.4776,-4.4824,-4.5006,-4.5658,-4.4762,-4.4148,4.0413,0.0,4.0739,4.072,0.0,4.0668,3.9648,3.7954,3.7623,3.6852,3.5801,3.5869,3.5885,3.589,3.5931,3.5923,3.5894,3.5962,3.5981,3.5949,3.5979,3.6011,3.5995,3.5561,3.5363,3.5325,3.4915,3.4669,3.4655,3.5034,3.4776,3.4035,3.4789,3.5012,3.4736,3.5117,3.5537,3.5948,3.5953,3.5914,3.5929,3.6785,3.6838,3.6015,3.6704,0.0,0.0,0.0,0.0,0.0,0.0,0.0,0.0,0.0,0.0,3.0949,2.9505,2.789,2.6044,2.3519,2.1264,1.9443,1.6799,1.4539,1.2799,1.2179,1.1587,1.0973,1.0773,0.9513,0.6675,0.5393,0.2964,-0.1289,-0.3345,-0.5154,-0.7211,-0.9205,-1.0809,-1.2032,-1.383,-1.4742,-1.3996,-1.3617,-1.3074,-1.2226,-1.3547,-1.5464,-1.7333,-2.0871,-2.3765,-2.4617,-2.4968,-2.5051,-2.467,-2.5417,-2.6722,-2.879,-3.0898,-3.3404,-3.6436,-3.7947,-3.9109,-4.0166,-4.0806,-4.1362,-4.2444,-4.3343,-4.4189,-4.5029,-4.5045,-4.5131,-4.5874,-4.511,-4.4572,4.069,4.0791,4.075,4.0718,4.0696,4.0655,4.0069,3.9122,0.0,0.0,0.0,3.5872,3.5883,3.5892,3.5951,3.5953,3.5928,3.5942,3.5962,3.5926,3.5979,3.6011,3.5957,3.5267,3.5298,3.5947,3.5265,3.4923,3.4967,3.5577,3.5118,3.3882,3.4989,3.5354,3.4795,3.5564,3.6013,3.599,3.5958,3.5909,3.5909,3.6606,3.656,3.5703,3.6384,3.601,3.4452,3.438,3.4066,3.3422,3.3224,3.3391,3.3975,3.3338,3.2565,3.1714,3.0304,2.8695,2.6974,2.4281,2.2039,2.0472,1.7675,1.507,1.2752,1.3077,1.313,1.2535,1.228,1.0715,0.7066,0.5163,0.2241,-0.2604,-0.4818,-0.6712,-0.8838,-1.0371,-1.1546,-1.2869,-1.3908,-1.4495,-1.3817,-1.3126,-1.2578,-1.2321,-1.3184,-1.4476,-1.7021,-2.0779,-2.3607,-2.4569,-2.4826,-2.4596,-2.4645,-2.5907,-2.7666,-2.9656,-3.2148,-3.4759,-3.7076,-3.8693,-3.9655,-4.0307,-4.0636,-4.1506,-4.2803,-4.3294,-4.3918,-4.5346,-4.5101,-4.4869,-4.5643,-4.5362,-4.5124,4.0248,4.0808,4.0848,4.08,4.0718,4.0761,3.9867,3.8319,3.7517,3.6649,3.5795,3.5872,3.5885,3.5899,3.5929,3.5942,3.599,3.5942,3.5933,3.5988,3.5994,3.601,3.5994,3.5859,3.5877,3.5977,3.5879,3.5828,3.5821,3.5866,3.5373,3.4583,3.4664,3.4764,3.478,3.5561,3.6007,3.6017,3.599,3.5958,3.5909,3.6079,3.5754,3.492,3.5019,3.4571,3.3546,3.3505,3.3658,3.4036,3.4562,3.513,3.5683,3.4969,3.4306,3.3547,3.1438,2.9395,2.7649,2.5611,2.2955,1.9716,1.8053,1.5999,1.3201,1.3763,1.4098,1.3493,1.2572,1.053,0.7297,0.4472,0.108,-0.3274,-0.5365,-0.7065,-0.875,-0.9602,-1.0448,-1.1435,-1.2181,-1.2708,-1.2655,-1.2456,-1.2725,-1.33,-1.4675,-1.6516,-1.951,-2.1705,-2.3358,-2.4792,-2.5075,-2.5205,-2.5693,-2.7492,-2.9251,-3.0802,-3.4196,-3.674,-3.7828,-3.9612,-4.0758,-4.066,-4.1229,-4.1912,-4.25,-4.3004,-4.3672,-4.4238,-4.413,-4.4298,-4.5143,-4.5079,-4.5233,4.0513,4.0782,4.083,4.0818,4.0768,4.0796,4.0076,3.8903,3.8558,3.7402,3.5866,3.5858,3.5914,3.5946,3.5946,3.5942,3.5939,3.5924,3.5914,3.5952,3.5951,3.5946,3.5992,3.6014,3.6015,3.601,3.6018,3.6004,3.6009,3.5966,3.5724,3.532,3.5324,3.5314,3.5382,3.5742,3.595,3.6007,3.6017,3.5966,3.589,3.5962,3.579,3.5351,3.5346,3.5155,3.4659,3.4659,3.4772,3.499,3.5147,3.5522,3.6198,3.5479,3.467,3.3904,3.2271,3.012,2.7486,2.5078,2.2611,2.0007,1.921,1.7873,1.5473,1.5186,1.4848,1.4165,1.3034,1.0882,0.7516,0.4552,0.133,-0.2525,-0.4725,-0.6453,-0.7757,-0.9035,-0.9863,-1.0438,-1.1618,-1.2235,-1.1989,-1.2747,-1.3608,-1.4684,-1.6829,-1.9395,-2.1362,-2.2131,-2.2901,-2.3814,-2.4278,-2.5018,-2.6165,-2.8176,-3.0294,-3.2385,-3.5232,-3.7468,-3.8559,-4.0114,-4.0833,-4.1318,-4.1834,-4.2548,-4.335,-4.3981,-4.4429,-4.4924,-4.4992,-4.5242,-4.5558,-4.5664,-4.5807,4.0896,4.0832,4.0829,4.0796,4.0796,4.0807,4.0311,3.9544,3.9587,3.8408,3.6548,3.6274,3.6241,3.6265,3.6087,3.5962,3.5929,3.5916,3.5919,3.5929,3.5912,3.5923,3.5987,3.6015,3.6016,3.6016,3.6005,3.6007,3.602,3.602,3.5974,3.5909,3.5885,3.5892,3.5886,3.5893,3.5937,3.5994,3.6007,3.6072,3.6192,3.6253,3.6248,3.6191,3.6001,3.587,3.5799,3.5803,3.5849,3.594,3.5806,3.6023,3.6544,3.5984,3.5132,3.4073,3.2807,3.0609,2.7412,2.4934,2.2858,2.1234,2.0706,1.9759,1.8198,1.697,1.5913,1.4894,1.3613,1.1396,0.7958,0.5029,0.1971,-0.1462,-0.3732,-0.5533,-0.685,-0.82,-0.9238,-0.9633,-1.0954,-1.1834,-1.229,-1.3467,-1.5072,-1.6951,-1.967,-2.1726,-2.2272,-2.2589,-2.2985,-2.3621,-2.4177,-2.5366,-2.6901,-2.9412,-3.1775,-3.4094,-3.6353,-3.8135,-3.94,-4.0174,-4.0979,-4.1906,-4.2549,-4.3342,-4.4571,-4.4885,-4.5121,-4.5526,-4.5573,-4.5834,-4.6131,-4.6209,-4.6231,4.0954,4.089,4.0902,4.0859,4.0812,4.0796,4.0361,3.9693,3.9663,3.9182,3.8229,3.7437,3.7126,3.7068,3.6346,3.6032,3.5987,3.5926,3.5939,3.5988,3.5934,3.5938,3.5996,3.6013,3.6016,3.6015,3.6005,3.6007,3.602,3.6007,3.5958,3.5895,3.5888,3.589,3.5886,3.5896,3.5935,3.6013,3.601,3.6378,3.7113,3.7114,3.7107,3.7089,3.6331,3.587,3.5908,3.5788,3.6106,3.6665,3.7118,3.7338,3.7279,3.7198,3.6409,3.4777,3.3014,3.0721,2.7903,2.6556,2.5252,2.4042,2.2666,2.1428,2.0274,1.9022,1.7601,1.6029,1.4314,1.1875,0.8589,0.561,0.2436,-0.1065,-0.2737,-0.435,-0.6486,-0.7012,-0.7512,-0.8924,-0.9882,-1.0848,-1.301,-1.4664,-1.6809,-1.9821,-2.1655,-2.2959,-2.3031,-2.3416,-2.4255,-2.5504,-2.6032,-2.6992,-2.9134,-3.1945,-3.3904,-3.5407,-3.7856,-3.9333,-4.0004,-4.117,-4.2618,-4.2366,-4.3451,-4.4481,-4.4802,-4.4903,-4.4992,-4.5325,-4.5389,-4.5371,-4.6039,-4.6275,-4.6222,4.0904,4.0829,4.0859,4.0826,4.08,4.0796,4.0624,4.0373,4.0439,4.0267,3.9897,3.9092,3.8203,3.7279,3.6912,3.6484,3.5995,3.5929,3.5919,3.5988,3.5934,3.5934,3.6013,3.6013,3.6015,3.6015,3.6007,3.601,3.6007,3.602,3.597,3.5899,3.589,3.5888,3.5899,3.5888,3.5937,3.6025,3.7014,3.7714,3.7956,3.7537,3.7246,3.7222,3.7347,3.7403,3.7354,3.7294,3.7395,3.759,3.7663,3.7566,3.7318,3.7028,3.6285,3.4856,3.2275,3.01,2.8512,2.7233,2.6247,2.5688,2.4745,2.3521,2.193,2.0792,1.9174,1.6687,1.4751,1.2337,0.9062,0.6222,0.3243,0.0266,-0.1539,-0.3282,-0.5282,-0.647,-0.7572,-0.886,-1.0255,-1.1862,-1.4241,-1.7053,-1.9718,-2.1956,-2.3128,-2.3551,-2.3424,-2.3906,-2.5097,-2.6729,-2.7864,-2.9327,-3.1092,-3.3115,-3.5071,-3.6648,-3.825,-3.9405,-4.0127,-4.0997,-4.2163,-4.2801,-4.4059,-4.5105,-4.5664,-4.5698,-4.5726,-4.5682,-4.572,-4.5887,-4.6245,-4.6284,-4.6245,4.1052,4.0815,4.0812,4.08,4.08,4.0796,4.0848,4.0898,4.0967,4.0979,4.0935,4.039,3.9369,3.8046,3.7526,3.6929,3.6367,3.6038,3.5926,3.5988,3.5938,3.5927,3.5999,3.601,3.6015,3.6016,3.6005,3.6108,3.6284,3.6075,3.6064,3.6196,3.6036,3.5895,3.589,3.5899,3.5933,3.6109,3.7507,3.8133,3.7908,3.7968,3.7964,3.796,3.8287,3.8455,3.8397,3.8335,3.8257,3.8143,3.8078,3.7795,3.7261,3.7199,3.6437,3.4725,3.2202,3.0233,2.9243,2.8121,2.7363,2.7095,2.6344,2.5048,2.3365,2.2021,1.9998,1.7213,1.4994,1.251,0.9298,0.642,0.3749,0.1139,-0.0875,-0.2836,-0.4688,-0.6358,-0.7856,-0.9274,-1.0967,-1.3223,-1.6064,-1.94,-2.2124,-2.3436,-2.3962,-2.4047,-2.4034,-2.4813,-2.6099,-2.7869,-2.9734,-3.1337,-3.2641,-3.4358,-3.6068,-3.7341,-3.8579,-3.9469,-4.0214,-4.1241,-4.2328,-4.3636,-4.4592,-4.5312,-4.5906,-4.6175,-4.6303,-4.6307,-4.6334,-4.6362,-4.6296,-4.6284,-4.6245,4.1563,4.0873,4.08,4.082,4.08,4.0796,4.0837,4.0888,4.0972,4.0989,4.0994,4.1015,4.0519,3.9566,3.8124,3.7296,3.7109,3.6286,3.5964,3.6049,3.5994,3.5965,3.6009,3.6021,3.6049,3.6228,3.6157,3.6501,3.7165,3.6472,3.6384,3.7082,3.643,3.5974,3.5991,3.5984,3.5937,3.611,3.6947,3.7048,3.6641,3.8512,3.9582,3.9559,3.897,3.8592,3.8494,3.8393,3.8274,3.8061,3.8642,3.8404,3.7341,3.8141,3.7389,3.4582,3.3186,3.1742,3.0179,2.9492,2.9025,2.8388,2.7146,2.5727,2.4255,2.2504,2.031,1.75,1.508,1.2305,0.9018,0.6098,0.347,0.1213,-0.1165,-0.3361,-0.5326,-0.6693,-0.8374,-1.0161,-1.1732,-1.4462,-1.8938,-2.151,-2.3124,-2.4221,-2.4778,-2.4878,-2.503,-2.6119,-2.7662,-2.9334,-3.115,-3.2902,-3.3908,-3.5352,-3.6891,-3.7954,-3.8828,-3.9733,-4.099,-4.2211,-4.3297,-4.4374,-4.5297,-4.5894,-4.6186,-4.6342,-4.6445,-4.6518,-4.6664,-4.6651,-4.6936,-4.6421,-4.6345,4.2383,4.1647,4.1621,4.1315,4.0804,4.0804,4.0815,4.0839,4.0945,4.0986,4.1007,4.1055,4.0921,4.0561,3.9468,3.835,3.7285,3.6326,3.6239,3.6755,3.6758,3.7061,3.7592,3.7105,3.7168,3.7536,3.7094,3.7282,3.8043,3.7786,3.7806,3.7995,3.7769,3.7324,3.6889,3.676,3.6497,3.6132,3.6854,3.7382,3.7652,3.9053,4.0045,4.0597,4.0301,4.0071,4.001,3.9927,3.9801,3.9601,3.9772,3.9452,3.8625,3.8173,3.6946,3.4791,3.3618,3.2252,3.0573,2.9726,2.9275,2.8904,2.7896,2.6659,2.52,2.3262,2.0952,1.8159,1.4868,1.1776,0.8868,0.5986,0.3387,0.0961,-0.1247,-0.3215,-0.4839,-0.6692,-0.8544,-1.0397,-1.3172,-1.6818,-1.9386,-2.1879,-2.3467,-2.4408,-2.4821,-2.5061,-2.5535,-2.6722,-2.851,-3.0207,-3.2221,-3.4145,-3.5521,-3.6527,-3.7596,-3.8282,-3.911,-4.0094,-4.1246,-4.2447,-4.3544,-4.4628,-4.565,-4.6216,-4.6407,-4.701,-4.7011,-4.718,-4.7305,-4.7526,-4.7923,-4.7357,-4.7092,4.2866,4.2156,4.209,4.1598,4.0843,4.08,4.0792,4.0809,4.0918,4.0968,4.1003,4.1074,4.1114,4.0957,4.0274,3.9309,3.8086,3.7205,3.712,3.7695,3.7669,3.7973,3.8416,3.7988,3.8025,3.845,3.8031,3.8141,3.8843,3.8726,3.8746,3.8961,3.8694,3.8128,3.7458,3.7521,3.7255,3.6714,3.7285,3.7987,3.8561,3.9359,4.007,4.0608,4.0877,4.0945,4.0897,4.0828,4.0681,4.0462,4.0317,3.9984,3.9245,3.8118,3.6738,3.5166,3.399,3.2655,3.1082,3.0048,2.9428,2.9136,2.8415,2.7345,2.5814,2.3747,2.1192,1.8148,1.4877,1.1549,0.8533,0.5756,0.3111,0.0481,-0.1664,-0.3354,-0.4652,-0.6894,-0.9075,-1.1407,-1.4795,-1.7883,-1.9913,-2.175,-2.3306,-2.4394,-2.4859,-2.5195,-2.5994,-2.7594,-2.9416,-3.1134,-3.3337,-3.5049,-3.6295,-3.7195,-3.7925,-3.8633,-3.9556,-4.0522,-4.1648,-4.2787,-4.3821,-4.488,-4.5644,-4.6201,-4.6803,-4.748,-4.7829,-4.8018,-4.8141,-4.8298,-4.8387,-4.8279,-4.7911,4.2969,4.2303,4.2133,4.1803,4.1091,4.104,4.0909,4.1022,4.0991,4.1135,4.1343,4.1151,4.1164,4.1023,4.0416,3.9877,3.959,3.9001,3.8643,3.8615,3.8604,3.865,3.8809,3.8689,3.8604,3.8751,3.8671,3.9078,3.9741,3.9214,3.9195,3.9566,3.9136,3.8492,3.7399,3.819,3.8137,3.7571,3.8021,3.8487,3.8615,3.9364,3.9872,4.0017,4.0583,4.0897,4.0897,4.0781,4.0563,4.0351,4.025,3.9819,3.9061,3.805,3.6986,3.5768,3.4393,3.3002,3.1682,3.0549,2.9665,2.9227,2.8606,2.7379,2.5632,2.3724,2.1209,1.7919,1.4812,1.1681,0.8317,0.5287,0.2607,-0.0,-0.2207,-0.3941,-0.5261,-0.7382,-1.0013,-1.2796,-1.5734,-1.8155,-1.9753,-2.1344,-2.2845,-2.4171,-2.4811,-2.5517,-2.6876,-2.8664,-3.0608,-3.2433,-3.4318,-3.5985,-3.6907,-3.7703,-3.8291,-3.8987,-4.0008,-4.1043,-4.2353,-4.3528,-4.4341,-4.5345,-4.6105,-4.6689,-4.7612,-4.8242,-4.8705,-4.8912,-4.8993,-4.9172,-4.9235,-4.9145,-4.8445,4.4596,4.386,4.3814,4.331,4.2562,4.2518,4.2555,4.2516,4.2042,4.2179,4.2512,4.1654,4.146,4.1721,4.1114,4.0716,4.0721,4.0967,4.0591,3.9639,3.9467,3.9765,4.0116,3.9702,3.9442,3.9549,4.0054,4.0424,4.0581,4.0405,4.0483,4.0581,4.0424,3.9858,3.9,3.9256,3.8771,3.7561,3.8166,3.8553,3.8583,3.9345,4.0037,4.0532,4.0796,4.0849,4.0764,4.0675,4.0511,4.0304,4.0233,3.984,3.9016,3.8127,3.7129,3.6021,3.4476,3.3162,3.2068,3.0549,2.9483,2.9028,2.8207,2.7041,2.5551,2.3468,2.1092,1.828,1.5097,1.1647,0.8664,0.5418,0.2505,0.0141,-0.2177,-0.4062,-0.5451,-0.7889,-1.049,-1.2837,-1.5394,-1.7399,-1.894,-2.058,-2.2311,-2.3654,-2.4424,-2.5643,-2.7628,-2.9627,-3.1404,-3.3409,-3.5171,-3.669,-3.7518,-3.8395,-3.9221,-3.9834,-4.0739,-4.169,-4.2962,-4.4036,-4.4882,-4.5825,-4.6583,-4.7416,-4.8336,-4.9023,-4.9528,-4.9907,-5.0113,-5.0269,-5.0394,-5.0004,-4.9341,4.5389,4.4615,4.4596,4.4099,4.3331,4.3318,4.3349,4.3333,4.2906,4.3043,4.3239,4.2218,4.2108,4.257,4.1973,4.1789,4.209,4.2652,4.2301,4.1384,4.1247,4.1406,4.1556,4.1064,4.055,4.0388,4.0834,4.1108,4.1108,4.1108,4.1108,4.1108,4.1108,4.0639,3.9937,4.0093,3.9468,3.8141,3.8629,3.9032,3.9115,3.9496,4.0143,4.0766,4.084,4.0781,4.07,4.0598,4.0441,4.0252,4.0021,3.9529,3.8896,3.8182,3.7433,3.6394,3.4913,3.3534,3.2546,3.0843,2.9438,2.8919,2.8061,2.6792,2.5159,2.2955,2.0722,1.8164,1.4603,1.1228,0.8444,0.5249,0.2274,-0.0217,-0.2314,-0.4365,-0.6341,-0.8969,-1.1374,-1.3539,-1.5603,-1.7229,-1.876,-2.0195,-2.1913,-2.3132,-2.4741,-2.6467,-2.8777,-3.1021,-3.2917,-3.4672,-3.6207,-3.7404,-3.8115,-3.9082,-4.0129,-4.0822,-4.1562,-4.2469,-4.3539,-4.4384,-4.523,-4.6569,-4.7509,-4.8476,-4.9371,-5.0012,-5.0565,-5.0877,-5.0981,-5.0988,-5.0933,-5.0842,-5.0264,4.5467,4.4731,4.4673,4.4279,4.3614,4.3595,4.3679,4.3635,4.3548,4.3712,4.366,4.2921,4.2949,4.3437,4.2864,4.2825,4.357,4.3709,4.3612,4.3496,4.3535,4.3358,4.2529,4.2207,4.1735,4.127,4.113,4.1111,4.1108,4.1108,4.1108,4.1108,4.1069,4.0737,4.0187,4.0678,4.0109,3.8951,3.9384,3.9685,3.9702,3.9812,4.0132,4.0829,4.0773,4.07,4.066,4.0476,4.0307,4.012,3.9651,3.9154,3.8722,3.8319,3.7805,3.7069,3.539,3.4093,3.2934,3.1229,2.9722,2.881,2.8,2.6813,2.4476,2.2298,1.9946,1.7259,1.376,1.0565,0.7924,0.4804,0.1732,-0.1072,-0.3103,-0.5432,-0.8463,-1.0425,-1.2296,-1.4316,-1.6121,-1.7595,-1.8828,-2.0172,-2.1637,-2.3355,-2.552,-2.7652,-2.9952,-3.2144,-3.4644,-3.6186,-3.7283,-3.83,-3.9118,-3.9942,-4.0977,-4.1908,-4.2535,-4.3254,-4.4192,-4.5015,-4.6166,-4.7474,-4.8437,-4.9425,-5.0118,-5.0621,-5.1006,-5.117,-5.1269,-5.1379,-5.1324,-5.1167,-5.0829,4.6332,4.5524,4.5551,4.5396,4.5162,4.5142,4.5221,4.5267,4.4705,4.4864,4.5117,4.4,4.3828,4.4492,4.3767,4.3496,4.3882,4.4433,4.4257,4.3981,4.511,4.4677,4.3459,4.2711,4.2324,4.2021,4.1533,4.1119,4.1111,4.1169,4.115,4.1108,4.1108,4.1,4.073,4.0395,3.993,3.9493,3.9569,3.9714,3.9765,4.0235,4.0577,4.0696,4.072,4.066,4.0534,4.0267,4.0041,3.9873,3.9452,3.9027,3.87,3.8328,3.7808,3.6982,3.5492,3.409,3.3109,3.1397,2.983,2.8686,2.7724,2.6107,2.3822,2.1765,1.9284,1.6511,1.3575,1.0713,0.7716,0.4454,0.0933,-0.308,-0.504,-0.6828,-0.8843,-1.0715,-1.2621,-1.4693,-1.6085,-1.7341,-1.8469,-1.9814,-2.1348,-2.3207,-2.5602,-2.8102,-3.0573,-3.2854,-3.5188,-3.6835,-3.8068,-3.9173,-4.012,-4.0911,-4.1829,-4.2888,-4.354,-4.4053,-4.5035,-4.5967,-4.7414,-4.8904,-4.9313,-5.0119,-5.0405,-5.0754,-5.1057,-5.1252,-5.0916,-5.0741,-5.1201,-5.1265,-5.0894,4.6499,4.6303,4.6002,4.5847,4.58,4.5858,4.599,4.6005,4.5636,4.569,4.5902,4.488,4.4726,4.5407,4.4645,4.4488,4.488,4.5702,4.5585,4.5074,4.5824,4.5444,4.439,4.3671,4.331,4.2927,4.2441,4.2047,4.175,4.165,4.1643,4.1579,4.1264,4.1257,4.1554,4.0773,4.011,3.9881,4.0006,4.0091,3.9743,4.0383,4.0684,4.0688,4.0654,4.0534,4.0356,4.0081,3.9838,3.9651,3.9331,3.898,3.8597,3.8322,3.7737,3.6821,3.5603,3.4445,3.3005,3.1541,3.0206,2.8858,2.756,2.5675,2.3467,2.1282,1.888,1.6229,1.3119,1.0008,0.6908,0.2928,-0.1053,-0.4384,-0.6951,-0.8701,-0.9848,-1.2022,-1.386,-1.5458,-1.6571,-1.7494,-1.8512,-1.9899,-2.1575,-2.3567,-2.6179,-2.868,-3.111,-3.3385,-3.5537,-3.7349,-3.8975,-4.0113,-4.135,-4.224,-4.2862,-4.3861,-4.4336,-4.4863,-4.5909,-4.6924,-4.8147,-4.9429,-5.0053,-5.0552,-5.0752,-5.084,-5.0801,-5.0757,-5.0317,-5.031,-5.0781,-5.1245,-5.0861,4.6554,4.7042,4.6341,4.5969,4.5886,4.6027,4.6157,4.6122,4.6087,4.6183,4.6105,4.5468,4.5541,4.6225,4.5469,4.5603,4.6406,4.6989,4.6908,4.6512,4.644,4.6,4.5203,4.4809,4.4371,4.3867,4.3769,4.3183,4.2676,4.2537,4.2534,4.2349,4.1719,4.167,4.1855,4.1335,4.0598,4.0174,4.0343,4.0356,4.0041,4.0427,4.0681,4.0654,4.0583,4.0457,4.025,3.9983,3.9731,3.9529,3.9294,3.8923,3.8478,3.828,3.7595,3.6575,3.5887,3.4766,3.2904,3.1967,3.0761,2.9077,2.75,2.5671,2.3215,2.0922,1.8541,1.5895,1.2137,0.8821,0.502,0.0071,-0.3451,-0.5933,-0.8678,-1.0528,-1.1751,-1.3723,-1.5645,-1.6541,-1.7408,-1.8282,-1.9377,-2.0733,-2.2451,-2.4398,-2.6952,-2.9552,-3.1982,-3.4317,-3.6348,-3.8257,-3.9747,-4.1136,-4.2395,-4.3604,-4.4171,-4.4836,-4.5093,-4.5671,-4.6839,-4.7862,-4.8832,-4.9748,-5.0471,-5.0888,-5.1062,-5.1008,-5.075,-5.0602,-5.0391,-5.0315,-5.0385,-5.0839,-5.08,4.8169,4.7139,4.7618,4.7107,4.6174,4.6648,4.6659,4.6227,4.6208,4.6247,4.6223,4.6067,4.6114,4.6303,4.6152,4.6484,4.7198,4.7493,4.7371,4.7318,4.7292,4.6811,4.5996,4.5411,4.4937,4.4609,4.4004,4.3613,4.3457,4.3417,4.3417,4.324,4.2441,4.2128,4.2144,4.1047,4.0351,4.05,4.0298,4.0291,4.0469,4.0563,4.0654,4.0569,4.0562,4.0511,4.0372,4.0043,3.9775,3.9595,3.9261,3.8902,3.8541,3.8303,3.7718,3.693,3.6171,3.5174,3.3786,3.2347,3.0823,2.9107,2.7373,2.5232,2.2824,2.07,1.8141,1.5299,1.1999,0.787,0.2419,-0.1328,-0.4685,-0.7525,-1.0232,-1.2401,-1.3624,-1.4655,-1.5757,-1.6652,-1.7548,-1.8465,-1.9412,-2.1307,-2.3212,-2.5278,-2.7824,-3.0495,-3.2861,-3.5191,-3.7189,-3.9082,-4.0528,-4.1879,-4.3189,-4.4237,-4.4772,-4.5244,-4.5526,-4.6129,-4.734,-4.8347,-4.9124,-5.0031,-5.0948,-5.121,-5.1256,-5.0872,-5.055,-5.0524,-5.0491,-5.0445,-5.0484,-5.0747,-5.0951,4.859,4.7762,4.8251,4.7965,4.7249,4.7268,4.712,4.6756,4.6368,4.6269,4.6287,4.6287,4.63,4.6342,4.6734,4.7204,4.7584,4.7996,4.8359,4.843,4.8045,4.7322,4.6854,4.6092,4.5605,4.5527,4.5195,4.4766,4.4414,4.4258,4.4082,4.3605,4.2795,4.2623,4.2627,4.1256,4.0998,4.1311,4.0753,4.0496,4.0699,4.07,4.0626,4.0639,4.0768,4.0835,4.0289,3.9901,3.9698,3.9526,3.9237,3.8921,3.8634,3.8314,3.7751,3.6898,3.6513,3.5255,3.3862,3.2907,3.1656,2.948,2.7783,2.5914,2.3703,2.1413,1.8632,1.5573,1.2002,0.7568,0.0639,-0.2993,-0.5949,-0.8727,-1.1411,-1.3401,-1.4775,-1.573,-1.6287,-1.6952,-1.7678,-1.8713,-2.0031,-2.1947,-2.4136,-2.6321,-2.9209,-3.1787,-3.3595,-3.5876,-3.7936,-3.9804,-4.1245,-4.2625,-4.3905,-4.4773,-4.5169,-4.549,-4.5654,-4.6402,-4.7398,-4.8331,-4.9195,-5.017,-5.1122,-5.1253,-5.1238,-5.081,-5.0498,-5.0342,-5.0348,-5.0458,-5.0533,-5.0535,-5.0861,4.8778,4.8616,4.8808,4.875,4.844,4.7863,4.7583,4.7358,4.6635,4.6307,4.6306,4.63,4.6397,4.6658,4.7217,4.7651,4.8231,4.8886,4.9634,4.9601,4.8703,4.8107,4.7666,4.699,4.6504,4.6504,4.6172,4.5742,4.5312,4.5152,4.4887,4.4016,4.3021,4.3107,4.3256,4.2231,4.171,4.2339,4.1896,4.1474,4.1401,4.1318,4.1247,4.1254,4.1468,4.1303,4.0673,4.0268,3.9983,3.9612,3.9415,3.9202,3.8891,3.8346,3.7713,3.6684,3.6675,3.5607,3.4024,3.3156,3.2144,2.9947,2.8257,2.6699,2.4621,2.2131,1.9213,1.5469,1.1501,0.6092,-0.0143,-0.3946,-0.7026,-0.9835,-1.229,-1.4221,-1.5664,-1.6792,-1.7119,-1.7324,-1.808,-1.9141,-2.0799,-2.2711,-2.4988,-2.7468,-3.0353,-3.2872,-3.4671,-3.662,-3.8777,-4.056,-4.2041,-4.3315,-4.4592,-4.5063,-4.5488,-4.5654,-4.5802,-4.6491,-4.7315,-4.7918,-4.8805,-5.0263,-5.1074,-5.1193,-5.1323,-5.1174,-5.0842,-5.0401,-5.0426,-5.0756,-5.0645,-5.0343,-5.0785,5.0153,4.954,5.0279,4.9833,4.8669,4.8506,4.81,4.7494,4.6679,4.6306,4.6339,4.6319,4.6768,4.7279,4.7467,4.8309,4.9394,5.0239,5.0542,5.0265,4.9591,4.9247,4.8584,4.767,4.731,4.7168,4.6699,4.6133,4.6001,4.5988,4.5649,4.5338,4.4098,4.3818,4.3896,4.3098,4.2559,4.3295,4.3058,4.2821,4.2654,4.2679,4.2555,4.2431,4.2506,4.2087,4.1589,4.1499,4.1343,4.0654,4.0307,4.0057,3.962,3.8769,3.7966,3.7399,3.679,3.5805,3.4514,3.302,3.17,2.9892,2.7921,2.6058,2.4343,2.2208,1.9182,1.4447,0.8903,0.287,-0.1534,-0.4938,-0.8313,-1.1243,-1.3588,-1.5576,-1.6914,-1.7633,-1.7954,-1.8146,-1.8824,-1.9693,-2.1394,-2.3456,-2.5908,-2.8318,-3.1039,-3.3544,-3.5571,-3.7586,-3.9751,-4.1368,-4.2824,-4.4039,-4.5244,-4.5435,-4.5669,-4.5769,-4.598,-4.6367,-4.7038,-4.7411,-4.836,-4.9536,-5.0589,-5.107,-5.1199,-5.1288,-5.1132,-5.0659,-5.0859,-5.1113,-5.0981,-5.0825,-5.0962,5.0511,4.9819,5.0676,5.0397,4.9376,4.8861,4.8269,4.7535,4.671,4.6554,4.6866,4.7022,4.7432,4.8037,4.8216,4.8954,5.0059,5.0996,5.1104,5.0733,5.0321,4.9977,4.9348,4.8275,4.7689,4.7305,4.6699,4.6229,4.6202,4.6191,4.5985,4.5356,4.4537,4.4452,4.446,4.363,4.3532,4.4027,4.389,4.3541,4.3404,4.3608,4.357,4.3134,4.3158,4.2827,4.2142,4.1901,4.175,4.1305,4.0987,4.0732,4.018,3.9325,3.8223,3.7592,3.6829,3.5932,3.4808,3.3224,3.1671,3.0253,2.8083,2.6331,2.4741,2.2582,1.8744,1.2963,0.7025,0.1093,-0.2452,-0.5724,-0.9078,-1.229,-1.4486,-1.6249,-1.7698,-1.8224,-1.8655,-1.8966,-1.9553,-2.0481,-2.176,-2.4026,-2.6646,-2.927,-3.1844,-3.4168,-3.6446,-3.8576,-4.0723,-4.231,-4.3686,-4.4513,-4.5456,-4.5626,-4.5789,-4.5879,-4.6047,-4.6438,-4.6736,-4.7117,-4.7571,-4.8371,-4.9391,-5.0581,-5.0879,-5.0889,-5.0889,-5.0952,-5.1084,-5.1216,-5.1313,-5.1391,-5.1416,5.0641,5.0008,5.0593,5.0507,4.9862,4.8864,4.8244,4.7734,4.6979,4.7084,4.7783,4.7881,4.8291,4.8951,4.9332,4.9772,5.0405,5.1171,5.1327,5.1152,5.0484,5.0116,4.97,4.8623,4.7567,4.7386,4.663,4.621,4.618,4.6173,4.5714,4.5326,4.5055,4.4986,4.4841,4.4245,4.4445,4.4589,4.4464,4.3966,4.3962,4.4234,4.4208,4.3427,4.38,4.3608,4.2683,4.2581,4.2277,4.1935,4.1613,4.1328,4.093,3.9806,3.8594,3.7595,3.6724,3.5766,3.4402,3.2869,3.1104,2.9501,2.8155,2.6555,2.4159,2.108,1.7011,1.0767,0.4765,-0.015,-0.3565,-0.6622,-0.9862,-1.2817,-1.4965,-1.6472,-1.8006,-1.8861,-1.9331,-1.9755,-2.0205,-2.1244,-2.2648,-2.4808,-2.7482,-3.0061,-3.2625,-3.5307,-3.7556,-3.9607,-4.1611,-4.3265,-4.4484,-4.5074,-4.5599,-4.5723,-4.5841,-4.5936,-4.6063,-4.63,-4.6543,-4.68,-4.7327,-4.7888,-4.8806,-4.9859,-5.0176,-5.0566,-5.0761,-5.0937,-5.1128,-5.1284,-5.1362,-5.1464,-5.1542,5.0903,5.0712,5.0177,4.9918,4.9707,4.8388,4.8123,4.8538,4.7721,4.7913,4.8447,4.8642,4.9072,4.9848,5.0659,5.1045,5.1186,5.1288,5.1394,5.1273,5.0624,5.0234,4.9954,4.8414,4.7723,4.7427,4.6678,4.6238,4.6216,4.6199,4.6044,4.5703,4.5218,4.5093,4.558,4.4948,4.4985,4.5647,4.5645,4.5479,4.5341,4.5324,4.513,4.4977,4.481,4.4364,4.3385,4.3296,4.3178,4.239,4.2258,4.2001,4.1433,4.0262,3.9027,3.7825,3.656,3.5099,3.3402,3.1731,3.0068,2.8495,2.6986,2.537,2.2523,1.765,1.2743,0.8777,0.2874,-0.164,-0.4912,-0.8103,-1.1106,-1.3522,-1.5586,-1.714,-1.8601,-1.9081,-1.9584,-2.0781,-2.1399,-2.2413,-2.3604,-2.5965,-2.8296,-3.0848,-3.3436,-3.6197,-3.876,-4.0896,-4.2806,-4.4529,-4.5016,-4.551,-4.5873,-4.5969,-4.591,-4.6008,-4.6266,-4.6396,-4.6726,-4.7051,-4.7185,-4.7826,-4.8704,-4.9228,-4.9458,-4.9926,-5.0512,-5.0844,-5.1,-5.1195,-5.1375,-5.1511,-5.1769,5.053,5.0887,5.0123,4.9848,4.9878,4.9178,4.8597,4.815,4.779,4.7771,4.8174,4.8642,4.9278,5.0167,5.1021,5.1079,5.0884,5.1191,5.1394,5.1375,5.0953,5.0582,4.9993,4.8922,4.8123,4.7435,4.7096,4.6884,4.6659,4.6263,4.6022,4.5972,4.5631,4.5541,4.5972,4.5561,4.5576,4.5776,4.5796,4.5769,4.5699,4.5543,4.5342,4.5182,4.5038,4.4354,4.3691,4.3287,4.2909,4.2087,4.1904,4.147,4.0679,3.9709,3.8723,3.7335,3.5943,3.4515,3.3064,3.1092,2.9295,2.7753,2.6153,2.4285,2.0521,1.4979,0.9566,0.6122,0.0728,-0.3467,-0.6363,-0.9245,-1.1757,-1.4002,-1.5811,-1.7282,-1.855,-1.9107,-1.9813,-2.1212,-2.2682,-2.3935,-2.5407,-2.7691,-2.995,-3.199,-3.4775,-3.7662,-4.023,-4.2592,-4.4374,-4.6059,-4.6001,-4.5791,-4.609,-4.6261,-4.6014,-4.6171,-4.6858,-4.7018,-4.723,-4.7469,-4.7703,-4.8226,-4.9179,-4.9371,-4.9091,-4.9813,-5.0867,-5.0906,-5.0809,-5.1121,-5.1453,-5.2062,-5.2261,4.99,5.0592,4.9833,4.969,4.9955,4.9802,4.9179,4.8314,4.8017,4.8174,4.8623,4.9247,4.9801,5.0196,5.0923,5.1099,5.0561,5.1132,5.1336,5.1375,5.1102,5.0539,4.9786,4.8938,4.8269,4.7501,4.7675,4.7417,4.703,4.6693,4.6395,4.6278,4.5963,4.5893,4.5887,4.5815,4.5808,4.5688,4.5677,4.5658,4.5591,4.54,4.5222,4.4973,4.4597,4.4051,4.3277,4.2385,4.1662,4.1717,4.1179,4.0735,4.0202,3.9308,3.8295,3.6888,3.5388,3.3795,3.2332,3.0598,2.8758,2.6877,2.4486,2.1531,1.773,1.233,0.7145,0.3102,-0.1509,-0.5199,-0.7863,-1.0529,-1.2557,-1.4244,-1.5756,-1.7144,-1.8443,-1.9304,-2.0495,-2.2148,-2.393,-2.6098,-2.767,-2.9775,-3.1708,-3.343,-3.6082,-3.9139,-4.1698,-4.4138,-4.5399,-4.683,-4.668,-4.6225,-4.6164,-4.6302,-4.6134,-4.6493,-4.7196,-4.7698,-4.7944,-4.8199,-4.8451,-4.9094,-4.9732,-4.9706,-4.9528,-5.0403,-5.1183,-5.0852,-5.0699,-5.1144,-5.1613,-5.2319,-5.2889,4.8991,4.9726,4.9015,4.9229,4.9917,4.9236,4.9387,4.9618,4.9013,4.956,5.0535,5.0984,5.0425,5.0513,5.0967,5.1338,5.1258,5.1367,5.139,5.1121,5.0614,4.9989,4.9347,4.8847,4.8351,4.7691,4.8063,4.7998,4.7442,4.7281,4.7107,4.7029,4.6209,4.597,4.5866,4.5795,4.5696,4.5582,4.5528,4.5476,4.5381,4.5237,4.5109,4.4744,4.3975,4.3189,4.2922,4.156,4.0785,4.119,4.0472,3.9943,3.9523,3.8668,3.7581,3.6409,3.4709,3.3094,3.1536,2.9833,2.7787,2.5007,2.1705,1.8193,1.4668,0.9104,0.4023,-0.0324,-0.448,-0.7314,-0.9719,-1.1819,-1.3425,-1.4538,-1.5799,-1.7154,-1.8549,-1.9836,-2.1134,-2.3034,-2.5139,-2.7397,-3.009,-3.2162,-3.3618,-3.5232,-3.799,-4.1077,-4.3256,-4.5417,-4.6163,-4.7035,-4.7055,-4.6733,-4.6277,-4.6376,-4.6816,-4.7306,-4.7927,-4.8393,-4.8749,-4.9004,-4.9453,-4.9564,-5.0068,-5.0025,-5.0119,-5.08,-5.1112,-5.0647,-5.0663,-5.134,-5.2108,-5.2897,-5.3464,4.8943,4.9679,4.9543,4.9936,5.0692,5.0508,5.0298,5.0067,4.9755,4.9891,5.0575,5.0087,5.0235,5.0796,5.1132,5.1386,5.1391,5.1386,5.1394,5.1336,5.0926,5.0083,4.9474,4.9035,4.8798,4.7998,4.854,4.8817,4.8042,4.7951,4.7468,4.7008,4.624,4.5892,4.5731,4.5671,4.553,4.5473,4.5438,4.5399,4.53,4.5023,4.4862,4.4738,4.3595,4.267,4.1935,4.0658,3.9991,3.9567,3.9187,3.8832,3.8496,3.7624,3.6814,3.5723,3.3958,3.246,3.0803,2.8994,2.6649,2.3389,1.9489,1.5365,1.1612,0.6072,0.0999,-0.3296,-0.6834,-0.9441,-1.0942,-1.2517,-1.3853,-1.4796,-1.5876,-1.7115,-1.8654,-2.0127,-2.2208,-2.4304,-2.6581,-2.8944,-3.1774,-3.4621,-3.5831,-3.7175,-4.0059,-4.2765,-4.486,-4.6349,-4.7022,-4.7559,-4.7648,-4.7756,-4.7337,-4.7501,-4.7716,-4.8189,-4.8703,-4.9139,-4.9609,-5.0312,-5.0664,-5.0605,-5.05,-5.0632,-5.0864,-5.1154,-5.1174,-5.0917,-5.1206,-5.1808,-5.2599,-5.3451,-5.4077,4.8604,4.9354,4.9829,5.0465,5.1171,5.1347,5.1062,5.052,5.0184,4.993,4.9755,4.956,5.0005,5.0898,5.1312,5.139,5.1401,5.139,5.1394,5.1258,5.0906,5.0269,4.9756,4.9449,4.9343,4.8548,4.9174,4.965,4.8808,4.8793,4.8052,4.7159,4.6397,4.6053,4.5635,4.555,4.5419,4.5362,4.5362,4.5277,4.5194,4.4905,4.4643,4.4357,4.3174,4.2407,4.1434,4.029,3.9234,3.8798,3.8262,3.7481,3.6997,3.6437,3.5761,3.4584,3.3242,3.1899,3.0258,2.7816,2.5017,2.1587,1.7288,1.2779,0.812,0.3084,-0.194,-0.5739,-0.88,-1.0852,-1.1804,-1.2965,-1.388,-1.4727,-1.5658,-1.6918,-1.9021,-2.0761,-2.3219,-2.5607,-2.8075,-3.0606,-3.4129,-3.707,-3.9174,-4.02,-4.1816,-4.4237,-4.6129,-4.726,-4.7592,-4.8072,-4.8399,-4.8533,-4.862,-4.8504,-4.847,-4.9065,-4.9548,-4.9999,-5.0547,-5.1172,-5.1387,-5.1113,-5.1088,-5.1338,-5.1411,-5.1408,-5.1405,-5.1343,-5.1847,-5.2472,-5.3168,-5.4017,-5.4822,4.7798,4.8606,4.9614,5.0503,5.1201,5.134,5.1355,5.1121,5.0418,4.9794,4.9501,5.0457,5.0711,5.0633,5.116,5.1371,5.1386,5.139,5.1394,5.1258,5.0692,5.0176,4.9893,4.9731,4.939,4.9885,5.0114,5.0022,4.9301,4.9184,4.8346,4.7227,4.641,4.6126,4.5624,4.5586,4.5457,4.5262,4.5282,4.5109,4.4943,4.4726,4.4503,4.3961,4.2597,4.1767,4.1379,3.9549,3.8633,3.8756,3.7466,3.6849,3.6835,3.591,3.5031,3.3931,3.2546,3.1139,2.9667,2.6337,2.2911,1.9383,1.5024,1.0252,0.5289,0.0166,-0.4331,-0.7789,-1.009,-1.142,-1.2301,-1.313,-1.384,-1.465,-1.5499,-1.6934,-1.903,-2.1322,-2.3748,-2.6669,-2.9497,-3.2414,-3.6181,-3.9564,-4.2149,-4.3656,-4.435,-4.5715,-4.7349,-4.7932,-4.8138,-4.8487,-4.8874,-4.9159,-4.9211,-4.9126,-4.9255,-4.9861,-5.0312,-5.0683,-5.0937,-5.125,-5.1387,-5.1404,-5.1615,-5.1804,-5.1662,-5.1499,-5.1854,-5.2306,-5.2651,-5.3217,-5.3896,-5.4606,-5.5449,4.8296,4.8708,5.0224,5.1058,5.1328,5.1389,5.1394,5.1238,5.0555,5.0243,5.0477,5.0711,5.0828,5.0965,5.116,5.139,5.139,5.139,5.1394,5.1277,5.0457,4.9728,4.9418,4.9274,4.8891,4.8658,4.9179,4.9403,4.7869,4.8604,4.7739,4.6482,4.6071,4.5648,4.5397,4.5339,4.5258,4.5194,4.5087,4.4948,4.4827,4.4503,4.4136,4.3862,4.2137,4.1273,4.1204,3.8938,3.8168,3.8309,3.6917,3.6388,3.6287,3.5434,3.4783,3.3892,3.2723,3.0293,2.7257,2.3629,2.0308,1.6633,1.257,0.7573,0.2413,-0.2275,-0.6153,-0.9026,-1.1079,-1.221,-1.2699,-1.3171,-1.3815,-1.4566,-1.556,-1.7188,-1.9119,-2.1549,-2.4106,-2.7459,-3.0477,-3.512,-3.9177,-4.1747,-4.4288,-4.5749,-4.6335,-4.6717,-4.8037,-4.8296,-4.8506,-4.8844,-4.9211,-4.9591,-4.982,-5.0033,-5.0155,-5.0565,-5.0898,-5.1113,-5.1328,-5.1445,-5.1521,-5.1597,-5.1943,-5.2267,-5.2501,-5.2755,-5.3031,-5.3405,-5.3971,-5.4167,-5.4544,-5.5292,-5.6113,4.7905,4.8316,4.9461,5.0373,5.0931,5.1265,5.1394,5.1297,5.0809,5.0887,5.118,5.0773,5.0832,5.1277,5.1394,5.1394,5.1394,5.1394,5.1398,5.1222,5.0168,4.9859,4.9566,4.8952,4.8816,4.8393,4.8773,4.8977,4.7869,4.8168,4.7513,4.6396,4.5533,4.5394,4.5254,4.5235,4.5254,4.517,4.5061,4.4876,4.4587,4.4121,4.3546,4.2788,4.1629,4.0448,3.9914,3.8814,3.7474,3.7334,3.6911,3.6078,3.5761,3.534,3.4546,3.3512,3.1248,2.8528,2.4957,2.0815,1.7197,1.3036,0.9418,0.5011,-0.0,-0.4518,-0.7224,-0.9776,-1.1898,-1.2476,-1.2635,-1.3034,-1.3736,-1.4501,-1.5567,-1.7204,-1.9217,-2.1579,-2.4543,-2.7959,-3.1755,-3.6719,-4.163,-4.3993,-4.6318,-4.7331,-4.8224,-4.8488,-4.8681,-4.889,-4.9196,-4.9632,-5.0048,-5.0555,-5.0984,-5.1287,-5.1367,-5.1386,-5.1406,-5.1406,-5.1601,-5.1697,-5.1734,-5.1965,-5.2644,-5.3266,-5.3793,-5.4144,-5.4583,-5.5094,-5.5662,-5.5681,-5.5427,-5.5859,-5.6559,4.6616,4.7377,4.7515,4.8677,5.0168,5.1109,5.1394,5.1394,5.1375,5.1375,5.1375,5.133,5.1327,5.1355,5.1394,5.1394,5.1394,5.1394,5.1402,5.0914,4.9829,5.0075,4.989,4.9186,4.8524,4.9071,4.9276,4.8551,4.8198,4.7742,4.7142,4.6513,4.5609,4.5354,4.5235,4.5235,4.5254,4.5192,4.5033,4.4713,4.4271,4.354,4.2848,4.1912,4.0628,3.9895,3.9227,3.822,3.7778,3.756,3.7404,3.6444,3.5828,3.5511,3.3806,3.1696,2.9007,2.6376,2.3113,1.91,1.4099,0.9922,0.5781,0.1944,-0.1892,-0.609,-0.8348,-1.0081,-1.1775,-1.2026,-1.229,-1.3021,-1.3671,-1.459,-1.5467,-1.7245,-1.9282,-2.1896,-2.4926,-2.84,-3.2225,-3.7001,-4.2441,-4.5584,-4.7462,-4.8531,-4.9277,-4.9581,-4.9755,-4.9815,-5.0194,-5.0777,-5.1206,-5.1684,-5.1969,-5.1816,-5.1679,-5.1404,-5.1426,-5.1465,-5.168,-5.2066,-5.2355,-5.28,-5.3598,-5.4342,-5.5208,-5.5817,-5.6308,-5.6738,-5.6738,-5.6386,-5.5878,-5.611,-5.661,4.7473,4.8301,4.8346,4.9404,5.0939,5.1294,5.1389,5.1394,5.1394,5.1394,5.1394,5.1389,5.1385,5.1394,5.1394,5.1394,5.1394,5.1394,5.1394,5.0746,4.9689,4.9795,4.9289,4.8418,4.7736,4.7791,4.7901,4.7627,4.6658,4.6427,4.6301,4.5669,4.5492,4.5297,4.5256,4.5297,4.5237,4.5074,4.4853,4.4405,4.3759,4.3006,4.2137,4.093,3.9839,3.9193,3.8513,3.7895,3.7499,3.7175,3.7076,3.6403,3.5849,3.5112,3.366,3.1294,2.885,2.6215,2.2411,1.9203,1.4295,0.7221,0.2643,-0.1364,-0.4642,-0.6963,-0.9051,-1.0268,-1.1461,-1.1989,-1.2344,-1.301,-1.3705,-1.4631,-1.5738,-1.7598,-1.9706,-2.2213,-2.5437,-2.9984,-3.3767,-3.8784,-4.4068,-4.6471,-4.8213,-4.9436,-5.0219,-5.048,-5.0647,-5.0636,-5.0764,-5.1318,-5.1701,-5.1969,-5.1738,-5.1559,-5.1476,-5.1396,-5.1423,-5.1641,-5.2167,-5.2574,-5.2995,-5.3715,-5.4655,-5.5797,-5.6933,-5.7284,-5.7187,-5.7143,-5.7101,-5.6712,-5.6458,-5.6549,-5.6605,4.7153,4.767,4.7703,4.8755,5.0346,5.1123,5.1394,5.1385,5.1398,5.1394,5.1394,5.1391,5.1389,5.1394,5.1394,5.1394,5.1375,5.0965,5.0965,5.0972,4.9588,4.9617,4.8922,4.8088,4.7509,4.7282,4.7055,4.6897,4.5893,4.5493,4.5419,4.5418,4.5317,4.5235,4.5192,4.5216,4.4965,4.4642,4.427,4.3901,4.3235,4.2304,4.1043,4.0055,3.9067,3.8399,3.7831,3.7339,3.6894,3.6717,3.6672,3.6137,3.5013,3.3519,3.2114,2.981,2.7606,2.445,2.0627,1.6718,1.1449,0.5843,0.0448,-0.3147,-0.5568,-0.755,-0.8726,-0.9865,-1.1115,-1.212,-1.2553,-1.2971,-1.3787,-1.4651,-1.6338,-1.8046,-2.0304,-2.2631,-2.682,-3.1654,-3.6421,-4.1401,-4.5052,-4.7144,-4.887,-4.9851,-5.0508,-5.0796,-5.0956,-5.1023,-5.1049,-5.1307,-5.1676,-5.1971,-5.1674,-5.1444,-5.1515,-5.1468,-5.1346,-5.1691,-5.2441,-5.3258,-5.3861,-5.4796,-5.5812,-5.6757,-5.7498,-5.7651,-5.763,-5.7545,-5.7343,-5.6992,-5.668,-5.6559,-5.6614,4.6162,4.6425,4.6391,4.7581,4.9023,5.0602,5.1302,5.1398,5.1385,5.1398,5.1382,5.1394,5.1391,5.1398,5.1394,5.1394,5.1258,5.0887,5.0773,5.1215,4.9527,4.9127,4.9206,4.8787,4.7474,4.7198,4.6925,4.6419,4.5857,4.5494,4.5341,4.5277,4.5256,4.5192,4.5148,4.49,4.463,4.4326,4.3672,4.3095,4.2476,4.1268,3.9834,3.9063,3.8187,3.7372,3.6864,3.6448,3.6084,3.6312,3.6172,3.5589,3.3547,3.1765,3.0189,2.827,2.6257,2.2714,1.8648,1.4205,0.8822,0.3698,-0.0826,-0.3838,-0.6078,-0.7372,-0.838,-0.9295,-1.0444,-1.1357,-1.1801,-1.2939,-1.3894,-1.4922,-1.6345,-1.8414,-2.0876,-2.4305,-2.9311,-3.3993,-3.8364,-4.3031,-4.5314,-4.7386,-4.9118,-5.0163,-5.0782,-5.105,-5.1451,-5.1551,-5.1488,-5.146,-5.1523,-5.1743,-5.1596,-5.1453,-5.1622,-5.1583,-5.1508,-5.201,-5.2947,-5.3886,-5.4821,-5.5661,-5.6482,-5.7011,-5.7573,-5.7725,-5.7776,-5.7692,-5.7489,-5.7231,-5.6977,-5.6684,-5.6606,4.6473,4.7242,4.7955,4.8534,4.9004,5.0019,5.0859,5.1386,5.1389,5.1389,5.1403,5.14,5.1391,5.1394,5.1394,5.1394,5.1277,5.0945,5.0796,5.0313,4.9184,4.8681,4.8613,4.7695,4.6978,4.6861,4.6549,4.6066,4.5659,4.5438,4.5319,4.5277,4.5213,4.5125,4.5109,4.4725,4.4208,4.4075,4.3132,4.2241,4.1397,4.069,3.9632,3.8572,3.7578,3.7182,3.6765,3.6461,3.6198,3.6091,3.5833,3.4563,3.2496,3.1192,2.9582,2.7603,2.54,2.1779,1.7363,1.2444,0.7333,0.2462,-0.1636,-0.4092,-0.6008,-0.7058,-0.7953,-0.8743,-0.9579,-1.0382,-1.1455,-1.2808,-1.4142,-1.5304,-1.6473,-1.9005,-2.1491,-2.6697,-3.1874,-3.604,-4.0358,-4.3223,-4.5587,-4.7466,-4.9159,-5.0212,-5.0821,-5.1351,-5.2069,-5.2342,-5.2045,-5.1913,-5.143,-5.1455,-5.1447,-5.1604,-5.1857,-5.2063,-5.209,-5.2718,-5.3507,-5.4648,-5.5737,-5.6347,-5.7012,-5.734,-5.7567,-5.7731,-5.7781,-5.7597,-5.7314,-5.6938,-5.6831,-5.6597,-5.6602,4.6357,4.7019,4.793,4.832,4.8555,4.9648,5.0468,5.0871,5.1226,5.1385,5.1398,5.1394,5.1385,5.1394,5.1394,5.1394,5.1316,5.0965,5.0575,4.9933,4.9114,4.8435,4.7689,4.6903,4.6597,4.6447,4.607,4.5671,4.5513,4.54,4.5277,4.5277,4.5192,4.5129,4.5135,4.4431,4.4007,4.3989,4.2743,4.1811,4.0924,4.0492,3.9823,3.8652,3.7895,3.7343,3.6547,3.6163,3.5726,3.5037,3.4383,3.3391,3.178,3.0515,2.909,2.7165,2.4776,2.1544,1.674,1.1899,0.6803,0.202,-0.2108,-0.453,-0.5514,-0.6432,-0.6795,-0.7589,-0.9241,-1.0101,-1.1759,-1.3113,-1.4929,-1.627,-1.7779,-1.9825,-2.4101,-2.9189,-3.326,-3.6672,-4.0748,-4.4389,-4.6542,-4.8299,-4.9815,-5.0715,-5.1259,-5.1784,-5.2479,-5.332,-5.2965,-5.2582,-5.2216,-5.1895,-5.1968,-5.2076,-5.2193,-5.2414,-5.2707,-5.3523,-5.4398,-5.5605,-5.6653,-5.6914,-5.7127,-5.7315,-5.7539,-5.768,-5.7392,-5.7088,-5.6823,-5.6563,-5.6517,-5.6542,-5.6606,4.6289,4.6502,4.7269,4.7715,4.7969,4.9355,5.0191,5.05,5.1082,5.1394,5.1398,5.1398,5.1394,5.1394,5.1398,5.1394,5.1199,5.0692,5.0278,4.963,4.886,4.7951,4.7339,4.6911,4.6416,4.6027,4.5722,4.5566,4.5438,4.5339,4.5297,4.5317,4.5275,4.5192,4.4953,4.463,4.4302,4.3664,4.2827,4.2193,4.163,4.1034,3.9922,3.9013,3.8274,3.7446,3.649,3.5677,3.5085,3.4315,3.3338,3.2103,3.1119,2.9911,2.8226,2.6501,2.4209,2.0793,1.6683,1.2064,0.6994,0.2218,-0.1666,-0.4078,-0.5054,-0.5595,-0.595,-0.7095,-0.8739,-1.0153,-1.1721,-1.3665,-1.5423,-1.7349,-1.9026,-2.1319,-2.6352,-3.1284,-3.4545,-3.7676,-4.1494,-4.5337,-4.7242,-4.8985,-5.0143,-5.1043,-5.181,-5.2357,-5.3023,-5.3941,-5.431,-5.3869,-5.3447,-5.3127,-5.2766,-5.2686,-5.2783,-5.3156,-5.3583,-5.4392,-5.5201,-5.6068,-5.6698,-5.7009,-5.7215,-5.748,-5.7508,-5.7568,-5.718,-5.6777,-5.6569,-5.6457,-5.6437,-5.6491,-5.6615,4.7125,4.7267,4.7514,4.7988,4.8652,4.9062,4.9878,5.1066,5.1258,5.1394,5.1258,5.1355,5.1394,5.1375,5.1391,5.1274,5.0875,5.0383,4.9688,4.8981,4.8238,4.7233,4.6568,4.6409,4.6027,4.5789,4.5618,4.5531,4.54,4.5319,4.5297,4.5317,4.5192,4.5109,4.4988,4.4564,4.395,4.3567,4.3296,4.2723,4.2205,4.1181,3.9363,3.8474,3.7768,3.7108,3.6285,3.5333,3.488,3.4266,3.3286,3.1766,3.0444,2.9389,2.7881,2.573,2.3436,2.0129,1.6133,1.232,0.7494,0.221,-0.1375,-0.4047,-0.4757,-0.5324,-0.5974,-0.7143,-0.8543,-0.9778,-1.1482,-1.3878,-1.5803,-1.8076,-1.9932,-2.3697,-2.8126,-3.235,-3.6096,-3.9608,-4.3402,-4.6015,-4.7701,-4.9217,-5.0424,-5.1338,-5.2324,-5.2905,-5.3535,-5.4509,-5.5496,-5.5085,-5.4577,-5.4139,-5.371,-5.3468,-5.3553,-5.393,-5.4392,-5.5104,-5.5717,-5.6167,-5.6688,-5.7171,-5.75,-5.7785,-5.7748,-5.7687,-5.7207,-5.6854,-5.6566,-5.6414,-5.6444,-5.6717,-5.7087]},{"header":{"parameterUnit":"m.s-1","parameterCategory":1,"la1":31.0,"la2":29.5877,"lo1":-88.7671,"lo2":-86.6584,"dx":0.0162,"dy":0.0185,"nx":115,"ny":88,"refTime":"2023-02-09T06:00:00:Z","depth":0,"parameterNumber":3,"parameterNumberName":"V-component_of_WINDS"},"data":[0.0,0.0,0.0,0.0,0.0,0.0,0.0,0.0,0.0,0.0,0.0,0.0,0.0,0.0,0.0,0.0,0.0,0.0,0.0,0.0,0.0,0.0,0.0,0.0,0.0,0.0,0.0,0.0,0.0,0.0,0.0,0.0,0.0,0.0,0.0,0.0,0.0,0.0,0.0,0.0,0.0,0.0,0.0,0.0,0.0,0.0,0.0,0.0,0.0,0.0,0.0,0.0,0.0,0.0,0.0,0.0,0.0,0.0,0.0,0.0,0.0,0.0,0.0,0.0,0.0,0.0,0.0,0.0,0.0,0.0,0.0,0.0,0.0,0.0,0.0,0.0,0.0,0.0,0.0,0.0,0.0,0.0,0.0,0.0,0.0,0.0,0.0,0.0,0.0,0.0,0.0,0.0,0.0,0.0,0.0,0.0,0.0,0.0,0.0,0.0,0.0,0.0,0.0,0.0,0.0,0.0,0.0,0.0,0.0,0.0,0.0,0.0,0.0,0.0,0.0,0.0,0.0,0.0,0.0,0.0,0.0,0.0,0.0,0.0,0.0,0.0,0.0,0.0,0.0,0.0,0.0,0.0,0.0,0.0,0.0,0.0,0.0,0.0,0.0,0.0,0.0,0.0,0.0,0.0,0.0,0.0,0.0,0.0,0.0,0.0,0.0,0.0,0.0,0.0,0.0,0.0,0.0,0.0,0.0,0.0,0.0,0.0,0.0,0.0,0.0,0.0,0.0,0.0,0.0,0.0,0.0,0.0,0.0,0.0,0.0,0.0,0.0,0.0,0.0,0.0,0.0,0.0,0.0,0.0,0.0,0.0,0.0,0.0,0.0,0.0,0.0,0.0,0.0,0.0,0.0,0.0,0.0,0.0,0.0,0.0,0.0,0.0,0.0,0.0,0.0,0.0,0.0,0.0,0.0,0.0,0.0,0.0,0.0,0.0,0.0,0.0,0.0,0.0,0.0,0.0,0.0,0.0,0.0,0.0,0.0,0.0,0.0,0.0,0.0,0.0,0.0,0.0,0.0,0.0,0.0,0.0,0.0,0.0,0.0,0.0,0.0,0.0,0.0,0.0,0.0,0.0,0.0,0.0,0.0,0.0,0.0,0.0,0.0,0.0,0.0,0.0,0.0,0.0,0.0,0.0,0.0,0.0,0.0,0.0,0.0,0.0,0.0,0.0,0.0,0.0,0.0,0.0,0.0,0.0,0.0,0.0,0.0,0.0,0.0,0.0,0.0,0.0,0.0,0.0,0.0,0.0,0.0,0.0,0.0,0.0,0.0,0.0,0.0,0.0,0.0,0.0,0.0,0.0,0.0,0.0,0.0,0.0,0.0,0.0,0.0,0.0,0.0,0.0,0.0,0.0,0.0,0.0,0.0,0.0,0.0,0.0,0.0,0.0,0.0,0.0,0.0,0.0,0.0,0.0,0.0,0.0,0.0,0.0,0.0,0.0,0.0,0.0,0.0,0.0,0.0,0.0,0.0,0.0,0.0,0.0,0.0,0.0,0.0,0.0,0.0,0.0,0.0,0.0,0.0,0.0,0.0,0.0,0.0,0.0,0.0,0.0,0.0,0.0,0.0,0.0,0.0,0.0,0.0,0.0,0.0,0.0,0.0,0.0,0.0,0.0,0.0,0.0,0.0,0.0,0.0,0.0,0.0,0.0,0.0,0.0,0.0,0.0,0.0,0.0,0.0,0.0,0.0,0.0,0.0,0.0,0.0,0.0,0.0,0.0,0.0,0.0,0.0,0.0,0.0,0.0,0.0,0.0,0.0,0.0,0.0,0.0,0.0,0.0,0.0,0.0,0.0,0.0,0.0,0.0,0.0,0.0,0.0,0.0,0.0,0.0,0.0,0.0,0.0,0.0,0.0,0.0,0.0,0.0,0.0,0.0,0.0,0.0,0.0,0.0,0.0,0.0,0.0,0.0,0.0,0.0,0.0,0.0,0.0,0.0,0.0,0.0,0.0,0.0,0.0,0.0,0.0,0.0,0.0,0.0,0.0,0.0,0.0,0.0,0.0,0.0,0.0,0.0,0.0,0.0,0.0,0.0,0.0,0.0,0.0,0.0,0.0,0.0,0.0,0.0,0.0,0.0,0.0,0.0,0.0,0.0,0.0,0.0,0.0,0.0,0.0,0.0,0.0,0.0,0.0,0.0,0.0,0.0,0.0,0.0,0.0,0.0,0.0,0.0,0.0,0.0,0.0,0.0,0.0,0.0,0.0,0.0,0.0,0.0,0.0,0.0,0.0,0.0,0.0,0.0,0.0,0.0,0.0,0.0,0.0,0.0,0.0,0.0,0.0,0.0,0.0,0.0,0.0,0.0,0.0,0.0,0.0,0.0,0.0,0.0,0.0,0.0,0.0,0.0,0.0,0.0,0.0,0.0,0.0,0.0,0.0,0.0,0.0,0.0,0.0,0.0,0.0,0.0,0.0,0.0,0.0,0.0,0.0,0.0,0.0,0.0,0.0,0.0,0.0,0.0,0.0,0.0,0.0,0.0,0.0,0.0,0.0,0.0,0.0,0.0,0.0,0.0,0.0,0.0,0.0,0.0,0.0,0.0,0.0,0.0,0.0,0.0,0.0,0.0,0.0,0.0,0.0,0.0,0.0,0.0,0.0,0.0,0.0,0.0,0.0,0.0,0.0,0.0,0.0,0.0,0.0,0.0,0.0,0.0,0.0,0.0,0.0,0.0,0.0,0.0,0.0,0.0,0.0,0.0,0.0,0.0,0.0,0.0,0.0,0.0,0.0,0.0,0.0,0.0,0.0,0.0,0.0,0.0,0.0,0.0,0.0,0.0,0.0,0.0,0.0,0.0,0.0,0.0,0.0,0.0,0.0,0.0,0.0,0.0,0.0,0.0,0.0,0.0,0.0,0.0,0.0,0.0,0.0,0.0,0.0,0.0,0.0,0.0,0.0,0.0,0.0,0.0,0.0,0.0,0.0,0.0,0.0,0.0,0.0,0.0,0.0,0.0,0.0,0.0,0.0,0.0,0.0,0.0,0.0,0.0,0.0,0.0,0.0,0.0,0.0,0.0,0.0,0.0,0.0,0.0,0.0,0.0,0.0,0.0,0.0,0.0,0.0,0.0,0.0,0.0,0.0,0.0,0.0,0.0,0.0,0.0,0.0,0.0,0.0,0.0,0.0,0.0,0.0,0.0,0.0,0.0,0.0,0.0,0.0,0.0,0.0,0.0,0.0,0.0,0.0,0.0,0.0,0.0,0.0,0.0,0.0,0.0,0.0,0.0,0.0,0.0,0.0,0.0,0.0,0.0,0.0,0.0,0.0,0.0,0.0,0.0,0.0,0.0,0.0,0.0,0.0,0.0,0.0,0.0,0.0,0.0,0.0,0.0,0.0,0.0,0.0,0.0,0.0,0.0,0.0,0.0,0.0,0.0,0.0,0.0,0.0,0.0,0.0,0.0,0.0,0.0,0.0,0.0,0.0,0.0,0.0,0.0,0.0,0.0,0.0,0.0,0.0,0.0,0.0,0.0,0.0,0.0,0.0,0.0,0.0,0.0,0.0,0.0,0.0,0.0,0.0,0.0,0.0,0.0,0.0,0.0,0.0,0.0,0.0,0.0,0.0,0.0,0.0,0.0,0.0,0.0,0.0,0.0,0.0,0.0,0.0,0.0,0.0,0.0,0.0,0.0,0.0,0.0,0.0,0.0,0.0,0.0,0.0,0.0,0.0,0.0,0.0,0.0,0.0,0.0,0.0,0.0,0.0,0.0,0.0,0.0,0.0,0.0,0.0,0.0,0.0,0.0,0.0,0.0,0.0,0.0,0.0,0.0,0.0,0.0,0.0,0.0,0.0,0.0,0.0,0.0,0.0,0.0,0.0,0.0,0.0,0.0,0.0,0.0,0.0,0.0,0.0,0.0,0.0,0.0,0.0,0.0,0.0,0.0,0.0,0.0,0.0,0.0,0.0,0.0,0.0,0.0,0.0,0.0,0.0,0.0,0.0,0.0,0.0,0.0,0.0,0.0,0.0,0.0,0.0,0.0,0.0,0.0,0.0,0.0,0.0,0.0,0.0,0.0,0.0,0.0,0.0,0.0,0.0,0.0,0.0,0.0,0.0,0.0,0.0,0.0,0.0,0.0,0.0,0.0,0.0,0.0,0.0,0.0,0.0,0.0,0.0,0.0,0.0,0.0,0.0,0.0,0.0,0.0,0.0,0.0,0.0,0.0,0.0,0.0,0.0,0.0,0.0,0.0,0.0,0.0,0.0,0.0,0.0,0.0,0.0,0.0,-0.0955,0.0,0.0,0.0,0.0,0.0,0.0,0.0,0.0,0.0,0.0,0.0,0.0,0.0,0.0,0.0,0.0,0.0,0.0,0.0,0.0,0.0,0.0,0.0,0.0,0.0,0.0,0.0,0.0,0.0,0.0,0.0,0.0,0.0,0.0,0.0,0.0,0.0,0.0,0.0,0.0,0.0,0.0,0.0,0.0,0.0,0.0,0.0,0.0,0.0,0.0,0.0,0.0,0.0,0.0,0.0,0.0,0.0,0.0,0.0,0.0,0.0,0.0,0.0,0.0,0.0,0.0,0.0,0.0,0.0,0.0,0.0,0.0,0.0,0.0,0.0,0.0,0.0,0.0,0.0,0.0,0.0,0.0,0.0,0.0,0.0,0.0,0.0,0.0,0.0,0.0,0.0,0.0,0.0,0.0,0.0,0.0,0.0,0.0,0.0,0.0,0.0,0.0,0.0,0.0,0.0,0.0,0.0,0.0,0.0,0.0,-0.1513,-0.1417,-0.0862,-0.0675,-0.0929,0.0,0.0,0.0,0.0,0.0,0.0,0.0,0.0,0.0,0.0,0.0,0.0,0.0,0.0,0.0,0.0,0.0,0.0,0.0,0.0,0.0,0.0,0.0,0.0,0.0,0.0,0.0,0.0,0.0,0.0,0.0,0.0,0.0,0.0,0.0,0.0,0.0,0.0,0.0,0.0,0.0,0.0,0.0,0.0,0.0,0.0,0.0,0.0,0.0,0.0,0.0,0.0,0.0,0.0,0.0,0.0,0.0,0.0,0.0,0.0,0.0,0.0,0.0,0.0,0.0,0.0,0.0,0.0,0.0,0.0,0.0,0.0,0.0,0.0,0.0,0.0,0.0,0.0,0.0,0.0,0.0,0.0,0.0,0.0,0.0,0.0,0.0,0.0,0.0,0.0,0.0,0.0,0.0,0.0,0.0,0.0,0.0,0.0,0.0,0.0,0.0,0.0,0.0,0.0,0.0,0.0,0.0,0.0,0.0,0.0,0.0,0.0,-0.032,-0.0271,-0.0672,0.0,0.0,0.0,0.0,0.0,0.0,0.0,0.0,0.0,0.0,0.0,0.0,0.0,0.0,0.0,0.0,0.0,0.0,0.0,0.0,0.0,0.0,0.0,0.0,0.0,0.0,0.0,0.0,0.0,0.0,0.0,0.0,0.0,0.0,0.0,0.0,0.0,0.0,0.0,0.0,0.0,0.0,0.0,0.0,0.0,0.0,0.0,0.0,0.0,0.0,0.0,0.0,0.0,0.0,0.0,0.0,0.0,0.0,0.0,0.0,0.0,0.0,0.0,0.0,0.0,0.0,0.0,0.0,0.0,0.0,0.0,0.0,0.0,0.0,0.0,0.0,0.0,0.0,0.0,0.0,0.0,0.0,0.0,0.0,0.0,0.0,0.0,0.0,0.0,0.0,0.0,0.0,0.0,0.0,0.0,0.0,0.0,0.0,0.0,0.0,0.0,0.0,0.0,0.0,0.0,0.0,0.0,0.0,0.0,0.0,-0.041,-0.0,0.0213,0.0,-0.0112,0.0,0.0,0.0,0.0,0.0,0.0,0.0,0.0,0.0,0.0,0.0,0.0,0.0,0.0,0.0,0.0,0.0,0.0,0.0,0.0,0.0,0.0,0.0,0.0,0.0,0.0,0.0,0.0,0.0,0.0,0.0,0.0,0.0,0.0,0.0,0.0,0.0,0.0,0.0,0.0,0.0,0.0,0.0,0.0,0.0,0.0,0.0,0.0,0.0,0.0,0.0,0.0,0.0,0.0,0.0,0.0,0.0,0.0,0.0,0.0,0.0,0.0,0.0,0.0,0.0,0.0,0.0,0.0,0.0,0.0,0.0,0.0,0.0,0.0,0.0,0.0,0.0,0.0,0.0,0.0,0.0,0.0,0.0,0.0,0.0,0.0,0.0,0.0,0.0,0.0,0.0,0.0,0.0,0.0,0.0,0.0,0.0,0.0,0.0,0.0,0.0,0.0,0.0,0.0,0.0,0.0,0.0,0.0,0.0,0.0,0.0442,0.0384,0.0714,0.0829,0.0,0.0,0.0,0.0,0.0,0.0,0.0,0.0,0.0,0.0,0.0,0.0,0.0,0.0,0.0,0.0,0.0,0.0,0.0,0.0,0.0,0.0,0.0,0.0,0.0,0.0,0.0,0.0,0.0,0.0,0.0,0.0,0.0,0.0,0.0,0.0,0.0,0.0,0.0,0.0,0.0,0.0,0.0,0.0,0.0,0.0,0.0,0.0,0.0,0.0,0.0,0.0,0.0,0.0,0.0,0.0,0.0,0.0,0.0,0.0,0.0,0.0,0.0,0.0,0.0,0.0,0.0,0.0,0.0,0.0,0.0,0.0,0.0,0.0,0.0,0.0,0.0,0.0,0.0,0.0,0.0,0.0,0.0,0.0,0.0,0.0,0.0,0.0,0.0,0.0,0.0,0.0,0.0,0.0,0.0,0.0,0.0,0.0,0.0,0.0,0.0,0.0,0.0,0.0,0.0,0.0,0.0,0.0,0.0,0.0,0.0777,0.1264,0.1066,0.1234,0.1234,0.101,0.0,0.0,0.0,0.0,0.0,0.0,0.0,0.0,0.0,0.0,0.0,0.0,0.0,0.0,0.0,0.0,0.0,0.0,0.0,0.0,0.0,0.0,0.0,0.0,0.0,0.0,0.0,0.0,0.0,0.0,0.0,0.0,0.0,0.0,0.0,0.0,0.0,0.0,0.0,0.0,0.0,0.0,0.0,0.0,0.0,0.0,0.0,0.0,0.0,0.0,0.0,0.0,0.0,0.0,0.0,0.0,0.0,0.0,0.0,0.0,0.0,0.0,0.0,0.0,0.0,0.0,0.0,0.0,0.0,0.0,0.0,0.0,0.0,0.0,0.0,0.0,0.0,0.0,0.0,0.0,0.0,0.0,0.0,0.0,0.0,0.0,0.0,0.0,0.0,0.0,0.0,0.0,0.0,0.0,0.0,0.0,0.0,0.0,0.0,0.0,0.0,0.0,0.0,0.0,0.0,0.0,0.0,0.0,0.0354,0.1302,0.1855,0.2076,0.1626,0.129,0.0,0.0,0.0,0.0,0.0,0.0,0.0,0.0,0.0,0.0,0.0,0.0,0.0,0.0,0.0,0.0,0.0,0.0,0.0,0.0,0.0,0.0,0.0,0.0,0.0,0.0,0.0,0.0,0.0,0.0,0.0,0.0,0.0,0.0,0.0,0.0,0.0,0.0,0.0,0.0,0.0,0.0,0.0,0.0,0.0,0.0,0.0,0.0,0.0,0.0,0.0,0.0,0.0,0.0,0.0,0.0,0.0,0.0,0.0,0.0,0.0,0.0,0.0,0.0,0.0,0.0,0.0,0.0,0.0,0.0,0.0,0.0,0.0,0.0,0.0,0.0,0.0,0.0,0.0,0.0,0.0,0.0,0.0,0.0,0.0,0.0,0.0,0.0,0.0,0.0,0.0,0.0,0.0,0.0,0.0,0.0,0.0,0.0,0.0,0.0,0.0,0.0,0.0,0.0,0.0,0.0,0.0,0.0,0.0,0.0784,0.1531,0.2172,0.2669,0.2008,0.1572,0.0,0.0,0.0,0.0,0.0,0.0,0.0,0.0,0.0,0.0,0.0,0.0,0.0,0.0,0.0,0.0,0.0,0.0,0.0,0.0,0.0,0.0,0.0,0.0,0.0,0.0,0.0,0.0,0.0,0.0,0.0,0.0,0.0,0.0,0.0,0.0,0.0,0.0,0.0,0.0,0.0,0.0,0.0,0.0,0.0,0.0,0.0,0.0,0.0,0.0,0.0,0.0,0.0,0.0,0.0,0.0,0.0,0.0,0.0,0.0,0.0,0.0,0.0,0.0,0.0,0.0,0.0,0.0,0.0,0.0,0.0,0.0,0.0,0.0,0.0,0.0,0.0,0.0,0.0,0.0,0.0,0.0,0.0,0.0,0.0,0.0,0.0,0.0,0.0,0.0,0.0,0.0,0.0,0.0,0.0,0.0,0.0,0.0,0.0,0.0,0.0,0.0,0.0,0.0,0.0,0.0,0.0,0.0,0.0,0.1512,0.0,0.2571,0.2975,0.2296,0.1796,0.0,0.0,0.0,0.0,0.0,0.0,0.0,0.0,0.0,0.0,0.0,0.0,0.0,0.0,0.0,0.0,0.0,0.0,0.0,0.0,0.0,0.0,0.0,0.0,0.0,0.0,0.0,0.0,0.0,0.0,0.0,0.0,0.0,0.0,0.0,0.0,0.0,0.0,0.0,0.0,0.0,0.0,0.0,0.0,0.0,0.0,0.0,0.0,0.0,0.0,0.0,0.0,0.0,0.0,0.0,0.0,0.0,0.0,0.0,0.0,0.0,0.0,0.0,0.0,0.0,0.0,0.0,0.0,0.0,0.0,0.0,0.0,0.0,0.0,0.0,0.0,0.0,0.0,0.0,0.0,0.0,0.0,0.0,0.0,0.0,0.0,0.0,0.0,0.0,0.0,0.0,0.0,0.0,0.0,0.0,0.0,0.0,0.0,0.0,0.0,0.0,0.0,0.0,0.0,0.0,0.0,0.0,0.0,0.092,0.2625,0.2972,0.3105,0.3086,0.2533,0.2077,0.0,0.0,0.0,0.0,0.0,0.0,0.0,0.0,0.0,0.0,0.0,0.0,0.0,0.0,0.0,0.0,0.0,0.0,0.0,0.0,0.0,0.0,0.0,0.0,0.0,0.0,0.0,0.0,0.0,0.0,0.0,0.0,0.0,0.0,0.0,0.0,0.0,0.0,0.0,0.0,0.0,0.0,0.0,0.0,0.0,0.0,0.0,0.0,0.0,0.0,0.0,0.0,0.0,0.0,0.0,0.0,0.0,0.0,0.0,0.0,0.0,0.0,0.0,0.0,0.0,0.0,0.0,0.0,0.0,0.0,0.0,0.0,0.0,0.0,0.0,0.0,0.0,0.0,0.0,0.0,0.0,0.0,0.0,0.0,0.0,0.0,0.0,0.0,0.0,0.0,0.0,0.0,0.0,0.0,0.0,0.0,0.0,0.0,0.0,0.0,0.0,0.0,0.0,0.0,0.0,0.0,0.0,0.0,0.0,0.3625,0.3638,0.3737,0.3804,0.2747,0.2012,0.0,0.0,0.0,0.0,0.0,0.0,0.0,0.0,0.0,0.0,0.0,0.0,0.0,0.0,0.0,0.0,0.0,0.0,0.0,0.0,0.0,0.0,0.0,0.0,0.0,0.0,0.0,0.0,0.0,0.0,0.0,0.0,0.0,0.0,0.0,0.0,0.0,0.0,0.0,0.0,0.0,0.0,0.0,0.0,0.0,0.0,0.0,0.0,0.0,0.0,0.0,0.0,0.0,0.0,0.0,0.0,0.0,0.0,0.0,0.0,0.0,0.0,0.0,0.0,0.0,0.0,0.0,0.0,0.0,0.0,0.0,0.0,0.0,0.0,0.0,0.0,0.0,0.0,0.0,0.0,0.0,0.0,0.0,0.0,0.0,0.0,0.0,0.0,0.0,0.0,0.0,0.0,0.0,0.0,0.0,0.0,0.0,0.0,0.0,0.0,0.0,0.0,0.0,0.0,0.0,0.0,0.0,0.0,0.0,0.4888,0.468,0.454,0.442,0.3394,0.2572,0.1824,0.0,0.0,0.0,0.0,0.0,0.0,0.0,0.0,0.0,0.0,0.0,0.0,0.0,0.0,0.0,0.0,0.0,0.0,0.0,0.0,0.0,0.0,0.0,0.0,0.0,0.0,0.0,0.0,0.0,0.0,0.0,0.0,0.0,0.0,0.0,0.0,0.0,0.0,0.0,0.0,0.0,0.0,0.0,0.0,0.0,0.0,0.0,0.0,0.0,0.0,0.0,0.0,0.0,0.0,0.0,0.0,0.0,0.0,0.0,0.0,0.0,0.0,0.0,0.0,0.0,0.0,0.0,0.0,0.0,0.0,0.0,0.0,0.0,0.0,0.0,0.0,0.0,0.0,0.0,0.0,0.0,0.0,0.0,0.0,0.0,0.0,0.0,0.0,0.0,0.0,0.0,0.0,0.0,0.0,0.0,0.0,0.0,0.0,0.0,0.0,0.0,0.0,0.0,0.0,0.0,0.0,0.0,0.0,0.6162,0.6043,0.5568,0.4879,0.4409,0.3518,0.0,0.0,0.0,0.0,0.0,0.0,0.0,0.0,0.0,0.0,0.0,0.0,0.0,0.0,0.0,0.0,0.0,0.0,0.0,0.0,0.0,0.0,0.0,0.0,0.0,0.0,0.0,0.0,0.0,0.0,0.0,0.0,0.0,0.0,0.0,0.0,0.0,0.0,0.0,0.0,0.0,0.0,0.0,0.0,0.0,0.0,0.0,0.0,0.0,0.0,0.0,0.0,0.0,0.0,0.0,0.0,0.0,0.0,0.0,0.0,0.0,0.0,0.0,0.0,0.0,0.0,0.0,0.0,0.0,0.0,0.0,0.0,0.0,0.0,0.0,0.0,0.0,0.0,0.0,0.0,0.0,0.0,0.0,0.0,0.0,0.0,0.0,0.0,0.0,0.0,0.0,0.0,0.0,0.0,0.0,0.0,0.0,0.0,0.0,0.0,0.0,0.0,0.0,0.0,0.0,0.0,0.0,0.0,0.0,0.6401,0.7291,0.7015,0.5573,0.4467,0.3334,0.0,0.0,0.0,0.0,0.0,0.0,0.0,0.0,0.0,0.0,0.0,0.0,0.0,0.0,0.0,0.0,0.0,0.0,0.0,0.0,0.0,0.0,0.0,0.0,0.0,0.0,0.0,0.0,0.0,0.0,0.0,0.0,0.0,0.0,0.0,0.0,0.0,0.0,0.0,0.0,0.0,0.0,0.0,0.0,0.0,0.0,0.0,0.0,0.0,0.0,0.0,0.0,0.0,0.0,0.0,0.0,0.0,0.0,0.0,0.0,0.0,0.0,0.0,0.0,0.0,0.0,0.0,0.0,0.0,0.0,0.0,0.0,0.0,0.0,0.0,0.0,0.0,0.0,0.0,0.0,0.0,0.0,0.0,0.0,0.0,0.0,0.0,0.0,0.0,0.0,0.0,0.0,0.0,0.0,0.0,0.0,0.0,0.0,0.0,0.0,0.0,0.0,0.0,0.0,0.0,0.0,0.0,0.0,0.6212,0.7218,0.7574,0.7199,0.6047,0.5045,0.3838,0.0,0.0,0.0,0.0,0.0,0.0,0.0,0.0,0.0,0.0,0.0,0.0,0.0,0.0,0.0,0.0,0.0,0.0,0.0,0.0,0.0,0.0,0.0,0.0,0.0,0.0,0.0,0.0,0.0,0.0,0.0,0.0,0.0,0.0,0.0,0.0,0.0,0.0,0.0,0.0,0.0,0.0,0.0,0.0,0.0,0.0,0.0,0.0,0.0,0.0,0.0,0.0,0.0,0.0,0.0,0.0,0.0,0.0,0.0,0.0,0.0,0.0,0.0,0.0,0.0,0.0,0.0,0.0,0.0,0.0,0.0,0.0,0.0,0.0,0.0,0.0,0.0,0.0,0.0,0.0,0.0,0.0,0.0,0.0,0.0,0.0,0.0,0.0,0.0,0.0,0.0,0.0,0.0,0.0,0.0,0.0,0.0,0.0,0.0,0.0,0.0,0.0,0.0,0.0,0.0,0.0,0.0,0.0,0.679,0.8162,0.7348,0.6659,0.6319,0.5644,0.4455,0.0,0.0,0.0,0.0,0.0,0.0,0.0,0.0,0.0,0.0,0.0,0.0,0.0,0.0,0.0,0.0,0.0,0.0,0.0,0.0,0.0,0.0,0.0,0.0,0.0,0.0,0.0,0.0,0.0,0.0,0.0,0.0,0.0,0.0,0.0,0.0,0.0,0.0,0.0,0.0,0.0,0.0,0.0,0.0,0.0,0.0,0.0,0.0,0.0,0.0,0.0,0.0,0.0,0.0,0.0,0.0,0.0,0.0,0.0,0.0,0.0,0.0,0.0,0.0,0.0,0.0,0.0,0.0,0.0,0.0,0.0,0.0,0.0,0.0,0.0,0.0,0.0,0.0,0.0,0.0,0.0,0.0,0.0,0.0,0.0,0.0,0.0,0.0,0.0,0.0,0.0,0.0,0.0,0.0,0.0,0.0,0.0,0.0,0.0,0.0,0.0,0.0,0.0,0.0,0.0,0.0,0.0,0.0,0.7131,0.8166,0.7689,0.7056,0.638,0.4799,0.3626,0.0,0.0,0.0,0.0,0.0,0.0,0.0,0.0,0.0,0.0,0.0,0.0,0.0,0.0,0.0,0.0,0.0,0.0,0.0,0.0,0.0,0.0,0.0,0.0,0.0,0.0,0.0,0.0,0.0,0.0,0.0,0.0,0.0,0.0,0.0,0.0,0.0,0.0,0.0,0.0,0.0,0.0,0.0,0.0,0.0,0.0,0.0,0.0,-3.1458,0.0,0.0,0.0,0.0,0.0,0.0,0.0,0.0,0.0,0.0,0.0,0.0,0.0,0.0,0.0,0.0,0.0,0.0,0.0,0.0,0.0,0.0,0.0,0.0,0.0,0.0,0.0,0.0,0.0,0.0,0.0,0.0,0.0,0.0,0.0,0.0,0.0,0.0,0.0,0.0,0.0,0.0,0.0,0.0,0.0,0.0,0.0,0.0,0.0,0.0,0.0,0.0,0.0,0.0,0.0,0.0,0.0,0.0,0.0,0.682,0.7554,0.6965,0.6378,0.588,0.4394,0.3344,0.0,0.0,0.0,0.0,0.0,0.0,0.0,0.0,0.0,0.0,0.0,0.0,0.0,0.0,0.0,0.0,0.0,0.0,0.0,0.0,0.0,0.0,0.0,0.0,0.0,0.0,0.0,0.0,0.0,0.0,0.0,0.0,0.0,0.0,0.0,0.0,0.0,0.0,0.0,0.0,0.0,0.0,0.0,0.0,0.0,0.0,0.0,0.0,0.0,0.0,0.0,0.0,0.0,0.0,0.0,0.0,0.0,0.0,0.0,0.0,0.0,0.0,0.0,0.0,0.0,0.0,0.0,0.0,0.0,0.0,0.0,0.0,0.0,0.0,0.0,0.0,0.0,0.0,0.0,0.0,0.0,0.0,0.0,0.0,0.0,0.0,0.0,0.0,0.0,0.0,0.0,0.0,0.0,0.0,0.0,0.0,0.0,0.0,0.0,0.0,0.0,0.0,0.0,0.0,0.0,0.0,0.0,0.5765,0.6426,0.6922,0.5987,0.5423,0.5361,0.4208,0.3264,0.2436,0.0,0.0,0.0,0.0,0.0,0.0,0.0,0.0,0.0,0.0,0.0,0.0,0.0,0.0,0.0,0.0,0.0,0.0,0.0,0.0,0.0,0.0,0.0,0.0,0.0,0.0,0.0,0.0,0.0,0.0,0.0,0.0,0.0,0.0,0.0,0.0,0.0,0.0,-3.1437,-3.1964,0.0,0.0,0.0,0.0,0.0,0.0,0.0,0.0,-3.1981,0.0,0.0,0.0,0.0,0.0,0.0,0.0,0.0,0.0,0.0,0.0,0.0,0.0,0.0,0.0,0.0,0.0,0.0,0.0,0.0,0.0,0.0,0.0,0.0,0.0,0.0,0.0,0.0,0.0,0.0,0.0,0.0,0.0,0.0,0.0,0.0,0.0,0.0,0.0,0.0,0.0,0.0,0.0,0.0,0.0,0.0,0.0,0.0,0.0,0.0,0.0,0.0,0.0,0.0,0.0,0.0,0.5117,0.5839,0.6455,0.6933,0.5993,0.5341,0.5087,0.4128,0.305,0.1791,0.0,0.0,0.0,0.0,0.0,0.0,0.0,0.0,0.0,0.0,0.0,0.0,0.0,0.0,0.0,0.0,0.0,0.0,0.0,0.0,0.0,0.0,0.0,0.0,0.0,0.0,0.0,0.0,0.0,0.0,0.0,0.0,0.0,0.0,0.0,0.0,0.0,0.0,0.0,-3.2396,-3.2263,0.0,0.0,0.0,0.0,0.0,0.0,0.0,0.0,-3.1918,0.0,0.0,0.0,0.0,0.0,0.0,0.0,0.0,0.0,0.0,0.0,0.0,0.0,0.0,0.0,0.0,0.0,0.0,0.0,0.0,0.0,0.0,0.0,0.0,0.0,0.0,0.0,0.0,0.0,0.0,0.0,0.0,0.0,0.0,0.0,0.0,0.0,0.0,0.0,0.0,0.0,0.0,0.0,0.0,0.0,0.0,0.0,0.0,0.0,0.0,0.0,0.0,0.0,0.0,0.0,0.4956,0.5225,0.5636,0.6207,0.5175,0.4535,0.4399,0.3684,0.2477,0.0,0.0,0.0,0.0,0.0,0.0,0.0,0.0,0.0,0.0,0.0,0.0,0.0,0.0,0.0,0.0,0.0,0.0,0.0,0.0,0.0,0.0,0.0,0.0,0.0,0.0,0.0,0.0,0.0,0.0,0.0,0.0,0.0,0.0,0.0,0.0,0.0,0.0,0.0,0.0,-3.3313,-3.3592,-3.3306,0.0,0.0,0.0,0.0,0.0,0.0,-3.2012,-3.0966,0.0,0.0,0.0,0.0,0.0,0.0,0.0,0.0,0.0,0.0,0.0,0.0,0.0,0.0,0.0,0.0,0.0,0.0,0.0,0.0,0.0,0.0,0.0,0.0,0.0,0.0,0.0,0.0,0.0,0.0,0.0,0.0,0.0,0.0,0.0,0.0,0.0,0.0,0.0,0.0,0.0,0.0,0.0,0.0,0.0,0.0,0.0,0.0,0.0,0.0,0.0,0.0,0.0,0.0,0.0,0.4742,0.4681,0.4907,0.5274,0.4359,0.3838,0.3732,0.2984,0.1897,0.0,0.0,0.0,0.0,0.0,0.0,0.0,0.0,0.0,0.0,0.0,0.0,0.0,0.0,0.0,0.0,0.0,0.0,0.0,0.0,0.0,0.0,0.0,0.0,0.0,0.0,0.0,0.0,0.0,0.0,0.0,0.0,0.0,0.0,0.0,0.0,0.0,0.0,0.0,0.0,0.0,-3.48,-3.4293,-3.3574,0.0,0.0,0.0,0.0,-3.2836,-3.147,0.0,0.0,0.0,0.0,0.0,0.0,0.0,0.0,0.0,0.0,0.0,0.0,0.0,0.0,0.0,0.0,0.0,0.0,0.0,0.0,0.0,0.0,0.0,0.0,0.0,0.0,0.0,0.0,0.0,0.0,0.0,0.0,0.0,0.0,0.0,0.0,0.0,0.0,0.0,0.0,0.0,0.0,0.0,0.0,0.0,0.0,0.0,0.0,0.0,0.0,0.0,0.0,0.0,0.0,0.0,0.0,0.438,0.4753,0.4888,0.476,0.4418,0.3894,0.3211,0.2446,0.1399,0.0,0.0,0.0,0.0,0.0,0.0,0.0,0.0,0.0,0.0,0.0,0.0,0.0,0.0,0.0,0.0,0.0,0.0,0.0,0.0,0.0,0.0,0.0,0.0,0.0,0.0,0.0,0.0,0.0,0.0,0.0,0.0,0.0,0.0,0.0,0.0,0.0,0.0,0.0,0.0,0.0,-3.4982,-3.5873,-3.3909,-3.2494,0.0,0.0,-3.2067,-3.2166,-3.2062,0.0,0.0,0.0,0.0,0.0,0.0,0.0,0.0,0.0,0.0,0.0,0.0,0.0,0.0,0.0,0.0,0.0,0.0,0.0,0.0,0.0,0.0,0.0,0.0,0.0,0.0,0.0,0.0,0.0,0.0,0.0,0.0,0.0,0.0,0.0,0.0,0.0,0.0,0.0,0.0,0.0,0.0,0.0,0.0,0.0,0.0,0.0,0.0,0.0,0.0,0.0,0.0,0.0,0.0,0.0,0.3167,0.3933,0.4133,0.4324,0.4418,0.3632,0.3178,0.2902,0.194,0.0847,0.0,0.0,0.0,0.0,0.0,0.0,0.0,0.0,0.0,0.0,0.0,0.0,0.0,0.0,0.0,0.0,0.0,0.0,0.0,0.0,0.0,0.0,0.0,0.0,0.0,0.0,0.0,0.0,0.0,0.0,0.0,0.0,0.0,0.0,0.0,0.0,0.0,0.0,0.0,0.0,0.0,0.0,-3.596,-3.483,0.0,0.0,0.0,-3.1656,-3.0863,0.0,0.0,0.0,0.0,0.0,0.0,0.0,0.0,0.0,0.0,0.0,0.0,0.0,0.0,0.0,0.0,0.0,0.0,0.0,0.0,0.0,0.0,0.0,0.0,0.0,0.0,0.0,0.0,0.0,0.0,0.0,0.0,0.0,0.0,0.0,0.0,0.0,0.0,0.0,0.0,0.0,0.0,0.0,0.0,0.0,0.0,0.0,0.0,0.0,0.0,0.0,0.0,0.0,0.0,0.0,0.0,0.0,0.3587,0.3662,0.3746,0.3932,0.3022,0.2638,0.2611,0.1457,0.0,0.0,0.0,0.0,0.0,0.0,0.0,0.0,0.0,0.0,0.0,0.0,0.0,0.0,0.0,0.0,0.0,0.0,0.0,0.0,0.0,0.0,0.0,0.0,0.0,0.0,0.0,-2.821,0.0,0.0,0.0,0.0,0.0,0.0,0.0,0.0,0.0,0.0,0.0,0.0,0.0,0.0,-3.4887,-3.5585,-3.5151,-3.4438,0.0,0.0,-3.1056,-2.9577,-2.8962,-2.794,0.0,0.0,0.0,0.0,0.0,0.0,0.0,0.0,0.0,0.0,0.0,0.0,0.0,0.0,0.0,0.0,0.0,0.0,0.0,0.0,0.0,0.0,0.0,0.0,0.0,0.0,0.0,0.0,0.0,0.0,0.0,0.0,0.0,0.0,0.0,0.0,0.0,0.0,0.0,0.0,0.0,0.0,0.0,0.0,0.0,0.0,0.0,0.0,0.0,0.0,0.0,0.0,0.0,0.0,0.0,0.321,0.3529,0.3601,0.3303,0.3044,0.2724,0.2358,0.0985,0.0078,0.0,0.0,0.0,0.0,0.0,0.0,0.0,0.0,0.0,0.0,0.0,0.0,0.0,0.0,0.0,0.0,0.0,0.0,0.0,0.0,0.0,0.0,0.0,0.0,0.0,0.0,0.0,0.0,0.0,0.0,0.0,0.0,0.0,0.0,0.0,0.0,0.0,0.0,0.0,0.0,0.0,-3.4154,-3.4972,-3.4295,-3.3538,0.0,0.0,-3.0315,-2.8414,-2.8852,-2.7949,-2.3774,0.0,0.0,0.0,0.0,0.0,0.0,0.0,0.0,0.0,0.0,0.0,0.0,0.0,0.0,0.0,0.0,0.0,0.0,0.0,0.0,0.0,0.0,0.0,0.0,0.0,0.0,0.0,0.0,0.0,0.0,0.0,0.0,0.0,0.0,0.0,0.0,0.0,0.0,0.0,0.0,0.0,0.0,0.0,0.0,0.0,0.0,0.0,0.0,0.0,0.0,0.0,0.0,0.0,0.2573,0.3078,0.332,0.3305,0.3106,0.2656,0.2109,0.143,0.0411,-0.0393,0.0,0.0,0.0,0.0,0.0,0.0,0.0,0.0,0.0,0.0,0.0,0.0,0.0,0.0,0.0,0.0,0.0,0.0,0.0,0.0,0.0,0.0,0.0,0.0,0.0,0.0,0.0,0.0,-2.947,-2.9406,-2.8634,0.0,0.0,0.0,0.0,0.0,0.0,0.0,0.0,0.0,0.0,-3.3196,-3.3583,-3.3674,0.0,0.0,-3.1864,-3.0945,-2.8867,-2.8444,-2.7262,-2.3867,-2.1836,0.0,0.0,0.0,0.0,0.0,0.0,0.0,0.0,0.0,0.0,0.0,0.0,0.0,0.0,0.0,0.0,0.0,0.0,0.0,0.0,0.0,0.0,0.0,0.0,0.0,0.0,0.0,0.0,0.0,0.0,0.0,0.0,0.0,0.0,0.0,0.0,0.0,0.0,0.0,0.0,0.0,0.0,0.0,0.0,0.0,0.0,0.0,0.0,0.0,0.0,0.0,0.0,0.2477,0.2906,0.313,0.311,0.2831,0.2387,0.1671,0.0589,0.0,-0.0795,0.0,0.0,0.0,0.0,0.0,0.0,0.0,0.0,0.0,0.0,0.0,0.0,0.0,0.0,0.0,0.0,0.0,0.0,0.0,0.0,0.0,0.0,0.0,0.0,0.0,0.0,0.0,0.0,-2.9494,-2.9582,-2.9659,0.0,0.0,0.0,0.0,0.0,0.0,0.0,0.0,0.0,0.0,-3.255,-3.2706,-3.2867,-3.2565,-3.1358,-3.1024,-3.0257,-2.8422,-2.7422,-2.5996,-2.3563,0.0,0.0,0.0,0.0,0.0,0.0,0.0,0.0,0.0,0.0,0.0,0.0,0.0,0.0,0.0,0.0,0.0,0.0,0.0,0.0,0.0,0.0,0.0,0.0,0.0,0.0,0.0,0.0,0.0,0.0,0.2693,0.0,0.0,0.0,0.0,0.0,0.0,0.0,0.0,0.0,0.0,0.0,0.0,0.0,0.0,0.0,0.0,0.0,0.0,0.0,0.0,0.0,0.0,0.2334,0.2581,0.2977,0.2944,0.2502,0.2332,0.1495,0.0168,-0.0252,-0.1057,-0.2353,0.0,0.0,0.0,0.0,0.0,0.0,0.0,0.0,0.0,0.0,0.0,0.0,0.0,0.0,0.0,0.0,0.0,0.0,0.0,0.0,0.0,0.0,0.0,0.0,0.0,0.0,-2.9874,-2.8854,-2.8824,0.0,0.0,0.0,0.0,0.0,0.0,0.0,0.0,0.0,0.0,-3.1369,-3.2353,-3.2415,-3.1729,-3.0917,-3.0109,-2.9053,-2.7834,-2.6593,-2.5534,-2.4241,0.0,0.0,0.0,0.0,0.0,0.0,0.0,0.0,0.0,0.0,0.0,0.0,0.0,0.0,0.0,0.0,0.0,0.0,0.0,0.0,0.0,0.0,0.0,0.0,0.0,0.0,0.0,0.3447,0.3564,0.0,0.0,0.0,0.0,0.0,0.0,0.0,0.0,0.0,0.0,0.0,0.2462,0.2018,0.0,0.0,0.0,0.0,0.0,0.0,0.0,0.0,0.0,0.0,0.0,0.0,0.2243,0.2533,0.2712,0.2751,0.246,0.2138,0.1239,-0.0344,-0.0423,-0.1139,-0.2579,0.0,0.0,0.0,0.0,0.0,0.0,0.0,0.0,0.0,0.0,0.0,0.0,0.0,0.0,0.0,0.0,0.0,0.0,0.0,0.0,0.0,0.0,0.0,0.0,0.0,-2.8722,0.0,0.0,0.0,0.0,0.0,0.0,0.0,0.0,0.0,0.0,0.0,-2.9371,-2.9835,-3.0363,-3.0534,-3.0091,-3.0093,-2.9721,0.0,0.0,0.0,0.0,0.0,0.0,0.0,0.0,0.0,0.0,0.0,0.0,0.0,0.0,-0.8815,-0.9296,-0.8163,-0.7145,-0.7056,0.0,0.0,0.0,0.0,0.0,0.0,0.0,0.0,0.0,0.0,0.0,0.0,0.0,0.0,0.3855,0.0,0.3404,0.0,0.0,0.0,0.0,0.0,0.0,0.0,0.0,0.2438,0.2183,0.1847,0.1357,0.1156,0.0,0.0574,-0.0213,0.0,0.0,0.0,0.0,0.0,0.0,0.0,0.0,0.2487,0.2534,0.2733,0.2685,0.2461,0.2035,0.1054,-0.0515,-0.1001,-0.1681,-0.2652,-0.2712,-0.2903,0.0,0.0,0.0,0.0,0.0,0.0,0.0,0.0,0.0,0.0,0.0,0.0,0.0,0.0,0.0,0.0,0.0,0.0,0.0,0.0,0.0,0.0,0.0,-2.8392,0.0,0.0,0.0,0.0,0.0,0.0,0.0,0.0,0.0,-2.852,-2.9063,-2.9669,-3.0131,-2.9869,-2.9454,-2.8983,0.0,0.0,0.0,0.0,0.0,0.0,0.0,-2.2163,-2.0869,-1.9334,-1.746,-1.5026,-1.2153,-0.974,-0.8329,0.0,0.0,-0.7811,-0.683,-0.597,-0.6117,-0.52,-0.4158,-0.343,-0.2771,-0.202,0.0,0.0,0.0,0.0,0.0,0.0,0.0,0.0,0.4455,0.4143,0.0,0.3558,0.0,0.0,0.0,0.0,0.0,0.2538,0.0,0.0,0.1574,0.0843,0.0493,0.029,-0.0073,-0.0513,-0.0225,-0.0299,-0.051,-0.09,0.0,0.0,0.0,0.0,0.0,0.0,0.2991,0.2586,0.2879,0.2835,0.25,0.2018,0.1031,-0.0504,-0.1771,-0.2567,-0.2735,-0.2572,-0.2809,-0.3381,-0.3702,0.0,0.0,0.0,0.0,0.0,0.0,0.0,0.0,0.0,0.0,0.0,0.0,0.0,0.0,0.0,0.0,0.0,0.0,0.0,0.0,-2.7704,0.0,0.0,0.0,0.0,0.0,0.0,0.0,0.0,0.0,0.0,-2.9639,-3.0399,-3.0921,-3.0859,0.0,0.0,0.0,0.0,-2.5982,-2.5928,-2.4476,-2.318,-2.2782,-2.1467,-2.0462,-2.0257,0.0,0.0,-1.3736,-1.1404,-0.9589,-0.8364,-0.7175,-0.627,-0.6282,-0.5829,-0.5494,-0.5771,-0.4996,-0.4071,-0.3532,-0.2962,-0.2209,0.4187,0.0,0.0,0.0,0.0,0.5803,0.5855,0.6037,0.5009,0.4567,0.4485,0.3305,0.0,0.0,0.0,0.0,0.0,0.0,0.2604,0.2468,0.165,0.0823,-0.0,-0.0636,-0.0963,-0.1026,-0.0921,-0.1218,-0.1842,-0.1507,-0.0834,0.014,0.0,0.0,0.0,0.0,0.3044,0.2671,0.2713,0.2539,0.2142,0.1873,0.1015,-0.0588,-0.1879,-0.2728,-0.3029,-0.2931,-0.3081,-0.3479,-0.3422,0.0,0.0,0.0,0.0,0.0,0.0,0.0,0.0,0.0,0.0,0.0,0.0,0.0,0.0,0.0,0.0,0.0,0.0,0.0,-2.8637,-2.8982,-2.9041,0.0,0.0,0.0,0.0,0.0,0.0,0.0,0.0,0.0,-2.8577,-2.9214,-2.9495,0.0,0.0,-2.7571,-2.6918,-2.5556,-2.4352,-2.3539,-2.2415,0.0,-2.0744,-2.002,-1.9375,-1.91,-1.7339,-1.5419,-1.3705,-1.1986,-1.014,-0.8313,-0.7618,-0.715,-0.6412,-0.5651,-0.542,-0.5694,-0.5183,-0.439,-0.3558,-0.3085,-0.2617,0.4777,0.49,0.5081,0.5849,0.6794,0.651,0.6527,0.6554,0.5384,0.4781,0.463,0.3158,0.2361,0.1933,0.2226,0.0,0.0,0.0,0.2597,0.2371,0.1417,0.0697,-0.0079,-0.0898,-0.1307,-0.1266,-0.1383,-0.168,-0.2246,-0.1831,-0.1288,-0.0577,0.0,0.0,0.2248,0.291,0.3095,0.283,0.2794,0.2606,0.2271,0.1416,0.0414,-0.0663,-0.1964,-0.2858,-0.3294,-0.3182,-0.3256,-0.3681,-0.3834,-0.4207,0.0,0.0,0.0,0.0,0.0,0.0,0.0,0.0,0.0,0.0,0.0,-2.5839,-2.7141,0.0,0.0,0.0,-2.9377,-2.9551,-2.9282,-2.8922,0.0,0.0,0.0,0.0,0.0,0.0,0.0,-2.8385,-2.8859,-2.8782,-2.761,-2.7898,-2.8003,-2.7386,-2.6505,-2.5664,-2.4812,0.0,-2.2873,-2.1721,-2.0932,-2.0199,-1.9399,-1.8977,-1.8513,-1.8085,-1.6669,-1.532,-1.4209,-1.2469,-1.0614,-0.9161,-0.8178,-0.754,-0.7004,-0.6236,-0.5823,-0.606,-0.5565,-0.4851,-0.3873,-0.3591,-0.3106,0.5135,0.57,0.5701,0.6392,0.7372,0.7123,0.6951,0.6864,0.551,0.4828,0.451,0.3169,0.2377,0.197,0.2035,0.0,0.2984,0.2707,0.2478,0.22,0.0999,0.0393,0.0236,-0.0807,-0.1275,-0.1216,-0.1517,-0.1743,-0.1892,-0.1994,-0.1919,-0.166,-0.0444,0.0941,0.2484,0.3028,0.3214,0.3142,0.3027,0.2925,0.2594,0.0738,-0.0406,-0.0733,-0.1954,-0.2883,-0.3362,-0.3376,-0.3462,-0.3855,-0.4586,-0.5082,-0.5265,0.0,0.0,0.0,0.0,0.0,0.0,0.0,0.0,0.0,0.0,0.0,0.0,0.0,0.0,0.0,-2.8593,0.0,-2.9474,-2.8252,0.0,0.0,0.0,-2.9776,-3.0516,-2.9797,-2.9198,-2.8974,0.0,0.0,-2.6646,-2.6638,-2.6555,-2.6036,-2.4777,-2.3614,-2.2876,-2.2223,-2.1415,-2.0258,-1.988,-1.9397,-1.8559,-1.8275,-1.7999,-1.737,-1.6474,-1.5673,-1.4835,-1.2885,-1.1166,-1.0159,-0.8811,-0.761,-0.764,-0.7237,-0.6899,-0.6649,-0.6064,-0.5374,-0.4512,-0.4281,-0.3667,0.5328,0.5481,0.6048,0.658,0.7092,0.7246,0.732,0.7267,0.5956,0.5056,0.4288,0.3076,0.2438,0.2164,0.1732,0.2014,0.2717,0.2465,0.2211,0.188,0.0775,0.0317,0.0242,-0.0826,-0.1305,-0.1325,-0.1529,-0.1969,-0.2494,-0.2507,-0.251,-0.2569,-0.1608,-0.0228,0.1562,0.2876,0.3315,0.2904,0.3016,0.2714,0.2078,0.0889,-0.0082,-0.075,-0.2327,-0.3276,-0.3526,-0.4142,-0.4449,-0.4188,-0.5378,-0.6449,-0.7267,-0.8333,0.0,0.0,0.0,0.0,0.0,0.0,0.0,0.0,0.0,-2.6522,-2.7734,0.0,-2.8557,0.0,-2.9937,-3.0317,-3.0264,-3.0461,0.0,0.0,-2.9453,-2.9486,-2.9674,-2.9326,-2.8692,-2.7763,-2.811,-2.7536,-2.5153,-2.5554,-2.552,-2.4207,-2.3866,-2.3243,-2.184,-2.0833,-1.9708,-1.8317,-1.8099,-1.8025,-1.7882,-1.8006,-1.7957,-1.7526,-1.6655,-1.5695,-1.4461,-1.3008,-1.1351,-0.967,-0.919,-0.8733,-0.774,-0.7872,-0.7707,-0.6955,-0.6418,-0.5869,-0.4988,-0.4757,-0.4229,0.5458,0.5536,0.6174,0.6541,0.6754,0.7097,0.7254,0.7156,0.5738,0.504,0.4663,0.2745,0.194,0.1897,0.1474,0.1766,0.2554,0.2238,0.1964,0.1747,0.0707,0.024,0.008,-0.0812,-0.1284,-0.1236,-0.1206,-0.1711,-0.2601,-0.3043,-0.3119,-0.2905,-0.2312,-0.1084,0.0681,0.1986,0.2631,0.2824,0.2824,0.2512,0.1887,0.1125,0.0245,-0.0744,-0.2001,-0.2854,-0.3376,-0.3912,-0.4214,-0.4252,-0.5507,-0.6645,-0.7522,-0.8761,-1.0394,0.0,0.0,0.0,0.0,0.0,0.0,0.0,0.0,0.0,0.0,0.0,-2.9337,-2.9983,-3.0646,-3.0819,-3.0375,-3.0787,-3.0945,-3.0604,-3.0503,-3.0579,-3.0843,-3.0316,-2.9557,-2.8586,-2.8286,-2.7378,-2.5415,-2.558,-2.5489,-2.4406,-2.4162,-2.3311,-2.0945,-1.7838,-1.5604,-1.6566,-1.7155,-1.7465,-1.7691,-1.775,-1.7747,-1.7561,-1.6373,-1.5061,-1.4372,-1.2476,-1.0648,-0.9493,-0.9244,-0.8779,-0.7722,-0.7648,-0.7584,-0.6677,-0.6093,-0.5625,-0.494,-0.4822,-0.4385,0.5539,0.573,0.6169,0.6452,0.6509,0.6807,0.6968,0.6901,0.5387,0.4851,0.4908,0.2398,0.1428,0.1548,0.1353,0.1725,0.2508,0.2,0.1707,0.1679,0.0875,0.024,-0.0079,-0.0864,-0.1164,-0.1136,-0.0814,-0.1244,-0.2415,-0.3446,-0.3593,-0.2936,-0.2752,-0.1775,-0.0076,0.0694,0.1641,0.2746,0.2512,0.2277,0.1965,0.1365,0.0568,-0.0566,-0.1322,-0.2153,-0.3078,-0.3243,-0.3555,-0.4162,-0.553,-0.6604,-0.7331,-0.903,-1.0737,0.0,-1.445,0.0,0.0,0.0,0.0,0.0,0.0,0.0,0.0,-2.9904,-3.049,-3.0919,-3.1102,-3.0925,-3.0163,-3.038,-3.0895,-3.16,-3.1621,-3.1783,-3.2232,-3.1468,-3.0566,-2.9876,-2.85,-2.7229,-2.619,-2.6099,-2.6017,-2.5681,-2.3996,-2.2604,-2.0945,-1.5769,-1.2811,-1.4961,-1.6226,-1.737,-1.7734,-1.7579,-1.7435,-1.7469,-1.588,-1.4323,-1.4219,-1.1804,-0.9727,-0.9316,-0.8928,-0.8341,-0.733,-0.7117,-0.6849,-0.6171,-0.5546,-0.501,-0.4718,-0.4497,-0.4071,0.5555,0.5733,0.5994,0.6337,0.6672,0.6373,0.66,0.6995,0.608,0.4967,0.3704,0.2188,0.1865,0.2478,0.1787,0.1786,0.2245,0.2112,0.1803,0.1406,0.1182,0.0552,-0.0314,-0.0471,-0.062,-0.0682,-0.0753,-0.1202,-0.2026,-0.294,-0.3317,-0.3006,-0.3183,-0.2352,-0.0605,0.0,0.0,0.0,0.2199,0.2042,0.212,0.1688,0.0967,-0.0158,-0.1531,0.0,-0.2767,-0.3851,-0.4397,-0.4302,-0.6187,0.0,0.0,0.0,0.0,0.0,0.0,0.0,0.0,0.0,0.0,0.0,-2.8594,-2.954,-3.0409,-3.0986,-3.1129,-3.0762,-3.2032,-3.2141,-3.0221,-3.1268,-3.1709,-3.0818,-3.052,-3.0432,-3.0405,-2.9886,-2.9263,-2.876,-2.7779,-2.6874,-2.6299,-2.6544,-2.7087,-2.7151,-2.202,-1.9827,-2.3071,-1.94,-1.4586,-0.8996,-1.3023,-1.7065,-1.7931,-1.7623,-1.7241,-1.693,-1.5388,-1.3807,-1.297,-1.1224,-0.9367,-0.842,-0.8317,-0.8144,-0.7224,-0.7032,-0.671,-0.5994,-0.5305,-0.473,-0.4497,-0.4015,-0.3378,0.532,0.0,0.5816,0.6086,0.0,0.6169,0.6368,0.6436,0.5791,0.4525,0.2896,0.2508,0.2273,0.2195,0.1804,0.1961,0.2431,0.1963,0.1571,0.1412,0.1099,0.055,-0.0236,-0.0621,-0.0772,-0.0694,-0.0686,-0.1135,-0.1892,-0.268,-0.2966,-0.2679,-0.3044,-0.2448,-0.0834,-0.0153,0.0853,0.2199,0.212,0.2118,0.2198,0.1928,0.1126,-0.0079,-0.1041,0.0,0.0,0.0,0.0,0.0,0.0,0.0,0.0,0.0,0.0,-1.5095,-1.6864,-1.8901,-2.1374,-2.3933,-2.6259,-2.8158,-2.9542,-3.0653,-3.1482,-3.2145,-3.2052,-3.0986,-3.1737,-3.1607,-3.0109,-3.0979,-3.1501,-3.1067,-3.1169,-3.1218,-3.0928,-3.0109,-2.93,-2.8693,-2.7587,-2.6732,-2.6601,-2.7016,-2.7564,-2.7951,-2.4692,-2.1187,-1.9505,-1.6901,-1.3445,-1.1676,-1.4488,-1.7786,-1.8506,-1.8046,-1.752,-1.7044,-1.5154,-1.3411,-1.2546,-1.0435,-0.8581,-0.7807,-0.7471,-0.7015,-0.6438,-0.6092,-0.5818,-0.523,-0.4734,-0.4048,-0.361,-0.3352,-0.2921,0.4996,0.4648,0.5455,0.5542,0.5267,0.5985,0.6078,0.5672,0.0,0.0,0.0,0.2981,0.2588,0.1803,0.1805,0.212,0.2512,0.1962,0.157,0.149,0.1099,0.055,0.0078,-0.0693,-0.1001,-0.0863,-0.0769,-0.1143,-0.1909,-0.2488,-0.261,-0.2369,-0.2754,-0.2317,-0.0835,0.0388,0.1258,0.1807,0.2042,0.2196,0.2196,0.1999,0.1277,-0.0156,-0.0397,-0.1336,-0.2863,-0.3008,-0.343,-0.4252,-0.5709,-0.7021,-0.8078,-1.0592,-1.2828,-1.462,-1.6798,-1.9174,-2.1746,-2.4387,-2.6736,-2.8701,-3.0005,-3.1069,-3.1964,-3.2571,-3.2296,-3.083,-3.0975,-3.0683,-2.9718,-3.0444,-3.1072,-3.1337,-3.1765,-3.1919,-3.16,-3.0553,-2.9501,-2.8905,-2.7744,-2.6977,-2.7265,-2.7518,-2.7923,-2.8336,-2.7642,-2.52,-1.7936,-1.3688,-1.2884,-1.7283,-1.8623,-1.8959,-1.9341,-1.8737,-1.7967,-1.7382,-1.5076,-1.2996,-1.2047,-0.9827,-0.7978,-0.7379,-0.6618,-0.5833,-0.5256,-0.4933,-0.4616,-0.4267,-0.3946,-0.3433,-0.2692,-0.2477,-0.2167,0.4408,0.5463,0.4835,0.4739,0.509,0.5366,0.5426,0.5215,0.5022,0.4419,0.3604,0.3217,0.2824,0.2353,0.2198,0.1962,0.1807,0.2592,0.2434,0.1414,0.1729,0.1336,0.0393,0.0235,-0.0313,-0.1178,-0.1175,-0.1486,-0.2034,-0.2272,-0.2318,-0.2418,-0.2652,-0.205,-0.0607,0.0621,0.1415,0.1651,0.1807,0.2042,0.2196,0.197,0.1405,0.0381,-0.0229,-0.1132,-0.2419,-0.2931,-0.376,-0.5087,-0.6328,-0.7387,-0.832,-1.0942,-1.3255,-1.5024,-1.6716,-1.8998,-2.2092,-2.4198,-2.6291,-2.8421,-2.9459,-3.0248,-3.0912,-3.0731,-3.0234,-2.9438,-3.0351,-3.0582,-2.9542,-3.0376,-3.0919,-3.0508,-3.0429,-3.03,-3.002,-2.9553,-2.9099,-2.8662,-2.8183,-2.7885,-2.7931,-2.7977,-2.8413,-2.9354,-2.8494,-2.669,-2.3148,-1.5915,-1.3759,-1.9024,-2.0305,-2.0049,-2.0346,-1.934,-1.8278,-1.7427,-1.4958,-1.274,-1.1746,-0.9693,-0.783,-0.6713,-0.5978,-0.5146,-0.428,-0.4141,-0.3917,-0.3482,-0.3086,-0.2612,-0.2168,-0.1279,-0.0395,0.3723,0.3568,0.4472,0.4921,0.5006,0.5099,0.5187,0.5122,0.4734,0.4014,0.3059,0.2665,0.2118,0.1491,0.1491,0.1569,0.1648,0.2276,0.2118,0.1334,0.1805,0.1491,0.055,0.0314,-0.0079,-0.0629,-0.11,-0.1493,-0.1808,-0.1885,-0.2029,-0.2238,-0.247,-0.2005,-0.0772,-0.0078,0.0706,0.1415,0.1651,0.1885,0.2195,0.157,0.0859,0.0154,-0.0617,-0.1689,-0.2956,-0.3185,-0.3808,-0.4762,-0.6276,-0.7227,-0.7529,-1.0678,-1.3395,-1.5184,-1.6979,-1.9097,-2.1668,-2.4218,-2.6357,-2.8049,-2.8082,-2.819,-2.8647,-2.9329,-2.9458,-2.8881,-2.9622,-2.9898,-2.9326,-3.0008,-3.0459,-3.0383,-3.0258,-3.0037,-2.9727,-2.9323,-2.9055,-2.8874,-2.8399,-2.8139,-2.8244,-2.8297,-2.837,-2.8818,-2.8009,-2.719,-2.638,-2.2228,-1.956,-2.2402,-2.2247,-2.1652,-2.1473,-2.0098,-1.8746,-1.7675,-1.5319,-1.3085,-1.1422,-0.9446,-0.7752,-0.6175,-0.5137,-0.4191,-0.3317,-0.2979,-0.2717,-0.2256,-0.2063,-0.1679,-0.0895,0.0199,0.11,0.3129,0.1961,0.4111,0.5099,0.5099,0.501,0.5039,0.5031,0.4336,0.336,0.2315,0.198,0.1424,0.0554,0.0709,0.102,0.1412,0.1725,0.1647,0.1412,0.1803,0.1568,0.0785,0.0236,0.0,0.0,-0.0864,-0.1415,-0.1573,-0.1573,-0.1728,-0.2196,-0.2273,-0.1803,-0.094,-0.0627,0.0157,0.1257,0.1415,0.1733,0.2055,0.1108,0.0395,-0.0079,-0.1021,-0.2194,-0.3368,-0.3526,-0.3847,-0.4732,-0.6475,-0.7411,-0.7684,-1.083,-1.3662,-1.5708,-1.726,-1.9127,-2.1224,-2.3974,-2.6065,-2.7057,-2.6503,-2.6221,-2.6478,-2.7557,-2.827,-2.8159,-2.8541,-2.893,-2.9189,-2.9655,-3.0072,-3.0434,-3.0397,-3.022,-2.9969,-2.9568,-2.9301,-2.9214,-2.8724,-2.8394,-2.8434,-2.8394,-2.8197,-2.7798,-2.7449,-2.7191,-2.6898,-2.6683,-2.5979,-2.5,-2.3967,-2.3142,-2.2573,-2.0786,-1.9093,-1.7748,-1.5431,-1.3131,-1.1112,-0.9275,-0.7503,-0.5796,-0.4378,-0.3411,-0.2628,-0.2254,-0.1773,-0.1391,-0.1094,-0.07,0.0403,0.1412,0.2322,0.3133,0.2949,0.3758,0.4565,0.5282,0.5099,0.4956,0.4786,0.3994,0.274,0.1586,0.1798,0.1296,0.0404,0.0317,0.0472,0.0785,0.149,0.1648,0.1414,0.2119,0.2041,0.1178,0.0393,0.0,-0.0079,-0.0864,-0.1415,-0.1573,-0.1415,-0.1649,-0.2117,-0.1881,-0.141,-0.094,-0.0392,0.0392,0.1258,0.1336,0.1429,0.162,0.1053,0.0405,-0.0243,-0.111,-0.2194,-0.3458,-0.3682,-0.4353,-0.5725,-0.7215,-0.862,-0.9989,-1.2176,-1.4526,-1.6868,-1.737,-1.8459,-2.0836,-2.3187,-2.46,-2.4787,-2.4953,-2.4978,-2.4925,-2.5015,-2.549,-2.6415,-2.7206,-2.7975,-2.8765,-2.955,-3.0116,-3.0489,-3.0522,-3.0472,-3.019,-3.0072,-2.9851,-2.9418,-2.9111,-2.9015,-2.8713,-2.8169,-2.7701,-2.7533,-2.7347,-2.724,-2.7205,-2.7056,-2.6703,-2.5953,-2.503,-2.4197,-2.3487,-2.1446,-1.9084,-1.7269,-1.5007,-1.2685,-1.0532,-0.8845,-0.7323,-0.5296,-0.4184,-0.311,-0.2348,-0.1862,-0.1571,-0.0791,-0.0396,0.0,0.1206,0.2223,0.2827,0.3939,0.4111,0.4565,0.5013,0.5371,0.5099,0.4898,0.4689,0.3449,0.2287,0.1393,0.0853,0.0167,-0.0651,-0.0403,-0.008,0.0314,0.1412,0.1647,0.1414,0.2119,0.2119,0.1258,0.0393,0.0079,0.0157,-0.0786,-0.1336,-0.1415,-0.1573,-0.1806,-0.2038,-0.2195,-0.1881,-0.1175,-0.0861,-0.0235,0.0865,0.1131,0.1235,0.0994,0.0409,-0.0163,-0.0568,-0.1631,-0.2697,-0.3515,-0.392,-0.4592,-0.5618,-0.7065,-0.8673,-1.0437,-1.1942,-1.4202,-1.7284,-1.8354,-1.9454,-2.1098,-2.1955,-2.2917,-2.4059,-2.4001,-2.404,-2.4355,-2.4237,-2.4652,-2.5819,-2.6749,-2.771,-2.8742,-2.9587,-3.0217,-3.0526,-3.0645,-3.0586,-3.0344,-3.0114,-2.9815,-2.9438,-2.896,-2.8637,-2.8408,-2.7827,-2.7391,-2.7357,-2.7199,-2.7093,-2.7306,-2.738,-2.715,-2.6497,-2.5532,-2.4391,-2.3323,-2.0793,-1.8452,-1.6605,-1.4587,-1.233,-0.9726,-0.8434,-0.6961,-0.4593,-0.3758,-0.2858,-0.1894,-0.1496,-0.1197,-0.0399,0.0499,0.1001,0.1514,0.2021,0.2424,0.4768,0.5102,0.5282,0.5371,0.5371,0.5099,0.4835,0.4569,0.3224,0.2148,0.134,0.0176,-0.0687,-0.1245,-0.0983,-0.0564,0.0079,0.1101,0.149,0.1414,0.2041,0.1883,0.11,0.0629,0.0236,-0.0,-0.0864,-0.134,-0.1346,-0.1654,-0.189,-0.1976,-0.2362,-0.2117,-0.141,-0.1175,-0.0549,0.0551,0.0982,0.0915,0.0414,-0.0166,-0.058,-0.0828,-0.2007,-0.3026,-0.3697,-0.4114,-0.4782,-0.5616,-0.6971,-0.8639,-1.0421,-1.1729,-1.4078,-1.7503,-1.9063,-2.0106,-2.0955,-2.0903,-2.1572,-2.3039,-2.3103,-2.3256,-2.3673,-2.3822,-2.4368,-2.54,-2.6502,-2.761,-2.8831,-2.9884,-3.0532,-3.0701,-3.0847,-3.0866,-3.0462,-3.0237,-3.0105,-2.9638,-2.9137,-2.8357,-2.7824,-2.745,-2.7321,-2.696,-2.673,-2.6707,-2.6928,-2.696,-2.6791,-2.6102,-2.5061,-2.3937,-2.2644,-2.0137,-1.7787,-1.5851,-1.4041,-1.1785,-0.9099,-0.811,-0.6799,-0.4683,-0.3705,-0.2672,-0.1703,-0.1209,-0.0707,0.0303,0.1112,0.1518,0.1718,0.2021,0.2424,0.5564,0.5563,0.5371,0.5374,0.5371,0.5099,0.4924,0.4659,0.3405,0.2327,0.1342,0.0089,-0.0796,-0.1382,-0.1248,-0.0814,-0.0,0.0475,0.0942,0.1338,0.1729,0.1492,0.0707,0.1022,0.0629,-0.0395,-0.1026,-0.1275,-0.1298,-0.1513,-0.1748,-0.1862,-0.1989,-0.1728,-0.1335,-0.0942,-0.0235,0.0473,0.0645,0.0404,0.0,-0.0504,-0.0777,-0.095,-0.2042,-0.3037,-0.3707,-0.412,-0.4954,-0.6028,-0.7249,-0.869,-1.0355,-1.2117,-1.454,-1.7526,-1.916,-1.9931,-1.9975,-2.0364,-2.0991,-2.1685,-2.2278,-2.2562,-2.3017,-2.3611,-2.4312,-2.5109,-2.6385,-2.7638,-2.9042,-3.0311,-3.1057,-3.0875,-3.1404,-3.1324,-3.0595,-3.0825,-3.0715,-3.015,-2.9595,-2.8537,-2.6796,-2.7163,-2.7075,-2.6549,-2.6111,-2.5988,-2.6032,-2.578,-2.5348,-2.4505,-2.3473,-2.2402,-2.2125,-1.9697,-1.7105,-1.5238,-1.3275,-1.13,-0.9558,-0.7823,-0.6278,-0.4762,-0.3466,-0.2405,-0.1512,-0.0708,0.0,0.071,0.1222,0.1629,0.1844,0.2433,0.2733,0.5768,0.5668,0.5572,0.5348,0.5191,0.5191,0.5102,0.4743,0.3492,0.2686,0.197,-0.0,-0.1161,-0.1416,-0.1378,-0.0837,-0.0,0.0396,0.087,0.1284,0.1685,0.1456,0.0656,0.0567,0.0162,-0.0491,-0.1052,-0.1302,-0.1328,-0.1402,-0.1403,-0.1576,-0.1814,-0.1711,-0.1369,-0.1123,-0.0717,-0.0158,0.0322,0.0163,-0.0575,-0.0852,-0.1049,-0.1506,-0.2377,-0.3154,-0.3853,-0.4461,-0.5328,-0.6538,-0.7371,-0.8837,-1.0984,-1.3612,-1.5683,-1.7063,-1.8635,-1.9475,-1.9477,-2.0335,-2.0978,-2.129,-2.2189,-2.2769,-2.3091,-2.3775,-2.464,-2.5576,-2.6684,-2.7911,-2.9007,-3.0094,-3.0928,-3.145,-3.1733,-3.1928,-3.1901,-3.1484,-3.081,-3.0194,-2.9412,-2.8129,-2.7052,-2.7018,-2.7115,-2.6404,-2.6042,-2.5839,-2.5647,-2.5693,-2.5224,-2.3706,-2.2666,-2.1648,-1.9995,-1.8311,-1.625,-1.4504,-1.2613,-1.0649,-0.8861,-0.7389,-0.5926,-0.4395,-0.3192,-0.222,-0.1317,-0.041,0.0308,0.0824,0.1342,0.1763,0.2092,0.2482,0.2674,0.5834,0.555,0.5448,0.5292,0.5196,0.5371,0.528,0.483,0.358,0.2955,0.2418,0.0,-0.1256,-0.1251,-0.123,-0.0772,-0.0,0.0406,0.081,0.1234,0.1398,0.1077,0.0419,-0.0,-0.0415,-0.0755,-0.1079,-0.1332,-0.1356,-0.1352,-0.1353,-0.1361,-0.1689,-0.1665,-0.1308,-0.1146,-0.0894,-0.0561,-0.0163,-0.0332,-0.101,-0.1117,-0.1487,-0.2128,-0.2858,-0.3492,-0.4208,-0.4832,-0.5808,-0.6953,-0.7746,-0.9139,-1.1718,-1.4441,-1.6261,-1.6962,-1.8073,-1.8948,-1.9328,-2.0172,-2.0797,-2.1071,-2.2002,-2.2742,-2.3141,-2.3955,-2.4923,-2.6038,-2.7259,-2.8406,-2.9514,-3.0318,-3.0898,-3.152,-3.1753,-3.1914,-3.2086,-3.142,-3.0637,-2.991,-2.9353,-2.8207,-2.691,-2.7222,-2.7047,-2.639,-2.6196,-2.609,-2.5656,-2.5508,-2.5013,-2.3038,-2.1857,-2.0542,-1.8894,-1.7147,-1.5516,-1.3776,-1.2567,-1.048,-0.8663,-0.7256,-0.5769,-0.4223,-0.2992,-0.2118,-0.1123,-0.0207,0.0522,0.0943,0.1471,0.2003,0.2218,0.2425,0.2721,0.5657,0.5475,0.5267,0.5225,0.541,0.5494,0.5295,0.4855,0.3857,0.3328,0.2619,0.0359,-0.0808,-0.0985,-0.1058,-0.0696,0.0,0.0425,0.0843,0.118,0.0842,0.0422,-0.0,-0.0422,-0.0842,-0.1184,-0.1266,-0.1365,-0.1388,-0.1369,-0.1369,-0.1382,-0.1367,-0.1344,-0.1306,-0.1,-0.0749,-0.0738,-0.0664,-0.084,-0.118,-0.1547,-0.2002,-0.2535,-0.3372,-0.4208,-0.475,-0.5369,-0.6334,-0.757,-0.8189,-0.9836,-1.2316,-1.4511,-1.5986,-1.7061,-1.7809,-1.8577,-1.951,-1.9839,-2.0388,-2.0944,-2.1753,-2.267,-2.3487,-2.4142,-2.5164,-2.6691,-2.8004,-2.9279,-3.0508,-3.1176,-3.1376,-3.0957,-3.1563,-3.1532,-3.1022,-3.0747,-3.0364,-2.9428,-2.9283,-2.8774,-2.7438,-2.7442,-2.759,-2.6727,-2.6723,-2.6539,-2.5504,-2.5138,-2.4238,-2.2499,-2.0927,-1.9437,-1.7802,-1.6198,-1.4699,-1.3234,-1.2232,-1.0806,-0.9196,-0.7675,-0.6429,-0.4866,-0.3123,-0.2141,-0.0727,0.021,0.0744,0.1174,0.1711,0.2147,0.2473,0.2683,0.2963,0.5871,0.5774,0.5671,0.5606,0.5603,0.5786,0.5508,0.5032,0.4883,0.4154,0.2693,0.0727,-0.0633,-0.1184,-0.1256,-0.0711,0.0355,0.0894,0.1063,0.0865,0.0689,0.026,-0.035,-0.0606,-0.0947,-0.1295,-0.1399,-0.1412,-0.1417,-0.1411,-0.1414,-0.1417,-0.1412,-0.1392,-0.1362,-0.1285,-0.1185,-0.1148,-0.1166,-0.1262,-0.1516,-0.1976,-0.2536,-0.3279,-0.3838,-0.4654,-0.5638,-0.5988,-0.6779,-0.8017,-0.8368,-0.9749,-1.2395,-1.4636,-1.6048,-1.6893,-1.7947,-1.8571,-1.8984,-1.9839,-2.0549,-2.1187,-2.2237,-2.3403,-2.446,-2.5277,-2.6398,-2.7882,-2.9155,-3.0341,-3.1243,-3.153,-3.1835,-3.2421,-3.2133,-3.193,-3.1723,-3.1065,-2.983,-2.8663,-2.88,-2.8531,-2.7817,-2.8068,-2.8048,-2.7211,-2.7365,-2.6905,-2.5096,-2.4641,-2.3557,-2.1386,-1.9899,-1.8594,-1.7098,-1.5708,-1.4275,-1.3039,-1.1971,-1.0879,-0.9426,-0.8261,-0.6908,-0.5322,-0.3564,-0.207,-0.0633,0.0214,0.054,0.1198,0.1531,0.2085,0.2751,0.3058,0.3018,0.5976,0.5874,0.5871,0.5904,0.5897,0.5992,0.5611,0.4937,0.4889,0.4145,0.2645,0.0829,-0.0276,-0.0836,-0.1282,-0.0821,0.0092,0.0558,0.0554,0.0451,0.045,-0.0,-0.0725,-0.0896,-0.115,-0.1322,-0.1426,-0.1436,-0.1436,-0.1436,-0.1436,-0.1436,-0.1436,-0.1419,-0.1395,-0.14,-0.1378,-0.1332,-0.1349,-0.1534,-0.1879,-0.2416,-0.2983,-0.3746,-0.4563,-0.5369,-0.6083,-0.6612,-0.7404,-0.8372,-0.924,-1.0869,-1.3014,-1.4657,-1.5986,-1.6971,-1.7693,-1.8302,-1.898,-1.9744,-2.0613,-2.1302,-2.2421,-2.3599,-2.4723,-2.5719,-2.6763,-2.8375,-2.9776,-3.106,-3.2071,-3.2232,-3.2518,-3.3124,-3.2085,-3.1555,-3.1517,-3.077,-2.963,-2.8706,-2.8887,-2.8816,-2.8478,-2.8443,-2.8558,-2.8062,-2.7842,-2.7169,-2.5126,-2.4345,-2.2623,-2.0833,-1.9353,-1.7941,-1.6573,-1.5198,-1.3818,-1.2773,-1.1722,-1.0589,-0.9254,-0.8627,-0.7569,-0.5512,-0.3739,-0.2753,-0.1508,-0.0873,-0.0331,0.0444,0.1224,0.1669,0.2112,0.2776,0.2964,0.5986,0.5889,0.5881,0.6026,0.613,0.6127,0.5653,0.4875,0.4193,0.344,0.2479,0.0843,0.0,0.0,-0.0748,-0.0748,-0.057,-0.0381,-0.0285,-0.0095,-0.0095,-0.0378,-0.0928,-0.129,-0.1366,-0.1261,-0.1346,-0.1346,-0.1436,-0.1436,-0.1436,-0.1436,-0.1434,-0.1423,-0.1491,-0.1421,-0.1488,-0.1615,-0.1547,-0.1819,-0.2254,-0.2959,-0.3599,-0.4111,-0.5277,-0.6083,-0.6349,-0.7319,-0.8201,-0.8894,-1.0717,-1.2345,-1.3522,-1.4518,-1.5756,-1.7187,-1.7261,-1.8128,-1.9206,-1.9609,-2.0237,-2.1416,-2.2372,-2.3308,-2.4799,-2.5878,-2.7079,-2.8867,-3.0368,-3.1807,-3.3007,-3.313,-3.3041,-3.2756,-3.1508,-3.0417,-2.9514,-2.9646,-2.9323,-2.8872,-2.9384,-2.9871,-2.8993,-2.9079,-2.9108,-2.8713,-2.8219,-2.7174,-2.5469,-2.4003,-2.2391,-2.0682,-1.8894,-1.7454,-1.6004,-1.4636,-1.3314,-1.2215,-1.1198,-1.0085,-0.9091,-0.8445,-0.7415,-0.5514,-0.4131,-0.3239,-0.2407,-0.1547,-0.1002,-0.0447,0.0224,0.0897,0.1568,0.2122,0.2664,0.5997,0.6297,0.6098,0.6077,0.6347,0.6344,0.5753,0.4858,0.4206,0.3236,0.1871,0.0576,0.0,0.0,0.0477,0.0095,-0.067,-0.0291,-0.0193,-0.0576,-0.0787,-0.0975,-0.1233,-0.1398,-0.1293,-0.0917,-0.0906,-0.1077,-0.1346,-0.1348,-0.1347,-0.1436,-0.1436,-0.17,-0.2045,-0.1675,-0.2005,-0.2762,-0.2507,-0.269,-0.3304,-0.3963,-0.4623,-0.5267,-0.5813,-0.6349,-0.6874,-0.8101,-0.9152,-0.9941,-1.1499,-1.2869,-1.3704,-1.4713,-1.5951,-1.7049,-1.7407,-1.7841,-1.902,-1.9524,-2.0216,-2.1518,-2.2651,-2.4239,-2.6226,-2.7485,-2.8997,-3.0728,-3.2175,-3.3217,-3.4099,-3.3829,-3.2877,-3.1274,-3.0524,-2.9874,-2.9382,-2.9439,-2.9376,-2.8682,-2.9626,-2.9884,-2.9845,-2.9935,-3.0067,-2.9307,-2.8434,-2.7496,-2.5428,-2.3327,-2.1563,-2.0,-1.8362,-1.6931,-1.5602,-1.4187,-1.2888,-1.1693,-1.0654,-0.9464,-0.855,-0.7899,-0.6453,-0.4817,-0.4206,-0.3395,-0.2531,-0.1662,-0.1337,-0.1342,-0.0444,0.0332,0.1005,0.1566,0.2111,0.6225,0.6507,0.6261,0.6239,0.6437,0.6445,0.5749,0.4937,0.4897,0.3696,0.1803,0.049,-0.0293,-0.0495,0.0584,0.0582,-0.049,-0.0299,-0.0298,-0.059,-0.12,-0.1488,-0.1453,-0.1334,-0.0945,-0.0468,0.0,-0.055,-0.082,-0.0909,-0.1181,-0.1361,-0.1441,-0.1621,-0.1996,-0.1958,-0.1927,-0.2527,-0.271,-0.3155,-0.3564,-0.4601,-0.5356,-0.5899,-0.6257,-0.6874,-0.7753,-0.8886,-0.984,-1.0717,-1.1837,-1.2948,-1.4048,-1.4999,-1.6018,-1.7072,-1.7269,-1.7836,-1.8769,-1.9328,-2.0183,-2.1451,-2.282,-2.4471,-2.6177,-2.786,-2.9494,-3.101,-3.2469,-3.3518,-3.3953,-3.3466,-3.2151,-3.0704,-3.0106,-2.9851,-2.9431,-2.9942,-2.9892,-2.9694,-3.005,-3.0764,-3.0506,-3.0789,-3.0528,-2.9894,-2.8569,-2.6979,-2.508,-2.2838,-2.0829,-1.9236,-1.7762,-1.6411,-1.505,-1.3725,-1.2291,-1.1139,-0.9728,-0.8619,-0.7889,-0.7118,-0.6125,-0.4868,-0.4269,-0.3646,-0.2993,-0.2442,-0.244,-0.2105,-0.1208,-0.0439,0.0222,0.0671,0.1332,0.6543,0.6716,0.6513,0.6358,0.6245,0.6366,0.5667,0.4949,0.5761,0.4345,0.161,0.0298,-0.0696,-0.1513,0.0099,0.0497,0.0101,-0.0513,-0.0716,-0.1015,-0.152,-0.1807,-0.1677,-0.1173,-0.0581,0.0,0.0,0.0,0.0,-0.0371,-0.065,-0.1109,-0.1275,-0.1546,-0.1827,-0.2076,-0.195,-0.2193,-0.2644,-0.3265,-0.3944,-0.5053,-0.5808,-0.6257,-0.67,-0.7316,-0.8189,-0.9231,-1.0183,-1.0869,-1.1826,-1.3118,-1.4482,-1.5369,-1.6152,-1.6765,-1.731,-1.781,-1.8711,-1.9493,-2.0264,-2.1614,-2.3075,-2.4361,-2.601,-2.7765,-2.9386,-3.1029,-3.2036,-3.2921,-3.3098,-3.2422,-3.1511,-3.0522,-3.0265,-3.0148,-3.0217,-3.0642,-3.0871,-3.0623,-3.0925,-3.1506,-3.1465,-3.1177,-3.062,-3.013,-2.8651,-2.6608,-2.4541,-2.2285,-2.0356,-1.8556,-1.7179,-1.5791,-1.4494,-1.3227,-1.1732,-1.0351,-0.8765,-0.754,-0.6896,-0.6195,-0.5672,-0.5009,-0.4416,-0.4117,-0.3907,-0.3567,-0.3326,-0.2873,-0.198,-0.1318,-0.077,-0.0333,0.0222,0.6556,0.673,0.6692,0.6097,0.5363,0.6141,0.5419,0.3841,0.5571,0.3843,0.0807,-0.0804,-0.1308,-0.1516,-0.0201,-0.0,-0.0927,-0.0829,-0.1034,-0.2066,-0.1755,-0.2044,-0.1908,-0.1288,-0.0588,0.0,0.0,0.0,0.0,0.0189,0.0189,-0.0472,-0.1297,-0.1839,-0.2301,-0.2331,-0.2822,-0.3187,-0.326,-0.3791,-0.4879,-0.552,-0.6257,-0.6789,-0.7061,-0.7234,-0.7665,-0.8969,-1.0009,-1.0702,-1.2003,-1.33,-1.4314,-1.4992,-1.5913,-1.6927,-1.735,-1.8213,-1.9605,-1.9919,-2.0595,-2.2639,-2.3795,-2.5122,-2.72,-2.8754,-3.0342,-3.1718,-3.2525,-3.2779,-3.2547,-3.2023,-3.1351,-3.0753,-3.058,-3.0695,-3.0963,-3.1073,-3.0924,-3.0829,-3.1496,-3.2144,-3.1833,-3.2039,-3.1369,-3.0393,-2.8437,-2.6276,-2.3985,-2.1671,-1.967,-1.7811,-1.6477,-1.5139,-1.3514,-1.2164,-1.0542,-0.9308,-0.7925,-0.6483,-0.5813,-0.5615,-0.5163,-0.4928,-0.4569,-0.4255,-0.3921,-0.3557,-0.3092,-0.2869,-0.2757,-0.2092,-0.1542,-0.1218,-0.0778,0.6505,0.6925,0.6674,0.6315,0.5906,0.5594,0.5161,0.4502,0.3547,0.1919,-0.0404,-0.1414,-0.1617,-0.1517,-0.0612,-0.0515,-0.1142,-0.1047,-0.1372,-0.2115,-0.1993,-0.1963,-0.1943,-0.1408,0.0,0.0,0.0,0.0,0.0,0.0097,-0.0192,-0.0856,-0.1214,-0.1675,-0.2421,-0.2433,-0.2508,-0.2798,-0.3207,-0.3899,-0.5087,-0.5811,-0.6435,-0.7074,-0.7464,-0.7845,-0.8288,-0.9579,-1.0544,-1.1241,-1.2277,-1.3307,-1.4062,-1.4803,-1.5734,-1.6621,-1.7809,-1.8647,-1.9748,-2.0463,-2.1352,-2.3555,-2.4689,-2.6371,-2.8248,-3.002,-3.1163,-3.2106,-3.2753,-3.3111,-3.2552,-3.1813,-3.1335,-3.1205,-3.1139,-3.1379,-3.1685,-3.155,-3.1288,-3.1222,-3.1893,-3.2249,-3.237,-3.2385,-3.1455,-3.0146,-2.7357,-2.5172,-2.2981,-2.0713,-1.8811,-1.6998,-1.5833,-1.4366,-1.2693,-1.0956,-0.9087,-0.8021,-0.7027,-0.5595,-0.4564,-0.4654,-0.4845,-0.45,-0.4136,-0.3696,-0.3358,-0.2996,-0.2978,-0.2969,-0.2859,-0.2644,-0.2317,-0.1765,-0.1332,0.6422,0.7157,0.6642,0.6635,0.6592,0.482,0.4477,0.4769,0.1527,-0.0404,-0.1415,-0.1617,-0.162,-0.1426,-0.0927,-0.0728,-0.1052,-0.1387,-0.1842,-0.2166,-0.2126,-0.189,-0.1665,-0.1436,0.0,0.0,0.0,0.0,0.0,-0.0591,-0.1175,-0.2018,-0.1502,-0.1788,-0.2362,-0.2491,-0.2368,-0.2312,-0.2838,-0.372,-0.4809,-0.5623,-0.6256,-0.7182,-0.7967,-0.8497,-0.9017,-1.0133,-1.1276,-1.1922,-1.2428,-1.3022,-1.3867,-1.472,-1.5621,-1.6237,-1.7789,-1.9232,-2.0242,-2.1021,-2.2092,-2.4251,-2.5331,-2.7051,-2.8955,-3.0321,-3.1199,-3.207,-3.2705,-3.3275,-3.2812,-3.2141,-3.1691,-3.1672,-3.181,-3.213,-3.2474,-3.2258,-3.2196,-3.2242,-3.2786,-3.3152,-3.2648,-3.2285,-3.1134,-2.9585,-2.6736,-2.4103,-2.1876,-1.978,-1.7774,-1.5977,-1.4682,-1.2831,-1.1118,-0.9784,-0.7918,-0.7027,-0.6132,-0.4989,-0.3724,-0.3771,-0.3948,-0.3845,-0.346,-0.3131,-0.2914,-0.2794,-0.2776,-0.2972,-0.2863,-0.2549,-0.2433,-0.2198,-0.1884,0.6603,0.7183,0.6843,0.634,0.5545,0.4244,0.3153,0.2074,-0.0102,-0.1415,-0.1618,-0.1618,-0.1633,-0.1548,-0.1139,-0.1054,-0.1401,-0.1864,-0.2096,-0.2195,-0.1948,-0.172,-0.1697,-0.1561,-0.1136,0.0,0.0,0.0,-0.2914,-0.2813,-0.2592,-0.317,-0.2987,-0.2776,-0.2781,-0.3014,-0.2883,-0.2364,-0.2728,-0.3558,-0.486,-0.5619,-0.636,-0.7482,-0.8359,-0.8754,-0.9125,-1.0443,-1.1563,-1.1561,-1.2323,-1.3112,-1.403,-1.4979,-1.5726,-1.6553,-1.8043,-1.9643,-2.0943,-2.1341,-2.2926,-2.4751,-2.5585,-2.6749,-2.8755,-2.9876,-3.1149,-3.2072,-3.2656,-3.2804,-3.1936,-3.2083,-3.2145,-3.2195,-3.2403,-3.2841,-3.3556,-3.3692,-3.3589,-3.3596,-3.396,-3.3938,-3.3102,-3.199,-3.0604,-2.8691,-2.5815,-2.3054,-2.0537,-1.8637,-1.6771,-1.5057,-1.3502,-1.1389,-0.9308,-0.8216,-0.6927,-0.6229,-0.534,-0.4465,-0.3496,-0.3211,-0.3064,-0.303,-0.3094,-0.29,-0.2683,-0.2464,-0.2456,-0.2544,-0.2443,-0.2455,-0.2337,-0.233,-0.2336,0.6426,0.6891,0.6672,0.6076,0.519,0.3738,0.2213,0.0622,-0.0917,-0.1626,-0.1637,-0.1642,-0.1656,-0.1677,-0.1578,-0.171,-0.1967,-0.2004,-0.2231,-0.2215,-0.1757,-0.1527,-0.1616,-0.158,-0.2082,0.0,0.0,-0.303,-0.4551,-0.4041,-0.3922,-0.4168,-0.3896,-0.3498,-0.3401,-0.3242,-0.3235,-0.2886,-0.2877,-0.3618,-0.5329,-0.6032,-0.7193,-0.8092,-0.8977,-0.9495,-1.0117,-1.1227,-1.2268,-1.253,-1.3219,-1.3926,-1.4724,-1.549,-1.6323,-1.6934,-1.8362,-2.002,-2.1435,-2.1886,-2.3329,-2.5385,-2.6073,-2.7626,-2.9748,-3.1225,-3.2141,-3.312,-3.341,-3.34,-3.2995,-3.2884,-3.3013,-3.3313,-3.3315,-3.3688,-3.4363,-3.4639,-3.4719,-3.4751,-3.4559,-3.4086,-3.319,-3.1883,-3.025,-2.7776,-2.4879,-2.2083,-1.9277,-1.7175,-1.5226,-1.3442,-1.1808,-1.0277,-0.8425,-0.7329,-0.6232,-0.5532,-0.4535,-0.3655,-0.3063,-0.2572,-0.2493,-0.2535,-0.248,-0.254,-0.2444,-0.2222,-0.2222,-0.2113,-0.223,-0.2348,-0.2353,-0.2356,-0.2245,0.633,0.6806,0.6548,0.5978,0.5241,0.3953,0.1896,-0.0208,-0.1128,-0.1541,-0.1669,-0.1672,-0.1686,-0.1816,-0.2046,-0.2282,-0.2531,-0.2011,-0.2017,-0.201,-0.1542,-0.1422,-0.1627,-0.1698,-0.2181,-0.4042,-0.4387,-0.4857,-0.4956,-0.4649,-0.4906,-0.4864,-0.4239,-0.4134,-0.4219,-0.3871,-0.3595,-0.3509,-0.3597,-0.4137,-0.5593,-0.7006,-0.8193,-0.8835,-0.971,-1.0369,-1.0939,-1.221,-1.3026,-1.3525,-1.4126,-1.494,-1.5507,-1.6488,-1.7183,-1.7631,-1.8914,-2.0235,-2.1497,-2.2485,-2.3759,-2.5872,-2.7189,-2.8727,-3.0646,-3.2305,-3.4119,-3.4675,-3.5009,-3.4433,-3.3915,-3.4069,-3.4111,-3.4054,-3.4214,-3.4534,-3.5149,-3.5473,-3.5419,-3.5275,-3.4996,-3.433,-3.342,-3.1328,-2.96,-2.6713,-2.3812,-2.0487,-1.7713,-1.5303,-1.332,-1.1492,-0.9964,-0.8966,-0.7733,-0.6833,-0.5832,-0.5031,-0.3929,-0.2832,-0.2337,-0.1839,-0.1859,-0.1986,-0.2024,-0.2068,-0.1971,-0.1987,-0.1994,-0.2001,-0.2121,-0.2127,-0.213,-0.2022,-0.2025,0.6589,0.7127,0.6717,0.6129,0.5224,0.4872,0.2417,-0.1271,-0.1145,-0.1255,-0.1692,-0.1699,-0.1714,-0.185,-0.2101,-0.2229,-0.2123,-0.2015,-0.1795,-0.1903,-0.1436,-0.1425,-0.1635,-0.0634,-0.2188,-0.4254,-0.47,-0.4962,-0.5164,-0.4958,-0.4941,-0.5005,-0.4952,-0.4839,-0.469,-0.4724,-0.4927,-0.4798,-0.4999,-0.5584,-0.6473,-0.7483,-0.8364,-0.9151,-0.9934,-1.0651,-1.1422,-1.262,-1.3614,-1.4081,-1.4654,-1.5599,-1.674,-1.7611,-1.8302,-1.8859,-1.9645,-2.0572,-2.19,-2.2949,-2.4132,-2.5883,-2.6986,-2.8301,-3.0858,-3.302,-3.4541,-3.4245,-3.5528,-3.5763,-3.4949,-3.5453,-3.5224,-3.4998,-3.5007,-3.5535,-3.6116,-3.5887,-3.5882,-3.5633,-3.5265,-3.4513,-3.371,-3.1219,-2.8795,-2.577,-2.2659,-1.9246,-1.6154,-1.3684,-1.147,-0.9668,-0.9056,-0.8127,-0.7266,-0.6358,-0.5434,-0.4531,-0.3337,-0.2127,-0.1734,-0.1335,-0.1442,-0.1566,-0.1594,-0.1719,-0.1835,-0.1853,-0.1874,-0.1887,-0.1892,-0.19,-0.1794,-0.1799,-0.1695,0.6877,0.7152,0.6376,0.458,0.2505,0.2793,0.1273,-0.1156,-0.146,-0.146,-0.1682,-0.1699,-0.1936,-0.219,-0.2339,-0.2342,-0.2333,-0.2011,-0.1795,-0.1794,-0.1557,-0.1545,-0.1637,-0.1495,-0.2417,-0.3421,-0.4639,-0.5342,-0.5419,-0.5271,-0.5142,-0.5238,-0.53,-0.539,-0.5238,-0.5392,-0.5596,-0.5722,-0.6029,-0.6229,-0.6728,-0.7826,-0.9019,-0.9604,-1.0605,-1.1264,-1.2014,-1.3131,-1.3942,-1.4492,-1.5355,-1.665,-1.7582,-1.8411,-1.9201,-2.0061,-2.0752,-2.1463,-2.2093,-2.3323,-2.4582,-2.5767,-2.7201,-2.9592,-3.2524,-3.4655,-3.6017,-3.6581,-3.7063,-3.6849,-3.6084,-3.6403,-3.6185,-3.6006,-3.5933,-3.603,-3.6406,-3.6316,-3.6114,-3.5833,-3.5432,-3.4503,-3.3262,-3.0889,-2.8051,-2.4881,-2.1415,-1.7763,-1.4643,-1.1812,-0.9736,-0.7708,-0.7698,-0.7766,-0.6888,-0.609,-0.5039,-0.4039,-0.2661,-0.1745,-0.1237,-0.1036,-0.1041,-0.1263,-0.1395,-0.1508,-0.1714,-0.174,-0.1776,-0.1778,-0.1774,-0.1785,-0.1797,-0.1704,-0.1597,0.7013,0.6998,0.634,0.3911,0.0763,0.0543,-0.0322,-0.1582,-0.1677,-0.1682,-0.1698,-0.172,-0.2066,-0.2411,-0.2335,-0.2343,-0.2539,-0.2009,-0.1793,-0.1794,-0.1785,-0.1654,-0.1956,-0.2137,-0.2952,-0.3322,-0.5116,-0.5822,-0.5774,-0.563,-0.5491,-0.5477,-0.5644,-0.5737,-0.5939,-0.6032,-0.6234,-0.693,-0.7132,-0.7129,-0.7425,-0.8619,-0.9509,-1.028,-1.1016,-1.1804,-1.2614,-1.3466,-1.4041,-1.5184,-1.6325,-1.7501,-1.8321,-1.9385,-2.0042,-2.087,-2.1686,-2.2262,-2.2745,-2.3585,-2.4671,-2.5842,-2.7676,-3.0607,-3.406,-3.6324,-3.7191,-3.7332,-3.8408,-3.8202,-3.7804,-3.7333,-3.7257,-3.7106,-3.6894,-3.6766,-3.6591,-3.6498,-3.6225,-3.5791,-3.5146,-3.4012,-3.2541,-3.0299,-2.7442,-2.4066,-2.0311,-1.6312,-1.3047,-0.9987,-0.8414,-0.6686,-0.6768,-0.6908,-0.6078,-0.5275,-0.4442,-0.3455,-0.2164,-0.1249,-0.0732,-0.0631,-0.074,-0.0857,-0.1194,-0.141,-0.1513,-0.165,-0.1676,-0.1665,-0.1549,-0.1674,-0.169,-0.1598,-0.15,0.6885,0.6989,0.6998,0.5283,0.2507,-0.043,-0.1617,-0.1733,-0.1712,-0.1731,-0.1765,-0.178,-0.2091,-0.2316,-0.2225,-0.2241,-0.2686,-0.2018,-0.1907,-0.1785,-0.1767,-0.1746,-0.2155,-0.3095,-0.4443,-0.5328,-0.6008,-0.6213,-0.6246,-0.612,-0.6097,-0.6087,-0.6186,-0.6052,-0.6242,-0.6742,-0.7135,-0.7832,-0.8028,-0.8531,-0.8924,-0.9719,-1.0207,-1.0742,-1.1168,-1.1775,-1.2918,-1.3604,-1.4543,-1.5812,-1.6971,-1.7993,-1.8852,-2.0129,-2.0832,-2.1233,-2.2326,-2.2745,-2.3018,-2.4051,-2.524,-2.6351,-2.8544,-3.167,-3.4767,-3.6177,-3.6733,-3.7147,-3.8569,-3.8988,-3.862,-3.8357,-3.8177,-3.7872,-3.7448,-3.6998,-3.68,-3.6724,-3.6422,-3.581,-3.492,-3.3833,-3.157,-2.9342,-2.6383,-2.3099,-1.812,-1.3944,-1.0986,-0.8315,-0.7311,-0.6192,-0.6195,-0.5945,-0.4966,-0.4159,-0.3582,-0.2686,-0.1464,-0.0739,-0.0213,0.0,0.0,-0.0757,-0.0983,-0.1201,-0.1312,-0.1441,-0.145,-0.1326,-0.1437,-0.1681,-0.1478,-0.1154,-0.1167,0.6661,0.6761,0.5645,0.4259,0.2657,0.011,-0.1207,-0.1748,-0.1737,-0.1742,-0.1766,-0.1749,-0.1974,-0.2107,-0.2009,-0.2019,-0.2356,-0.2019,-0.1795,-0.1793,-0.1778,-0.1858,-0.2376,-0.3214,-0.4269,-0.5575,-0.6283,-0.6427,-0.6325,-0.6419,-0.6777,-0.6816,-0.6807,-0.6756,-0.7039,-0.754,-0.8131,-0.8223,-0.8627,-0.9133,-0.9422,-1.0498,-1.1082,-1.1258,-1.2501,-1.2944,-1.3525,-1.4199,-1.4952,-1.5886,-1.7243,-1.8211,-1.9089,-2.0428,-2.1041,-2.1359,-2.2476,-2.2835,-2.3317,-2.4545,-2.6188,-2.9012,-3.1189,-3.3521,-3.5739,-3.7282,-3.8151,-3.8649,-3.8757,-3.895,-3.9124,-3.8813,-3.8584,-3.8296,-3.7861,-3.7339,-3.701,-3.6877,-3.6419,-3.5695,-3.4798,-3.3739,-3.1088,-2.8286,-2.5206,-2.1897,-1.6695,-1.2061,-0.9331,-0.7134,-0.6295,-0.5629,-0.5534,-0.4914,-0.3933,-0.3322,-0.271,-0.1788,-0.085,-0.0429,0.0,0.0,0.0,0.0,-0.0881,-0.1105,-0.1221,-0.134,-0.134,-0.1444,-0.1564,-0.1696,-0.1377,-0.0816,-0.0708,0.6399,0.6388,0.4579,0.3197,0.2011,0.0112,-0.1114,-0.1654,-0.1752,-0.1744,-0.1737,-0.1731,-0.1855,-0.2,-0.1904,-0.1907,-0.2132,-0.1907,-0.1795,-0.179,-0.1778,-0.2085,-0.2608,-0.3458,-0.4534,-0.5746,-0.6256,-0.6536,-0.6642,-0.6749,-0.6967,-0.7259,-0.7452,-0.75,-0.7637,-0.8237,-0.8726,-0.8715,-0.8817,-0.9624,-0.9916,-1.0988,-1.1858,-1.2093,-1.3097,-1.3779,-1.4166,-1.4764,-1.5455,-1.6369,-1.7538,-1.8585,-1.9362,-2.0197,-2.1065,-2.1611,-2.2107,-2.2648,-2.364,-2.5266,-2.7541,-3.0544,-3.2859,-3.511,-3.701,-3.8118,-3.8623,-3.8402,-3.8499,-3.8804,-3.9219,-3.8748,-3.8658,-3.8364,-3.8036,-3.7557,-3.713,-3.6882,-3.6271,-3.557,-3.4516,-3.3255,-2.9149,-2.5957,-2.1826,-1.8745,-1.491,-1.0927,-0.8654,-0.6852,-0.5844,-0.5265,-0.4767,-0.3926,-0.2974,-0.2224,-0.1587,-0.1285,-0.0541,-0.0327,0.0,0.0,0.0,0.0,-0.078,-0.1008,-0.1234,-0.1346,-0.1458,-0.1569,-0.1697,-0.1718,-0.1276,-0.0825,-0.0478,0.6081,0.5753,0.4123,0.2536,0.1005,-0.0896,-0.1793,-0.1785,-0.1761,-0.1739,-0.1729,-0.1762,-0.1771,-0.1768,-0.1787,-0.1906,-0.2019,-0.1907,-0.1795,-0.179,-0.177,-0.241,-0.327,-0.4132,-0.4864,-0.6236,-0.6598,-0.6697,-0.6929,-0.6912,-0.7118,-0.7586,-0.7975,-0.8237,-0.8045,-0.8038,-0.863,-0.9414,-0.9316,-1.0207,-1.0998,-1.1775,-1.2446,-1.3126,-1.3635,-1.428,-1.4856,-1.5182,-1.6002,-1.7154,-1.8172,-1.9182,-2.0,-2.0732,-2.1257,-2.1512,-2.1953,-2.2832,-2.4131,-2.6337,-2.9193,-3.1942,-3.4145,-3.6051,-3.7046,-3.8007,-3.8763,-3.8716,-3.8666,-3.8865,-3.8718,-3.8403,-3.8548,-3.8415,-3.8122,-3.7592,-3.7148,-3.6561,-3.588,-3.4756,-3.3932,-3.2414,-2.7763,-2.3305,-1.8656,-1.5032,-1.2195,-0.9821,-0.7924,-0.6417,-0.5378,-0.4669,-0.4061,-0.3114,-0.2149,-0.1179,-0.0537,-0.0435,0.0,0.0,0.0,0.0,0.0,-0.0449,-0.0788,-0.113,-0.1353,-0.1573,-0.1471,-0.137,-0.1609,-0.1626,-0.1058,-0.0596,-0.0242,0.5716,0.555,0.3842,0.1895,-0.0224,-0.1346,-0.1795,-0.1789,-0.1765,-0.1755,-0.1763,-0.1771,-0.1775,-0.178,-0.1787,-0.1907,-0.1907,-0.1907,-0.1795,-0.1791,-0.1762,-0.2389,-0.3347,-0.4203,-0.5139,-0.5974,-0.6365,-0.6614,-0.6728,-0.6831,-0.7348,-0.7778,-0.8539,-0.9183,-0.9339,-0.9327,-0.962,-0.9916,-1.0306,-1.0895,-1.1385,-1.2446,-1.3494,-1.404,-1.4406,-1.492,-1.5611,-1.593,-1.6695,-1.7762,-1.8709,-1.9757,-2.0426,-2.1081,-2.1735,-2.2115,-2.2595,-2.3881,-2.6207,-2.8792,-3.1572,-3.3544,-3.5496,-3.7644,-3.9457,-4.0072,-3.9978,-3.9489,-3.9613,-3.9626,-3.9082,-3.8802,-3.8743,-3.8446,-3.8034,-3.7283,-3.6728,-3.6041,-3.5239,-3.3758,-3.2682,-2.9338,-2.52,-2.1617,-1.7223,-1.4096,-1.1553,-0.9611,-0.7716,-0.6037,-0.4671,-0.3951,-0.3225,-0.2382,-0.1522,-0.0764,-0.0328,-0.0331,0.0,0.0,0.0,0.0,-0.045,-0.0675,-0.102,-0.1369,-0.1375,-0.1381,-0.1273,-0.1165,-0.1178,-0.1182,-0.0833,-0.0241,0.0245,0.5352,0.5185,0.3567,0.1319,-0.0778,-0.1566,-0.1795,-0.1791,-0.1774,-0.1777,-0.1787,-0.1662,-0.1664,-0.1791,-0.1795,-0.1795,-0.1795,-0.1795,-0.1683,-0.1677,-0.1642,-0.2504,-0.3466,-0.4068,-0.4915,-0.5728,-0.6313,-0.6557,-0.6728,-0.6984,-0.7525,-0.839,-0.916,-0.9545,-0.9826,-0.9821,-0.9826,-1.0117,-1.0507,-1.1189,-1.1843,-1.286,-1.3939,-1.4733,-1.5255,-1.5729,-1.6329,-1.6877,-1.7474,-1.831,-1.9317,-2.0516,-2.1065,-2.1763,-2.2542,-2.3032,-2.4086,-2.5351,-2.7596,-3.1005,-3.339,-3.5099,-3.7427,-3.9389,-4.0937,-4.1257,-4.0969,-4.0718,-4.0821,-4.0178,-3.9472,-3.9239,-3.9061,-3.8784,-3.8052,-3.7319,-3.6721,-3.6092,-3.4888,-3.332,-3.08,-2.7047,-2.3076,-1.9702,-1.6062,-1.3572,-1.1133,-0.9315,-0.7384,-0.5678,-0.4196,-0.3362,-0.2623,-0.1765,-0.1112,-0.0448,-0.0224,-0.0224,0.0,0.0,0.0,-0.0451,-0.0677,-0.0907,-0.1149,-0.1279,-0.1291,-0.13,-0.0834,-0.0601,-0.0486,-0.0486,-0.0484,0.0,0.0617,0.5105,0.4771,0.3114,0.1168,-0.0876,-0.1562,-0.1795,-0.1795,-0.1794,-0.1794,-0.1794,-0.1344,-0.1456,-0.1793,-0.1795,-0.1795,-0.1795,-0.1795,-0.157,-0.1556,-0.1849,-0.2843,-0.3598,-0.4087,-0.4886,-0.5808,-0.6378,-0.65,-0.6774,-0.7455,-0.8206,-0.8831,-0.9279,-0.964,-0.9821,-0.9821,-0.9826,-1.0019,-1.0708,-1.1356,-1.1966,-1.2897,-1.4129,-1.5048,-1.5697,-1.622,-1.6955,-1.7721,-1.8733,-1.9761,-2.0627,-2.1789,-2.2606,-2.3171,-2.3671,-2.4431,-2.5664,-2.6958,-2.9057,-3.2588,-3.4896,-3.671,-3.9264,-4.0481,-4.1265,-4.2002,-4.1971,-4.1589,-4.1405,-4.06,-3.9888,-3.9779,-3.9704,-3.9022,-3.8282,-3.7623,-3.704,-3.6083,-3.4784,-3.2815,-3.005,-2.6392,-2.1976,-1.8302,-1.4965,-1.2664,-1.025,-0.8075,-0.633,-0.5126,-0.373,-0.2883,-0.2124,-0.1241,-0.0567,0.0,0.0225,0.0449,-0.0112,0.0,0.0,-0.0682,-0.0914,-0.1152,-0.1286,-0.1186,-0.0843,-0.0609,-0.0246,0.0,0.0248,0.0246,0.0244,0.0612,0.1112,0.499,0.4757,0.3275,0.097,-0.1334,-0.1231,-0.1346,-0.1795,-0.1795,-0.1795,-0.1795,-0.1346,-0.1458,-0.1795,-0.1795,-0.1795,-0.1795,-0.1795,-0.1795,-0.1883,-0.2387,-0.3264,-0.3771,-0.413,-0.4912,-0.5656,-0.62,-0.6482,-0.7181,-0.7873,-0.8477,-0.8877,-0.9359,-0.9628,-0.9723,-0.9628,-0.9719,-1.0096,-1.0872,-1.1381,-1.2135,-1.3046,-1.4406,-1.5507,-1.5995,-1.6637,-1.7552,-1.8585,-1.9625,-2.0395,-2.1949,-2.3303,-2.4181,-2.4358,-2.468,-2.6027,-2.714,-2.8484,-3.1131,-3.3769,-3.6059,-3.8031,-4.0324,-4.1677,-4.2383,-4.2757,-4.3043,-4.2769,-4.2404,-4.1811,-4.1015,-4.0644,-4.0085,-3.9132,-3.8468,-3.7955,-3.7258,-3.6072,-3.4533,-3.1185,-2.8459,-2.4471,-2.0199,-1.6914,-1.3825,-1.1527,-0.9308,-0.7095,-0.5435,-0.4319,-0.3105,-0.2241,-0.1354,-0.0567,0.0,0.0562,0.0899,0.1009,0.0561,0.0,-0.0341,-0.0688,-0.1156,-0.1289,-0.1193,-0.0609,0.0,0.025,0.025,0.0748,0.0997,0.0866,0.0862,0.1234,0.1359,0.4852,0.459,0.3231,0.117,-0.0769,-0.1004,-0.1121,-0.1458,-0.1683,-0.1795,-0.1795,-0.1234,-0.1346,-0.1795,-0.1795,-0.1795,-0.1794,-0.178,-0.178,-0.2114,-0.3142,-0.3578,-0.3958,-0.4313,-0.5203,-0.5805,-0.6195,-0.6487,-0.7269,-0.8226,-0.8829,-0.9137,-0.9529,-0.9821,-1.0019,-0.9817,-0.9866,-1.0409,-1.1038,-1.1456,-1.2194,-1.3136,-1.4635,-1.598,-1.6282,-1.6996,-1.8044,-1.9128,-2.0136,-2.1092,-2.2804,-2.4032,-2.4975,-2.5488,-2.5889,-2.7196,-2.8838,-3.0464,-3.285,-3.5649,-3.7449,-3.9097,-4.1111,-4.2344,-4.302,-4.3371,-4.3867,-4.4045,-4.3767,-4.3337,-4.2379,-4.1455,-4.0325,-3.9186,-3.8726,-3.8263,-3.7202,-3.6042,-3.312,-2.9518,-2.5859,-2.1898,-1.8316,-1.5318,-1.2525,-1.0369,-0.8339,-0.6349,-0.4906,-0.3904,-0.2564,-0.1456,-0.0564,0.034,0.0789,0.1459,0.1686,0.191,0.1457,0.0902,0.0114,-0.0581,-0.0823,-0.0956,-0.0974,-0.0248,0.0502,0.0755,0.088,0.1256,0.1502,0.1492,0.1484,0.1605,0.173,0.475,0.4675,0.2939,0.1246,0.0,-0.0552,-0.0784,-0.0897,-0.1458,-0.1683,-0.157,-0.1121,-0.1234,-0.1683,-0.1795,-0.1795,-0.179,-0.1777,-0.1662,-0.19,-0.3463,-0.4082,-0.4305,-0.4805,-0.5514,-0.6004,-0.6282,-0.6524,-0.7366,-0.8329,-0.9225,-0.9624,-0.9723,-1.0019,-1.0216,-1.016,-1.0201,-1.0642,-1.1091,-1.1447,-1.208,-1.3111,-1.4302,-1.5882,-1.6604,-1.7229,-1.8379,-1.9482,-2.0624,-2.1819,-2.3156,-2.4459,-2.5742,-2.6773,-2.7302,-2.827,-3.0072,-3.2139,-3.4168,-3.6765,-3.8594,-4.0241,-4.2043,-4.2797,-4.3247,-4.4055,-4.467,-4.4688,-4.4353,-4.3523,-4.2554,-4.167,-4.064,-3.9648,-3.8977,-3.839,-3.7467,-3.5529,-3.2269,-2.8524,-2.4441,-2.0525,-1.7168,-1.4149,-1.134,-0.9071,-0.6911,-0.514,-0.3936,-0.304,-0.191,-0.0674,0.0225,0.1242,0.214,0.2697,0.2818,0.2816,0.2361,0.1475,0.0462,-0.0118,-0.0598,-0.0607,-0.0493,0.0124,0.0754,0.1008,0.1387,0.1637,0.1882,0.1999,0.199,0.1979,0.1977,0.4782,0.4549,0.1779,0.0318,0.0,-0.0109,-0.0222,-0.0336,-0.1346,-0.1346,-0.0561,-0.0785,-0.1234,-0.1795,-0.1795,-0.1795,-0.1791,-0.1779,-0.1552,-0.1977,-0.3331,-0.4259,-0.436,-0.5118,-0.5872,-0.6169,-0.6438,-0.6782,-0.7846,-0.873,-0.9426,-0.9624,-0.992,-1.0314,-1.0207,-1.0223,-1.0715,-1.1091,-1.1155,-1.1615,-1.2361,-1.3123,-1.4229,-1.5584,-1.6535,-1.7635,-1.8834,-2.0315,-2.1323,-2.2443,-2.417,-2.5692,-2.7147,-2.8085,-2.8944,-2.986,-3.0951,-3.3061,-3.5209,-3.7192,-3.8626,-4.0257,-4.1647,-4.2499,-4.3434,-4.4562,-4.5105,-4.4978,-4.4588,-4.3665,-4.275,-4.1894,-4.1071,-4.013,-3.9284,-3.8537,-3.7793,-3.4635,-3.146,-2.753,-2.3301,-1.9698,-1.6255,-1.3164,-1.0337,-0.7841,-0.5454,-0.3703,-0.2501,-0.1485,-0.0795,0.034,0.1234,0.2247,0.3147,0.3722,0.374,0.3298,0.2844,0.1956,0.0934,0.0,-0.073,-0.0246,0.0,0.0626,0.113,0.1638,0.1892,0.2137,0.2377,0.2486,0.2233,0.2224,0.21,0.477,0.4424,0.0,0.0,0.0,0.0,-0.033,-0.0888,-0.1565,-0.1458,-0.0897,-0.1121,-0.1458,-0.1795,-0.1795,-0.1795,-0.1792,-0.178,-0.1766,-0.218,-0.2896,-0.3918,-0.4592,-0.5344,-0.5928,-0.6321,-0.6885,-0.754,-0.8333,-0.9031,-0.9624,-0.9624,-1.0019,-1.0212,-1.0006,-1.0872,-1.1279,-1.1581,-1.1553,-1.1989,-1.2903,-1.3844,-1.479,-1.6109,-1.707,-1.8113,-1.9127,-2.0564,-2.1467,-2.2754,-2.4412,-2.6324,-2.7626,-2.8705,-2.9603,-3.0704,-3.1998,-3.3818,-3.5898,-3.7452,-3.8584,-4.0223,-4.1978,-4.3102,-4.3342,-4.436,-4.48,-4.4752,-4.4919,-4.4192,-4.3133,-4.223,-4.1581,-4.078,-4.0167,-3.9547,-3.7469,-3.4633,-3.1288,-2.7634,-2.3289,-1.8842,-1.546,-1.2154,-0.9345,-0.6677,-0.4372,-0.2714,-0.1489,-0.0116,0.0578,0.1262,0.228,0.3174,0.409,0.4442,0.4452,0.3895,0.3339,0.2337,0.1306,-0.0121,-0.0865,-0.0124,0.0499,0.1,0.1507,0.2014,0.238,0.2617,0.2854,0.2964,0.2715,0.2592,0.2471,0.4661,0.4068,0.1238,0.0,0.0,0.0,-0.0657,-0.1653,-0.1784,-0.1795,-0.1683,-0.1683,-0.1795,-0.1795,-0.1683,-0.1795,-0.1788,-0.177,-0.1866,-0.2384,-0.3202,-0.409,-0.4767,-0.5449,-0.6111,-0.6776,-0.7344,-0.8035,-0.873,-0.9327,-0.9628,-0.9529,-0.9727,-1.0019,-1.0792,-1.1127,-1.1149,-1.2109,-1.2483,-1.29,-1.3828,-1.4834,-1.5625,-1.6661,-1.7746,-1.8568,-1.9402,-2.0391,-2.1395,-2.2821,-2.4557,-2.6582,-2.802,-2.9138,-3.0268,-3.1304,-3.2867,-3.4605,-3.6398,-3.7973,-3.9165,-4.0623,-4.2409,-4.3344,-4.3516,-4.3981,-4.4447,-4.4793,-4.4959,-4.4421,-4.3366,-4.269,-4.2087,-4.1373,-4.0801,-4.0095,-3.746,-3.4592,-3.1104,-2.7625,-2.3119,-1.8548,-1.4556,-1.1309,-0.8504,-0.5929,-0.385,-0.2172,-0.0694,0.0706,0.1659,0.247,0.3386,0.4298,0.4849,0.5073,0.5082,0.4651,0.3982,0.297,0.1928,0.0856,0.0371,0.0498,0.1124,0.1505,0.1883,0.2388,0.2747,0.2976,0.3212,0.3453,0.3452,0.3208,0.3091,0.4123,0.2684,0.0726,0.0,0.0,0.0,-0.0653,-0.1672,-0.179,-0.1795,-0.179,-0.1793,-0.1795,-0.1794,-0.1234,-0.1231,-0.1554,-0.1649,-0.1952,-0.246,-0.3691,-0.4444,-0.4997,-0.5698,-0.6366,-0.7048,-0.7736,-0.8233,-0.8928,-0.9426,-0.9628,-0.9529,-1.0019,-1.0207,-1.0386,-1.0905,-1.1879,-1.2596,-1.3031,-1.3368,-1.4019,-1.4887,-1.5605,-1.6629,-1.7813,-1.8501,-1.9497,-2.1021,-2.169,-2.2896,-2.4856,-2.6892,-2.8266,-2.9389,-3.056,-3.1916,-3.347,-3.504,-3.6666,-3.8199,-3.9471,-4.0486,-4.2009,-4.3013,-4.3432,-4.4153,-4.4621,-4.5102,-4.4997,-4.4105,-4.3228,-4.3032,-4.2551,-4.1572,-4.0867,-3.9831,-3.801,-3.454,-3.0966,-2.7094,-2.2835,-1.801,-1.3341,-1.0349,-0.7874,-0.5396,-0.32,-0.1616,0.0117,0.1546,0.2787,0.349,0.4295,0.4618,0.4817,0.5502,0.5629,0.5193,0.4639,0.3491,0.2676,0.2207,0.1856,0.1372,0.1506,0.1766,0.2269,0.2771,0.2998,0.3353,0.3584,0.3821,0.3947,0.3966,0.3992]}]]